GFSFLT2_sfc_wetblb_000.txt.gz
Wetbulb
65.70 65.99 66.25 66.33 65.99 65.89 65.74 66.70 67.56 68.20 67.73 67.33 66.75 66.59 66.90 65.93 65.52 65.53 65.19 65.87 66.38 66.55 65.02 64.76 65.55 66.08 65.32 64.99 65.19 65.66 65.52 65.29
64.23 64.58 63.91 62.00 61.85 64.98 65.29 65.42 66.47 67.20 66.73 66.01 65.08 65.26 65.28 64.52 64.14 64.48 63.85 63.71 63.27 63.25 64.35 64.93 65.11 64.68 64.42 64.15 63.93 64.11 62.84 62.75
64.90 64.79 64.18 61.82 60.92 63.40 65.12 65.81 65.89 66.39 66.86 65.34 63.60 61.70 61.52 61.12 61.91 63.75 62.86 62.66 61.84 61.17 61.18 62.01 61.38 60.96 62.09 62.00 62.55 61.61 61.16 60.72
61.30 62.63 63.03 62.73 63.65 63.16 62.46 64.39 63.78 63.70 64.03 63.72 62.21 60.15 59.39 60.24 61.74 62.75 61.52 61.42 61.09 60.80 60.65 60.27 58.23 56.17 56.27 58.03 59.34 59.66 59.56 58.81
59.26 60.58 61.07 60.23 61.20 62.37 62.65 62.23 62.23 62.26 61.21 60.90 59.37 58.74 58.71 58.74 58.10 58.38 56.96 59.02 56.46 57.17 56.28 55.66 55.22 55.56 55.44 55.46 56.25 56.89 58.30 59.20
58.07 59.28 59.48 58.73 58.54 61.44 60.83 60.64 61.03 59.93 59.68 59.18 58.25 57.44 56.42 56.92 56.52 57.30 56.10 55.94 55.04 54.78 54.55 54.32 52.85 53.47 54.29 54.11 54.57 55.16 56.04 57.52
56.11 57.87 58.82 58.29 56.33 54.61 54.50 54.58 55.66 55.25 55.53 56.14 58.49 57.26 56.48 56.80 56.70 55.92 55.34 55.52 55.00 53.85 54.49 57.09 56.12 56.41 56.30 55.28 55.50 55.64 56.24 56.95
55.16 56.13 57.53 57.75 55.62 54.19 52.58 52.39 52.08 52.53 53.77 54.60 56.52 55.54 54.34 55.40 55.62 55.60 53.71 53.32 52.86 52.01 51.07 50.65 50.93 52.18 54.46 57.10 57.85 57.40 57.20 57.04
52.77 53.97 55.00 54.20 55.65 54.58 52.98 51.64 51.39 51.74 52.68 53.26 54.15 52.32 50.25 50.05 49.92 51.58 51.74 51.96 52.23 51.29 49.50 49.58 48.72 50.91 49.95 51.20 52.62 53.54 53.90 55.28
50.64 54.40 53.11 52.39 53.78 53.66 53.38 51.66 49.54 50.34 52.02 51.93 52.24 52.78 51.34 49.81 48.79 48.00 47.42 47.74 49.22 44.41 44.25 44.20 43.82 44.09 44.22 44.93 47.58 50.24 48.68 48.87
46.99 49.52 50.05 49.63 49.40 49.77 48.84 49.79 47.88 48.22 51.40 51.45 51.69 51.77 50.97 48.82 49.41 47.91 46.92 46.97 45.68 45.04 44.24 43.90 42.62 43.10 43.47 44.03 43.08 42.77 43.47 46.97
46.88 45.96 47.04 48.45 47.61 46.51 45.77 46.12 46.32 46.29 49.21 50.92 51.33 50.46 50.05 47.05 48.49 47.78 46.50 45.84 45.16 44.46 43.73 43.80 43.62 42.84 44.91 43.85 42.47 42.73 43.17 42.95
46.93 46.91 46.63 45.94 44.86 44.43 43.66 43.85 45.06 45.28 46.32 50.66 50.40 49.60 49.37 46.56 46.05 47.56 47.09 45.22 45.17 44.37 43.47 43.08 42.08 42.43 40.88 41.48 41.26 41.85 42.20 43.19
45.97 46.32 46.42 46.06 44.74 44.54 44.75 43.78 44.26 45.38 45.88 46.11 49.05 49.01 47.72 46.98 45.66 45.93 45.76 44.81 43.91 44.13 44.18 42.49 42.39 42.30 40.62 38.97 37.04 40.26 41.34 42.71
46.62 46.46 46.26 46.49 46.14 44.56 43.94 43.64 43.54 43.80 43.92 44.40 46.21 47.69 48.19 47.15 46.05 45.22 44.22 43.78 43.10 43.06 42.52 41.81 40.17 41.60 41.60 40.31 36.61 34.79 39.70 41.98
45.95 46.97 46.81 46.78 46.29 44.22 43.44 45.47 44.90 46.32 46.57 43.84 45.24 47.40 47.13 46.73 46.25 45.26 44.19 43.92 43.29 43.37 43.65 42.03 41.11 39.19 41.26 43.50 41.49 39.84 36.82 36.26
46.50 46.83 46.98 48.03 47.34 45.97 44.66 44.08 45.64 46.57 43.00 42.79 42.91 44.23 45.76 46.29 45.69 44.65 44.03 44.08 42.72 41.10 40.69 39.17 40.57 38.90 38.85 38.51 38.42 38.71 38.35 36.63
47.71 47.08 47.59 48.03 47.71 47.02 44.91 43.74 45.35 43.94 43.91 43.37 43.13 41.65 41.55 42.89 43.13 42.19 41.42 40.74 40.37 39.82 39.94 37.77 38.11 38.74 37.36 37.94 37.43 35.64 35.76 35.23
46.59 46.57 47.75 49.01 46.82 46.68 46.47 45.46 45.36 44.36 44.69 44.15 43.46 41.75 41.04 40.62 41.04 40.78 40.15 39.49 39.91 39.39 40.55 40.26 38.40 37.40 35.89 36.42 38.04 37.82 38.68 37.73
46.91 47.50 46.37 46.70 46.20 46.30 45.02 44.80 44.43 44.25 42.89 42.03 39.68 41.11 40.30 40.29 39.18 39.75 40.79 40.97 40.39 40.68 41.09 40.57 39.47 36.88 36.65 37.08 37.96 38.35 38.61 38.23

GFSFLT2_sfc_wetblb_003.txt.gz
Wetbulb
64.39 64.92 65.57 66.30 65.90 66.32 66.53 67.23 67.88 67.64 67.30 67.03 66.72 66.36 66.41 65.22 65.20 65.12 64.78 65.50 65.82 65.38 65.13 64.27 64.42 65.58 64.41 64.39 63.96 64.83 63.06 63.99
63.12 63.38 63.30 62.14 62.08 65.27 65.38 66.29 66.79 66.77 66.39 65.59 64.85 65.19 65.34 64.03 63.33 63.58 63.31 63.35 62.19 61.97 62.65 63.24 63.07 62.96 62.76 62.25 62.48 63.54 61.87 62.27
63.02 62.94 62.25 61.11 60.01 62.72 65.03 65.79 66.30 66.34 65.56 64.83 62.93 60.64 59.52 59.51 61.83 62.69 62.79 62.08 61.54 61.39 60.92 60.42 59.23 58.27 59.06 60.04 60.55 59.89 60.24 60.55
63.66 63.00 62.64 61.49 62.71 61.83 61.33 62.69 63.07 63.56 64.15 62.07 60.44 58.34 58.00 59.18 60.95 62.15 61.52 60.98 60.42 60.24 59.97 59.20 57.25 54.92 55.22 57.27 55.85 57.29 58.15 59.08
61.76 62.32 61.60 61.42 61.55 61.40 60.60 61.01 60.92 61.00 61.13 61.03 59.31 58.36 57.79 57.61 57.01 57.86 56.13 58.49 55.51 55.76 54.46 53.50 52.22 52.53 53.16 53.66 54.32 55.02 56.11 57.33
58.39 59.42 59.10 57.84 60.26 61.04 60.95 60.46 60.62 60.17 59.63 58.74 57.39 55.93 55.47 56.37 56.33 56.41 55.89 55.03 54.23 54.03 53.74 53.73 53.24 53.51 53.77 53.60 54.18 54.43 54.85 56.05
56.88 57.57 57.99 56.64 56.09 54.51 56.46 57.48 60.12 59.01 57.95 57.86 57.67 56.15 55.07 55.65 55.51 55.69 54.63 54.51 54.04 52.98 52.43 52.84 53.48 53.88 54.22 54.72 55.08 55.22 56.19 56.61
54.87 56.39 57.49 55.92 53.84 52.81 52.84 53.39 54.43 54.23 54.06 54.41 56.94 56.67 55.43 55.11 55.71 54.69 53.99 52.62 51.63 50.51 49.24 48.39 48.46 49.84 51.22 52.01 53.38 54.29 54.65 55.24
54.20 54.60 55.55 55.37 54.87 53.50 51.90 51.33 51.66 51.59 52.70 53.94 55.10 53.75 51.44 52.56 53.56 53.23 52.43 50.96 50.77 49.83 46.64 47.45 45.59 47.67 46.73 47.33 47.40 49.45 51.89 50.30
51.35 54.75 53.44 52.37 53.82 53.54 52.86 51.77 50.20 50.11 51.37 51.68 52.80 51.89 49.58 48.16 48.04 49.13 48.63 46.73 50.04 45.23 42.50 42.95 42.95 42.62 42.92 43.19 43.92 46.48 45.71 44.58
48.01 51.23 51.26 50.56 50.93 51.34 50.29 50.07 48.43 47.98 49.58 50.88 50.69 51.15 50.75 49.17 48.22 47.57 46.61 45.80 44.91 43.64 43.32 43.13 41.98 42.11 42.43 42.88 42.04 42.09 42.32 44.82
45.94 47.64 48.07 47.74 46.94 45.72 44.52 44.77 45.94 46.40 46.92 49.73 51.05 50.22 50.33 47.53 47.63 48.27 46.40 44.96 44.31 43.87 43.39 42.84 42.58 42.27 43.62 43.30 41.61 42.17 41.73 41.60
44.72 44.77 44.85 45.07 44.24 43.80 43.28 43.59 43.99 44.71 45.10 47.22 49.97 50.43 49.49 47.18 46.20 47.35 46.65 44.80 44.51 44.33 42.87 42.09 41.59 41.33 40.18 40.18 40.74 41.12 41.26 41.57
44.85 45.52 45.50 44.82 43.99 43.78 43.98 42.93 43.29 43.81 44.52 45.35 48.48 50.18 49.72 47.84 45.85 46.35 46.81 45.52 43.92 43.75 42.86 41.61 41.48 41.52 39.39 37.79 35.70 37.70 39.60 42.27
44.99 45.27 45.13 45.22 44.99 43.67 43.07 42.64 42.77 42.39 43.52 43.11 44.97 48.07 50.22 48.57 46.25 45.62 45.69 45.93 44.71 42.88 42.58 41.93 39.63 40.16 40.62 38.81 34.69 33.33 36.66 39.38
44.61 45.03 44.85 45.45 45.28 44.28 42.86 43.64 44.20 46.50 46.07 45.62 45.41 45.28 47.20 48.97 47.96 45.24 44.54 43.57 41.95 41.40 42.01 40.64 39.53 37.31 38.41 41.92 39.58 38.42 32.11 30.92
44.61 45.85 46.79 46.89 46.25 45.46 44.83 43.58 45.30 46.28 45.48 42.32 43.09 43.16 44.90 46.63 47.64 45.89 43.34 44.23 43.74 42.83 40.78 39.28 37.93 37.23 36.34 36.02 35.55 35.83 36.19 33.95
45.53 46.11 46.58 47.41 46.94 46.37 44.60 43.15 43.99 43.63 43.81 42.43 43.47 41.40 41.91 43.21 43.90 44.14 42.04 41.51 40.30 37.84 38.50 38.36 38.38 37.84 37.38 37.88 36.43 34.10 32.45 32.09
45.07 44.84 44.86 45.00 44.82 44.87 44.70 43.86 42.96 42.51 42.88 42.91 41.29 38.82 38.41 38.48 40.05 38.71 38.83 39.18 39.73 40.83 39.73 39.80 39.38 38.27 36.02 36.12 37.56 36.22 35.81 34.89
43.91 44.17 44.27 44.73 44.31 43.30 42.57 41.75 41.66 42.45 41.31 40.35 39.01 37.47 36.64 38.16 39.46 41.53 41.97 41.56 42.27 42.83 42.40 41.35 40.85 39.58 38.92 37.19 35.17 35.28 35.81 35.73

GFSFLT2_sfc_wetblb_006.txt.gz
Wetbulb
62.85 63.60 64.90 66.27 66.07 66.34 66.48 67.09 67.45 67.08 66.88 67.11 66.69 66.44 65.68 64.92 64.75 64.58 64.20 64.09 63.31 63.37 63.62 64.36 64.40 63.48 63.19 62.42 62.77 64.26 62.08 62.39
61.89 61.84 62.09 61.51 61.73 65.15 65.51 66.15 66.62 66.35 65.93 65.15 64.71 65.06 64.44 63.53 61.99 63.22 62.92 62.80 62.28 61.94 61.60 61.71 60.69 60.06 60.21 60.42 61.17 61.47 60.69 61.02
61.76 61.78 61.20 59.64 59.56 62.44 64.78 65.79 66.26 66.08 65.22 64.56 62.44 59.72 58.27 57.59 61.21 62.40 62.18 61.57 61.12 60.88 60.86 60.01 59.08 58.14 58.71 59.02 58.19 57.55 59.01 59.40
62.00 61.79 61.16 60.07 61.27 60.43 60.54 61.86 62.71 63.36 63.06 61.50 59.76 58.09 57.07 58.53 59.99 61.82 61.01 60.51 60.19 60.05 58.96 57.79 54.86 52.86 53.30 55.71 54.15 55.17 56.12 56.91
63.13 62.16 61.36 60.74 60.46 60.09 59.35 59.53 60.01 60.57 61.35 60.31 58.76 58.26 56.68 56.84 55.68 56.38 55.20 58.03 54.04 54.95 54.05 53.62 52.55 52.28 53.18 53.82 54.28 54.62 54.76 55.96
61.61 61.28 60.57 59.48 59.80 60.10 59.46 59.49 59.49 59.41 59.18 59.10 57.58 56.04 54.54 55.32 55.17 55.14 55.31 54.86 53.48 53.13 53.19 53.42 53.51 53.71 53.73 53.49 53.81 53.94 54.79 56.16
57.63 58.05 58.04 56.81 58.29 58.18 58.62 59.04 59.49 59.18 58.64 57.87 57.16 55.58 54.60 54.56 55.26 54.69 55.01 54.11 53.65 53.17 51.75 50.80 50.13 50.81 51.67 52.74 52.92 53.69 54.34 54.66
56.01 56.27 57.06 55.43 53.27 53.44 54.32 55.25 56.82 56.94 56.38 56.84 56.53 56.24 54.86 54.14 54.62 54.53 53.53 53.37 52.32 50.70 48.69 47.58 47.02 47.96 49.33 49.00 49.03 49.52 51.52 51.47
53.79 55.12 55.93 54.79 53.57 52.43 51.13 51.52 52.26 52.31 53.28 53.52 53.73 55.39 54.62 53.87 53.38 53.65 53.57 52.14 49.90 49.20 47.33 46.28 44.66 45.68 44.95 45.98 45.98 46.93 50.01 48.23
52.86 55.36 54.26 53.44 53.07 52.93 52.09 50.88 49.98 49.97 50.85 51.58 52.85 53.92 52.11 50.16 50.10 50.93 51.97 49.83 49.49 48.31 42.65 42.42 42.69 42.54 42.75 42.98 43.35 43.97 44.70 44.25
50.68 50.80 51.99 51.15 51.25 51.94 51.43 50.78 49.85 48.93 48.71 50.07 50.91 51.63 51.17 48.17 47.55 47.89 48.40 45.85 45.84 46.12 42.26 42.79 41.76 41.49 42.00 42.19 42.15 42.19 42.84 44.42
47.86 48.95 49.91 48.87 46.76 45.64 44.97 44.36 45.07 46.50 46.37 47.29 50.03 50.33 50.49 49.04 47.78 47.52 46.74 44.95 43.90 42.91 42.39 42.34 42.33 41.84 43.42 43.00 41.63 42.32 42.02 42.08
44.77 45.27 45.52 44.73 43.93 43.87 43.25 43.93 43.58 44.18 44.92 46.37 47.46 49.61 50.07 49.42 48.14 47.09 47.03 45.41 45.41 43.57 42.75 42.03 41.23 41.39 40.53 39.87 40.23 41.24 41.07 41.71
44.29 44.25 44.07 43.20 42.81 42.52 42.67 41.97 42.57 42.62 43.57 44.18 45.32 46.47 48.46 49.44 48.47 46.89 46.30 46.70 43.99 43.36 42.37 40.91 41.13 40.86 38.99 37.54 35.41 37.16 38.86 41.36
43.43 43.49 43.32 43.46 43.88 43.13 42.70 42.36 42.96 42.97 44.08 43.39 44.87 45.00 46.81 48.54 48.91 47.89 46.29 46.44 46.00 44.65 43.37 41.58 40.82 40.03 40.18 38.03 34.37 32.86 35.15 37.98
43.89 44.55 44.84 45.71 45.46 44.07 43.02 41.99 41.94 44.26 44.18 44.67 45.36 44.75 44.43 46.18 48.46 47.52 46.13 45.79 45.50 44.13 43.50 42.26 39.97 38.11 38.98 41.42 38.81 37.38 31.43 31.01
43.86 45.25 45.45 45.43 44.68 44.35 43.77 43.51 43.51 44.24 44.36 43.20 43.92 43.95 42.82 43.60 44.82 45.65 44.71 42.77 42.28 43.57 41.38 40.08 39.57 37.78 36.62 36.49 35.62 36.86 36.38 32.86
43.80 44.43 44.99 45.40 44.40 43.68 42.13 40.89 41.10 41.61 42.41 41.83 42.54 42.11 40.68 40.54 41.78 41.85 40.48 39.25 37.95 37.89 39.64 38.83 36.57 38.50 37.79 37.37 36.24 34.47 33.23 32.34
44.23 43.70 43.74 43.98 43.47 41.31 40.12 39.99 39.85 39.70 40.97 41.64 40.64 39.60 36.53 36.38 37.55 38.67 39.04 39.44 40.30 41.59 40.03 40.18 40.16 39.63 39.24 39.02 38.88 38.53 38.31 36.62
42.85 42.94 43.09 43.12 42.55 40.08 40.04 40.52 40.13 40.55 40.74 39.86 38.30 36.49 36.25 38.53 39.45 40.33 40.05 40.26 40.62 40.77 40.50 40.96 40.90 39.97 38.44 38.07 37.34 37.60 38.05 37.29

GFSFLT2_sfc_wetblb_009.txt.gz
Wetbulb
66.20 66.61 66.93 66.65 66.24 66.45 66.51 67.07 67.11 66.91 66.80 66.67 66.25 66.10 65.32 64.72 64.50 64.37 64.08 63.71 63.24 63.14 63.24 62.94 62.53 61.88 61.61 61.12 62.12 62.96 65.59 65.43
66.07 66.41 66.09 66.13 66.32 65.29 65.79 66.14 66.44 66.19 65.85 64.87 64.70 64.75 63.75 63.34 61.69 62.79 62.97 62.66 62.36 62.04 61.33 61.20 60.42 60.29 60.31 59.75 59.55 60.64 63.29 63.80
66.35 66.14 65.48 65.19 65.44 65.49 65.35 66.00 66.26 65.97 65.66 64.42 64.31 65.69 64.36 62.50 61.89 61.82 62.08 61.53 61.02 60.77 60.30 59.48 58.00 57.66 58.40 58.24 58.13 61.04 61.15 61.84
66.08 66.43 66.03 64.90 63.63 65.42 65.88 65.77 67.18 67.88 67.30 66.39 66.08 64.93 63.90 62.63 61.94 61.20 61.26 60.66 59.95 59.72 59.17 57.47 57.02 59.31 60.53 58.90 61.11 61.30 62.04 61.89
66.09 66.62 66.87 65.83 64.84 65.72 65.78 65.76 66.19 66.74 66.77 66.38 65.45 64.76 64.42 64.08 63.25 62.88 63.01 60.64 61.74 60.27 60.80 61.21 60.92 60.87 60.69 60.50 59.92 60.10 61.29 61.93
67.19 66.96 66.57 66.90 66.62 66.10 65.69 65.07 65.32 65.47 65.76 65.55 65.47 64.58 63.74 62.74 62.18 62.13 62.48 63.02 61.85 61.55 61.49 60.79 60.06 59.73 58.69 58.35 58.06 58.78 59.10 59.60
66.94 66.82 65.96 65.18 63.97 65.11 65.36 65.17 65.23 65.52 65.30 65.05 64.43 63.68 63.15 62.18 61.59 61.69 61.95 62.15 61.54 61.08 60.36 57.77 56.05 55.34 56.29 55.79 55.23 55.64 56.84 56.46
64.52 63.56 63.45 62.78 62.50 63.35 64.10 64.32 64.79 64.62 64.91 64.78 64.07 63.48 62.96 62.00 61.53 61.40 61.49 61.48 61.23 60.59 58.00 55.79 54.89 54.39 54.68 54.19 53.77 54.37 55.94 55.48
61.34 61.91 62.61 62.43 60.99 60.04 60.00 60.62 60.67 62.62 63.18 63.46 62.80 62.37 62.02 61.61 61.22 61.01 61.04 61.32 60.68 58.30 56.04 55.27 53.92 52.92 52.81 52.99 53.07 53.17 54.66 53.43
60.08 60.18 61.20 61.57 60.68 60.59 60.23 59.60 58.95 58.73 58.90 59.50 60.07 59.92 60.29 60.46 59.54 59.45 60.18 60.20 59.47 57.71 56.30 53.75 51.98 52.15 52.14 52.49 52.19 52.27 52.29 52.26
59.10 59.89 59.98 60.10 59.04 59.28 59.57 59.09 58.92 58.68 58.01 57.61 58.19 58.58 59.00 58.92 58.36 58.16 58.08 57.41 57.31 56.49 55.13 53.08 51.67 51.75 51.12 51.73 51.84 51.46 51.81 50.76
58.09 57.73 58.11 57.63 57.05 55.87 55.33 54.75 54.93 54.91 55.31 55.51 55.89 56.51 57.43 57.58 57.54 56.84 56.60 55.17 54.83 53.96 53.06 52.67 51.57 51.62 49.72 49.79 51.63 51.82 51.57 51.38
55.70 55.20 54.96 54.43 53.24 52.72 53.31 52.82 52.88 53.36 53.61 53.55 53.61 53.92 54.60 55.43 55.60 55.99 55.83 54.22 54.38 54.16 52.92 51.44 50.70 51.11 49.66 49.88 50.12 51.12 50.87 50.69
51.00 50.46 50.82 50.72 51.40 51.81 51.81 51.43 52.14 51.80 52.29 53.23 53.55 52.98 53.01 52.88 53.86 53.96 54.42 53.70 54.26 54.13 52.34 51.52 50.57 51.27 48.75 48.46 45.45 47.59 48.38 49.19
49.82 50.26 51.20 51.73 51.74 52.04 52.44 52.51 52.48 52.18 51.99 52.03 52.53 52.76 52.47 52.24 52.13 52.57 53.00 53.30 52.15 54.07 53.46 51.41 50.44 50.62 50.39 48.74 44.94 43.06 46.31 47.52
51.76 51.84 51.92 51.50 51.73 50.67 49.75 48.59 47.76 49.55 49.88 50.37 50.78 51.86 51.61 51.31 50.79 50.97 51.48 52.00 51.74 51.96 52.76 52.08 50.77 49.48 48.09 47.57 47.30 45.68 43.27 42.91
51.17 51.27 51.09 50.94 50.29 49.20 49.06 48.57 48.84 48.93 48.86 48.62 48.82 49.91 50.41 49.57 49.08 49.11 49.29 49.91 50.64 50.48 50.51 49.07 49.36 48.42 46.72 45.93 44.38 43.73 43.99 40.69
51.20 50.92 50.70 50.94 50.40 48.72 48.33 47.77 47.58 47.55 48.02 47.60 48.20 48.62 48.13 47.02 46.54 47.19 46.42 46.35 45.82 45.83 45.38 45.52 45.11 45.10 43.94 43.92 43.22 41.07 39.87 39.44
50.25 50.08 49.68 50.02 49.78 47.68 47.32 47.87 48.02 47.17 46.65 46.53 46.35 46.29 45.90 45.30 45.12 45.73 45.39 45.66 45.64 45.50 44.96 44.18 43.52 42.12 40.89 40.18 40.36 38.93 38.84 37.28
49.65 49.35 49.31 49.63 49.70 47.64 47.24 47.75 46.79 45.74 46.14 45.92 45.57 44.06 44.12 44.89 45.30 45.65 45.72 45.57 45.33 45.41 44.50 41.23 39.93 39.44 37.89 37.18 36.18 37.04 37.65 37.98

GFSFLT2_sfc_wetblb_012.txt.gz
Wetbulb
67.57 67.79 67.88 67.04 66.87 67.01 67.16 67.42 66.87 66.61 66.76 66.59 66.35 66.01 65.13 64.62 64.51 64.22 63.76 63.43 63.17 63.01 63.01 62.67 62.04 61.41 60.91 60.56 61.15 62.04 66.84 67.12
67.94 68.66 68.11 68.79 68.26 65.64 66.47 66.55 66.86 65.86 65.32 64.61 64.37 64.76 63.73 62.85 61.88 62.87 62.90 62.28 61.98 61.76 61.36 60.80 60.25 60.08 60.01 59.58 59.54 60.99 65.38 66.39
68.73 68.50 68.73 69.21 68.51 67.36 65.38 65.86 66.29 66.02 66.06 64.26 64.91 68.01 67.03 65.03 61.89 61.42 61.54 61.07 60.77 60.43 59.47 58.17 57.57 58.43 58.77 58.47 59.13 64.01 63.92 64.30
69.44 69.66 69.17 69.14 66.97 68.61 69.00 68.41 69.40 69.63 68.98 68.55 68.28 67.85 67.46 64.60 63.33 60.97 60.81 60.41 59.16 59.15 59.05 58.83 59.17 61.66 62.46 60.37 62.22 62.33 62.31 62.27
69.07 69.99 69.90 69.04 68.48 68.80 68.36 68.42 69.00 69.29 68.89 68.95 68.58 67.81 67.59 66.79 66.26 65.24 64.95 61.96 63.64 62.50 62.93 62.07 62.05 62.14 61.22 61.59 61.12 61.24 61.06 61.48
69.39 69.93 69.97 69.82 68.57 67.83 68.51 67.46 67.99 67.52 68.28 68.66 68.33 67.22 66.65 66.17 65.06 64.19 63.81 63.41 63.32 62.95 62.42 62.89 61.95 60.53 59.75 58.80 58.39 58.39 58.65 60.05
69.82 70.51 70.21 68.82 67.80 67.90 67.97 67.84 67.35 67.67 67.55 67.29 68.11 66.47 65.61 65.05 64.14 63.38 62.81 62.70 62.33 62.00 61.74 61.17 59.33 57.90 57.38 57.23 56.69 56.93 57.49 57.79
70.10 70.29 69.89 67.11 66.22 66.80 66.94 67.76 67.00 66.99 65.92 65.74 67.15 66.81 64.85 63.49 62.42 61.63 61.34 61.29 61.45 61.20 60.76 59.97 58.52 57.80 56.57 57.27 56.53 56.32 56.56 57.17
68.69 69.14 67.76 66.36 65.17 64.85 65.18 65.38 64.43 64.01 63.87 64.66 65.31 65.41 64.01 63.38 61.83 61.25 61.15 61.47 61.74 61.61 60.99 59.89 58.43 57.15 55.88 56.07 56.25 56.23 55.89 56.13
67.38 66.47 65.55 65.26 64.27 64.52 64.11 64.14 63.68 62.99 63.02 62.93 63.11 63.08 63.11 62.54 61.24 61.00 61.61 61.47 60.70 60.03 59.53 58.25 57.67 56.46 55.55 55.45 55.58 55.71 55.28 55.44
65.74 66.10 64.25 63.31 63.62 63.27 63.30 63.05 62.94 62.51 62.29 61.22 61.29 61.39 61.51 61.41 60.44 60.56 61.58 60.52 59.79 59.32 58.77 58.35 56.96 55.94 55.06 55.24 55.56 55.21 55.17 54.46
64.72 64.21 62.36 62.04 63.03 62.07 60.49 60.05 60.03 59.88 59.41 59.10 58.99 58.83 59.12 59.36 59.24 59.98 60.33 59.45 58.81 58.45 58.08 58.01 57.03 56.14 54.00 53.66 54.67 55.39 55.46 54.82
60.62 60.35 57.50 59.50 59.12 57.05 57.55 57.16 57.47 58.10 58.67 58.37 58.42 58.27 57.93 57.86 57.47 57.80 58.27 57.74 58.08 58.37 57.85 57.08 56.28 56.80 54.13 53.58 54.02 55.18 55.21 54.62
56.38 55.79 55.98 56.36 57.46 57.52 57.45 57.02 57.71 57.62 57.94 57.60 57.18 56.15 56.12 55.60 56.02 55.77 56.13 55.76 56.41 56.76 56.89 55.96 56.19 56.48 53.20 52.39 49.18 51.79 53.84 54.10
55.88 56.50 56.62 56.75 56.75 57.36 57.36 57.40 56.96 55.54 54.37 54.51 54.65 54.70 54.44 54.50 54.48 54.60 54.71 54.78 54.00 55.15 55.49 55.13 53.64 55.67 56.42 52.27 48.88 47.26 50.60 53.29
56.37 56.36 56.02 55.83 55.98 54.98 54.35 53.43 52.11 53.23 53.49 53.68 53.54 53.97 53.40 53.04 53.24 53.39 53.73 53.71 53.41 53.70 53.91 54.22 54.00 52.17 54.32 55.12 54.61 53.04 48.36 47.17
56.60 55.96 55.47 55.18 54.67 54.35 53.95 53.16 53.19 53.37 53.19 52.36 52.23 52.31 52.34 52.12 52.31 52.14 52.44 52.85 53.01 53.08 52.90 52.77 53.02 52.07 51.42 51.43 50.05 51.04 51.20 46.52
55.76 55.04 54.30 54.76 54.57 53.24 52.49 52.28 51.87 51.41 50.95 49.89 49.77 50.13 50.36 51.06 51.17 51.06 51.37 51.09 50.72 50.48 50.15 49.02 48.54 47.74 47.99 47.68 45.99 41.99 42.84 42.89
54.73 54.50 53.52 53.85 53.45 52.60 52.04 51.82 51.61 50.52 49.81 48.86 48.10 47.97 48.42 49.14 50.05 50.25 50.08 50.49 50.05 48.36 45.29 43.42 42.57 40.40 39.51 39.10 38.42 37.60 37.74 38.44
54.28 53.94 53.04 52.82 52.64 52.10 52.06 52.17 51.38 49.63 48.77 47.75 46.99 47.37 47.96 49.01 49.29 48.97 48.62 48.56 48.00 47.22 45.80 43.87 40.84 39.56 38.71 38.37 37.86 38.38 38.89 38.09

GFSFLT2_sfc_wetblb_018.txt.gz
Wetbulb
65.09 65.16 66.73 67.13 67.05 67.35 67.24 67.26 67.19 67.16 67.16 66.90 66.60 66.22 65.85 65.30 64.85 64.40 63.80 63.43 62.91 62.29 61.89 61.93 61.95 61.93 62.02 62.04 61.57 62.02 59.93 60.84
65.61 66.00 65.95 65.86 65.12 66.37 66.62 66.85 66.55 66.27 66.06 65.75 65.68 65.71 65.61 64.77 64.91 63.95 62.81 61.80 61.51 61.18 61.12 61.07 61.15 61.37 61.74 61.90 61.13 61.26 58.15 59.67
66.19 65.76 65.95 66.51 65.95 65.69 66.29 66.89 66.43 66.01 65.97 65.18 64.41 65.22 64.67 64.03 63.28 63.69 62.68 62.21 62.01 61.64 61.17 61.24 60.84 61.02 61.50 61.50 61.32 57.82 58.96 57.34
66.76 66.89 66.09 65.79 64.21 65.01 66.21 66.70 65.97 66.10 66.58 66.44 66.18 65.79 65.06 64.65 64.16 63.34 63.63 63.21 63.23 62.73 62.48 61.89 61.24 58.09 58.40 60.60 58.35 58.73 57.09 57.11
66.76 68.60 67.78 66.56 65.84 63.68 65.43 65.43 65.50 66.84 67.53 65.80 66.00 65.02 65.79 64.10 63.45 63.14 62.29 62.55 61.82 61.11 60.93 59.60 60.37 59.17 58.37 57.57 57.14 55.77 54.93 55.25
67.41 68.68 68.65 66.96 65.84 64.74 64.66 64.93 64.59 65.00 65.02 65.60 64.38 63.35 63.45 62.21 61.51 60.28 60.04 59.40 59.26 59.16 58.28 59.76 59.28 59.81 58.18 56.52 55.77 55.26 53.91 54.04
65.59 68.53 69.16 67.66 65.79 65.50 65.36 64.74 65.47 64.59 64.62 64.63 63.86 62.41 62.37 62.08 61.01 60.41 59.81 59.19 58.31 57.91 57.46 57.48 57.66 57.45 57.37 56.40 55.21 54.90 54.97 54.18
66.62 67.66 69.46 67.46 64.50 64.15 64.43 65.16 65.10 64.79 63.18 62.38 62.84 62.25 62.01 61.24 60.23 60.07 59.39 59.05 58.67 57.72 56.79 57.02 56.77 57.12 56.32 56.27 55.01 54.21 54.11 54.06
64.92 63.26 68.95 66.35 64.19 63.58 63.17 62.54 61.06 61.27 62.02 61.86 61.58 61.38 60.72 60.46 59.67 59.31 59.28 59.51 59.01 58.12 57.59 56.83 56.18 56.93 55.80 55.91 55.32 54.42 54.22 54.06
63.68 66.54 68.13 66.02 64.53 62.94 62.38 62.38 61.50 60.96 61.17 61.60 61.07 61.26 60.68 59.63 58.84 58.87 59.38 59.35 58.32 57.57 56.71 55.64 55.16 54.81 54.45 54.73 54.00 53.86 54.02 53.91
62.94 67.33 66.76 65.67 63.58 62.04 62.17 61.70 60.72 61.09 59.89 59.41 59.57 59.25 60.02 58.35 57.40 57.81 58.73 57.42 56.82 56.73 55.60 55.42 54.31 54.32 54.61 54.08 54.26 53.64 52.91 54.57
63.98 64.19 63.63 63.14 62.20 61.04 60.21 59.51 59.40 59.77 58.92 58.58 58.91 57.91 57.99 56.81 55.93 56.69 57.34 54.92 54.40 54.42 54.49 54.37 54.13 54.04 55.61 55.19 54.54 54.83 54.58 52.51
62.50 59.87 60.16 59.39 58.30 56.84 56.99 56.56 57.13 57.67 57.75 58.97 57.58 57.27 56.07 54.86 53.82 53.59 53.19 52.23 52.21 52.81 52.26 51.22 51.59 52.43 52.29 52.17 52.99 54.54 54.53 54.48
58.53 58.10 58.10 57.38 57.42 57.01 57.00 56.60 57.20 56.88 57.45 57.18 57.03 55.75 55.01 54.12 53.34 52.29 51.90 50.72 50.37 50.36 50.59 50.40 50.32 51.06 49.88 49.57 46.76 49.26 51.81 53.29
57.26 57.49 57.38 57.14 57.05 56.61 56.28 56.30 55.95 55.10 54.80 54.57 55.62 55.01 53.91 52.82 51.98 51.12 50.79 50.57 49.19 48.50 48.68 48.56 47.76 48.95 49.51 47.91 44.88 43.12 46.47 49.65
57.37 57.51 57.14 56.91 56.91 55.40 54.54 53.59 51.95 53.43 53.58 53.51 53.04 52.97 52.54 50.99 50.49 50.03 49.19 49.65 48.67 48.54 49.91 48.53 47.84 45.97 47.30 47.32 44.85 44.90 42.85 42.46
57.69 57.56 56.94 56.90 56.22 55.60 53.56 52.57 52.59 52.64 51.98 51.38 50.69 50.47 49.93 49.63 48.87 48.17 47.91 48.42 48.08 48.64 48.04 46.11 45.04 43.28 42.22 41.82 40.84 40.87 42.21 40.10
57.49 56.65 56.38 56.78 55.43 54.72 53.62 52.51 51.40 50.43 49.80 48.47 47.49 47.08 47.06 47.46 48.25 47.31 47.73 47.97 46.70 46.42 45.16 44.09 42.83 42.40 41.71 40.53 39.30 37.87 36.78 36.72
56.18 55.88 54.77 55.52 55.75 54.31 53.85 52.09 51.02 48.90 47.74 46.06 44.98 45.00 45.06 45.40 46.78 47.17 46.62 46.02 44.73 44.16 42.81 41.32 40.69 40.10 40.08 38.25 38.81 37.71 38.52 37.44
55.57 54.65 53.69 53.49 53.78 53.12 53.07 51.77 49.44 48.26 46.54 45.27 44.55 44.23 44.78 46.22 45.34 46.34 43.95 44.16 44.42 43.87 43.26 42.11 40.65 40.87 41.06 40.54 39.28 39.11 38.73 38.03

GFSFLT2_sfc_wetblb_021.txt.gz
Wetbulb
63.29 64.94 66.42 66.76 66.52 66.52 66.35 66.85 66.99 67.14 66.95 66.91 66.30 66.06 65.92 66.02 65.33 64.48 63.72 62.94 62.19 61.67 61.72 62.15 62.48 62.47 62.80 62.37 61.85 62.11 59.06 56.80
60.72 62.64 63.68 63.49 64.08 65.64 65.71 65.64 65.56 65.46 65.67 65.82 65.31 65.24 65.05 65.18 64.83 64.77 63.94 62.97 62.22 61.66 62.07 62.14 62.08 61.90 61.75 61.65 61.50 61.70 55.64 56.14
61.91 61.79 62.60 62.14 62.68 64.87 65.57 65.98 65.59 65.14 65.08 64.85 63.88 63.05 63.37 62.88 63.52 63.81 63.93 63.36 62.93 62.65 62.39 61.95 61.43 60.89 60.75 61.24 61.15 57.63 56.15 54.80
61.70 60.90 61.86 63.06 64.18 63.38 62.96 64.42 64.15 63.84 63.78 63.38 62.78 61.85 62.41 63.18 62.75 63.41 63.65 63.31 63.13 63.01 63.17 62.45 61.54 57.87 56.73 60.05 57.22 56.64 54.33 53.65
62.92 61.88 61.47 61.36 60.63 61.06 62.46 62.63 62.70 62.87 63.19 61.55 60.94 62.14 60.81 59.52 60.22 60.44 59.52 61.80 59.80 61.22 60.03 59.41 58.21 57.59 56.48 55.29 55.03 53.34 52.26 51.89
63.85 63.09 61.94 61.37 60.41 59.71 60.26 60.04 60.51 61.51 61.49 60.75 59.51 59.26 57.49 57.98 56.61 56.17 56.31 56.70 57.35 55.91 55.56 55.79 55.87 56.77 57.10 55.64 53.98 52.35 52.18 51.63
64.50 64.03 62.24 62.37 60.53 59.98 59.66 60.55 60.11 59.74 60.30 60.20 59.07 58.85 57.49 57.36 57.27 56.65 56.17 55.75 54.79 54.38 54.21 54.71 54.91 55.07 55.08 54.79 54.09 53.12 52.81 52.51
64.57 64.14 65.07 63.21 60.77 59.65 59.64 59.67 59.63 59.88 58.44 58.55 59.28 58.02 57.31 57.26 56.05 56.73 55.81 55.89 55.80 55.11 54.33 54.16 54.25 54.54 54.81 54.66 54.09 52.54 52.10 52.24
62.85 61.79 59.59 63.45 60.29 59.04 58.30 58.74 56.34 56.71 57.21 57.78 58.25 57.87 56.40 56.25 55.74 55.80 56.11 56.46 55.68 55.30 54.99 54.71 53.62 54.42 53.61 53.92 53.84 53.30 52.30 51.82
63.43 64.63 59.29 61.70 59.34 57.25 57.29 56.29 55.97 55.48 55.96 56.75 57.07 57.62 56.69 55.04 54.04 53.87 55.18 55.30 54.63 53.89 53.75 53.52 52.92 52.59 51.77 52.15 52.59 52.82 52.04 52.32
61.39 63.55 62.34 60.48 58.02 56.78 56.63 56.61 55.78 55.63 54.28 54.93 55.70 55.91 55.32 53.01 52.59 52.43 53.14 53.36 52.40 52.48 52.00 51.81 51.41 51.56 52.71 53.34 51.52 51.03 51.72 53.66
57.44 58.10 57.96 58.10 55.94 55.32 54.36 54.10 54.05 54.03 53.63 53.89 54.13 53.65 53.22 51.67 51.15 50.78 50.41 49.54 49.36 49.16 48.37 49.17 48.96 49.54 51.43 51.79 52.03 52.01 52.18 51.54
54.39 53.99 53.03 53.25 52.36 51.24 51.19 50.79 51.58 52.20 53.23 53.15 53.77 52.89 52.16 50.89 50.29 49.51 49.26 48.24 47.69 47.90 47.43 47.26 47.49 48.27 47.41 48.11 48.01 49.59 50.11 51.87
52.67 52.65 52.55 52.48 51.51 51.21 51.78 50.70 51.66 51.80 52.22 52.65 52.75 51.05 50.37 49.73 47.74 47.51 47.54 47.46 46.90 46.55 45.70 45.09 44.98 46.15 44.52 45.52 42.72 45.13 46.52 48.07
52.26 52.33 52.33 51.83 51.71 51.45 50.87 51.11 50.23 49.89 50.08 50.19 49.57 49.24 48.62 47.65 47.08 46.23 46.27 46.08 45.79 45.12 44.95 44.88 44.26 45.07 44.72 42.96 40.17 40.13 40.42 45.98
51.80 51.96 51.82 52.60 51.81 50.28 49.37 47.93 47.07 48.43 48.13 47.80 47.35 47.17 46.76 46.87 46.18 45.66 45.24 45.07 44.42 44.66 46.44 44.11 42.93 40.77 42.14 43.16 41.41 41.58 37.46 36.25
51.53 52.02 51.91 51.65 51.40 50.51 48.63 47.71 48.04 48.17 47.09 45.52 44.61 45.15 45.78 45.97 45.64 44.56 44.55 45.24 44.68 43.93 43.55 43.63 43.42 42.42 40.71 40.33 39.75 37.77 37.30 34.84
50.63 51.02 51.30 51.42 51.46 50.33 48.40 47.11 46.44 45.10 43.79 42.80 42.80 43.10 43.55 43.79 45.08 44.51 44.34 42.74 42.73 42.96 43.02 41.44 41.04 40.99 40.37 39.82 39.04 36.66 36.09 35.55
50.38 50.12 49.75 49.97 50.03 49.26 47.78 45.91 44.78 42.95 41.73 41.10 41.01 41.15 40.92 41.54 42.51 42.95 42.30 42.24 41.62 41.23 40.95 41.62 40.72 39.68 37.52 37.39 37.04 37.13 37.46 36.48
49.35 49.37 49.27 49.35 48.77 47.40 46.26 45.82 44.47 43.02 42.14 41.42 40.76 40.72 40.79 40.99 41.27 41.74 42.90 42.83 41.27 40.95 40.03 40.22 39.19 38.24 37.15 37.76 38.91 38.45 39.13 38.07

GFSFLT2_sfc_wetblb_024.txt.gz
Wetbulb
64.05 65.22 66.56 66.74 66.45 66.32 66.52 67.17 67.39 67.39 67.22 66.79 66.36 66.03 66.10 66.01 65.29 64.29 63.47 62.40 61.86 61.81 62.43 62.43 62.29 62.48 62.29 61.63 61.10 61.88 56.80 55.12
61.80 62.88 63.34 62.93 63.60 65.42 65.59 65.79 65.88 65.93 66.01 65.56 65.05 64.97 65.23 65.38 64.94 64.64 64.44 63.18 62.62 62.79 62.57 62.35 62.11 61.84 61.59 61.29 61.06 60.71 55.36 54.95
60.53 61.16 61.66 62.06 62.54 64.22 65.35 65.73 65.41 65.03 64.99 64.82 63.68 62.68 62.25 62.44 63.67 63.34 64.45 63.62 63.17 63.38 63.18 62.52 61.79 61.30 61.19 61.06 61.84 56.18 55.25 53.26
60.05 60.34 60.45 61.08 63.57 62.93 62.40 63.60 63.19 62.89 62.93 62.38 61.82 61.16 61.40 62.13 62.76 63.93 64.14 63.54 63.39 63.35 63.34 63.11 62.03 57.74 56.70 58.78 55.55 55.16 53.63 51.65
60.62 61.14 61.38 60.71 61.02 61.26 60.90 61.70 61.68 61.79 62.31 61.92 61.26 61.20 61.10 61.13 59.44 59.96 58.91 60.72 59.28 59.29 59.06 57.97 57.70 56.74 56.55 55.12 54.60 53.50 51.14 51.25
60.26 60.24 60.65 59.69 59.11 59.81 60.77 61.07 61.41 61.70 61.55 59.87 58.30 56.85 56.05 55.93 55.20 54.78 55.10 54.47 55.93 54.82 55.06 54.36 54.12 54.75 55.11 55.08 54.68 52.30 51.18 51.31
60.76 60.63 59.74 59.14 58.76 59.39 59.09 59.36 60.58 60.11 59.42 59.16 58.09 57.06 55.64 55.75 56.07 55.07 55.10 54.52 53.77 53.63 53.40 53.64 53.55 53.99 54.16 53.73 53.56 53.13 52.14 51.73
62.32 63.14 62.90 61.67 59.32 59.15 58.72 59.29 58.01 59.05 57.88 57.76 58.31 57.89 56.10 56.26 54.68 54.94 54.68 54.78 55.02 53.73 53.32 52.99 53.09 53.48 53.76 54.16 53.98 53.22 52.09 51.35
63.01 62.58 61.27 61.45 59.71 58.40 57.99 57.84 57.31 57.38 56.20 56.79 57.27 56.43 55.06 54.69 54.05 52.85 53.38 53.64 52.92 52.54 52.32 52.36 51.90 52.73 51.76 52.56 52.58 52.85 52.48 51.86
63.04 63.31 59.74 59.75 60.40 56.81 56.40 54.82 54.02 54.49 55.22 55.62 56.05 55.91 54.68 52.78 51.66 51.06 51.79 51.04 50.61 50.15 50.03 49.46 48.57 48.72 48.85 49.61 50.60 51.44 51.82 51.85
60.52 59.43 57.95 59.92 57.54 55.32 55.43 54.64 53.63 53.31 53.14 53.50 54.43 54.37 53.11 50.48 49.75 49.82 49.57 48.86 48.25 48.56 47.59 47.25 46.58 47.15 47.95 48.38 48.58 49.20 50.19 52.44
59.10 58.23 58.46 58.03 54.19 52.53 52.94 52.19 51.83 52.25 51.84 51.75 51.62 51.20 50.95 49.29 49.45 48.07 48.41 47.53 47.25 46.56 45.85 46.34 45.79 44.99 47.45 47.79 46.63 48.57 49.13 49.15
53.25 52.76 51.79 51.74 51.33 50.58 50.29 49.31 49.72 51.05 51.27 50.93 49.76 49.34 49.41 47.84 46.44 46.31 46.59 45.86 45.15 45.66 45.72 44.32 44.28 44.77 44.07 45.33 45.04 46.51 46.21 46.37
50.94 51.56 50.80 50.50 50.04 49.57 49.87 49.21 49.74 49.38 49.62 48.54 48.45 48.00 47.28 47.30 45.18 44.79 44.58 44.26 43.69 43.42 43.21 42.63 43.25 44.10 42.62 42.35 40.28 43.29 42.77 43.40
50.26 50.32 50.46 50.28 50.36 49.56 49.11 48.78 48.27 47.77 46.61 45.63 46.63 47.08 46.15 45.11 44.58 43.96 43.64 43.62 43.41 43.05 43.39 42.99 42.32 42.45 42.31 41.64 38.58 36.77 37.73 40.47
49.90 50.32 50.58 50.80 50.16 49.06 47.88 46.40 45.54 45.87 44.68 43.44 43.55 44.80 44.65 44.53 44.78 44.37 43.76 44.00 42.82 43.16 44.22 44.06 43.83 41.14 42.82 42.12 41.25 40.72 34.99 33.46
49.12 50.44 50.56 50.16 49.39 48.44 47.53 46.25 45.74 44.82 43.32 42.68 42.94 43.43 43.82 44.12 44.10 43.48 42.99 42.21 41.38 40.87 40.19 39.64 40.04 38.69 37.98 37.70 39.31 37.76 36.33 34.25
48.25 48.52 49.15 49.45 48.75 47.17 45.97 44.37 43.22 41.69 41.24 40.59 40.91 41.51 41.35 41.61 42.02 42.55 41.58 40.92 40.22 39.73 39.16 38.50 38.14 38.19 37.81 36.86 36.23 35.36 34.23 34.60
48.18 47.90 47.77 48.69 47.54 45.92 44.96 43.80 42.36 41.05 40.47 39.89 39.21 39.57 39.35 39.32 40.05 40.60 40.64 40.86 41.06 41.78 40.02 39.06 37.82 36.65 35.96 35.93 36.69 37.84 37.94 36.27
46.93 46.99 46.89 46.95 45.93 44.62 44.15 43.98 42.50 41.59 40.91 39.80 39.56 38.94 38.96 39.11 39.28 40.51 41.11 41.77 41.00 39.72 38.25 37.16 36.77 35.69 35.14 35.65 37.04 39.64 39.44 37.24

GFSFLT2_sfc_wetblb_027.txt.gz
Wetbulb
64.54 65.53 67.02 67.50 67.12 66.92 66.70 66.87 67.00 66.99 66.92 67.01 66.55 66.12 65.83 65.52 64.95 63.87 62.79 62.09 62.25 62.76 62.80 62.44 62.64 62.63 62.40 61.94 61.42 61.53 54.39 54.38
61.97 62.61 63.30 62.72 63.17 65.72 65.77 66.12 65.98 66.15 66.10 65.65 64.75 64.90 65.18 65.44 64.95 64.67 64.27 63.22 63.11 63.23 62.98 62.75 62.59 62.28 62.20 61.74 61.48 59.41 54.29 53.03
60.41 61.21 61.43 61.17 61.31 63.64 65.14 65.70 65.36 65.23 64.89 64.68 63.18 61.39 61.27 61.52 63.29 63.62 64.27 63.73 63.37 63.73 63.65 63.29 62.57 61.83 61.20 61.05 60.96 54.75 54.01 51.88
59.55 59.82 60.03 60.65 63.05 62.28 61.89 63.16 62.63 62.14 62.19 61.66 61.29 60.56 60.31 61.46 62.05 63.62 64.28 64.02 63.86 63.69 63.47 62.90 61.58 57.33 56.44 58.48 54.82 54.15 53.23 51.02
59.77 59.35 59.28 59.71 60.48 60.89 60.34 61.08 61.03 61.12 61.47 61.12 60.70 61.08 60.00 60.49 59.20 58.41 57.87 59.26 56.97 57.78 56.23 56.19 55.08 55.11 55.03 54.65 54.52 53.90 52.00 50.96
59.53 59.65 59.81 59.16 59.34 59.86 59.39 60.18 61.18 60.76 61.15 60.94 58.64 56.56 55.41 55.61 54.45 54.15 54.04 53.73 53.24 52.93 52.88 52.95 52.74 53.18 53.34 52.90 52.97 52.62 52.03 51.32
59.25 59.29 60.05 59.63 58.15 58.61 59.65 60.29 60.74 60.92 60.67 58.92 57.67 55.47 54.91 54.85 54.39 54.21 53.63 53.81 53.55 52.49 52.32 52.33 52.16 52.56 52.45 52.34 52.52 52.62 52.23 51.64
59.52 59.54 59.12 58.43 57.77 57.77 58.22 58.58 59.68 59.39 58.74 57.86 57.50 56.45 54.85 54.65 53.78 53.18 52.53 52.53 51.78 51.02 50.79 50.30 49.68 50.39 50.30 50.69 50.78 51.30 51.69 51.67
60.16 60.68 60.58 58.91 57.56 57.09 57.27 57.64 57.41 57.43 56.21 56.33 56.34 55.73 54.09 53.05 51.47 50.48 50.45 49.98 48.94 49.07 48.43 48.14 47.60 48.61 47.83 48.77 49.26 49.88 50.37 50.54
61.00 62.16 59.33 59.38 57.98 55.21 54.79 53.41 53.29 53.35 54.39 54.24 53.60 52.94 51.50 49.39 48.68 48.23 48.44 47.98 47.80 47.56 46.77 46.48 45.97 45.40 44.96 45.01 46.17 47.40 48.20 49.39
60.02 59.19 59.48 58.18 55.45 54.76 52.14 51.71 51.84 51.43 51.44 50.66 50.12 49.65 49.47 47.59 46.81 46.70 46.98 46.44 46.14 45.88 45.59 45.15 44.24 44.41 44.98 45.71 45.16 45.12 47.08 49.81
57.45 58.63 58.56 55.63 52.68 51.72 51.37 51.17 50.45 50.48 48.90 47.87 47.74 47.38 47.03 46.21 46.16 46.57 46.46 45.08 44.49 44.19 43.09 44.22 43.30 42.53 46.44 46.16 44.70 45.59 45.71 44.60
53.48 53.30 52.05 53.03 51.75 51.37 49.30 48.93 47.86 47.77 47.08 46.87 46.47 47.49 47.27 45.38 45.15 44.47 44.22 43.58 42.86 43.41 42.88 42.39 42.24 43.43 42.56 42.99 43.24 43.64 42.30 40.87
50.38 50.40 50.17 49.71 49.49 49.25 48.83 47.70 47.23 46.68 45.28 45.20 46.49 45.89 44.71 45.15 43.66 43.68 43.54 43.70 43.33 42.86 42.17 41.96 42.40 41.78 39.30 39.35 36.19 38.53 39.66 41.25
49.22 49.00 49.37 49.66 49.66 48.85 48.26 48.24 47.26 44.99 43.44 42.87 43.83 44.43 44.23 44.35 43.98 43.31 42.81 42.60 41.48 41.42 41.19 40.39 39.30 40.88 40.15 37.71 33.88 31.95 36.29 38.00
48.71 49.21 48.96 49.32 48.74 47.84 46.98 45.48 44.66 44.14 42.39 41.70 42.25 43.29 43.59 43.67 43.19 43.01 41.97 41.85 40.37 40.42 41.18 39.04 38.63 36.86 38.24 40.32 38.20 36.69 34.76 31.40
47.86 48.63 48.92 48.61 48.17 47.64 46.52 44.98 44.50 43.36 42.22 41.69 41.85 41.97 42.65 42.21 42.11 42.15 40.79 40.62 39.56 39.11 38.22 38.07 38.40 38.05 36.22 36.27 35.39 35.54 34.47 34.93
46.19 47.55 47.58 47.71 47.10 46.69 45.48 43.55 42.09 41.01 40.41 40.10 39.73 40.03 40.02 39.89 41.12 41.21 40.42 39.82 39.33 38.71 38.10 37.48 36.76 36.36 36.12 35.48 35.70 35.90 34.69 35.24
46.16 46.85 47.04 47.00 45.66 44.67 43.77 42.79 41.71 40.69 40.40 39.39 38.38 38.72 38.52 38.24 38.84 39.74 39.72 39.67 39.48 39.09 38.01 36.77 35.84 34.63 33.99 33.66 34.14 34.86 38.26 36.88
45.28 46.20 45.95 45.64 44.68 43.76 43.32 42.93 41.72 41.29 40.34 39.25 38.41 38.85 38.39 38.58 37.74 39.85 39.79 40.11 39.76 38.54 37.12 36.20 35.13 34.56 33.42 33.24 33.95 35.13 35.82 35.82

GFSFLT2_sfc_wetblb_030.txt.gz
Wetbulb
65.19 66.41 67.70 68.26 67.72 67.47 67.16 67.17 67.01 67.12 67.17 66.76 66.38 65.74 65.35 65.07 64.57 64.15 63.78 63.87 64.10 64.38 64.09 63.85 63.97 63.42 62.93 62.32 61.97 60.86 53.94 53.44
62.42 63.55 63.96 63.16 64.04 66.09 65.91 65.88 65.94 65.82 66.17 65.48 64.77 64.55 64.77 64.66 64.10 63.94 64.53 64.53 64.61 64.78 64.45 64.02 63.81 63.39 62.40 61.97 61.42 58.35 53.93 52.81
60.58 60.92 60.89 60.74 61.38 64.02 65.59 66.00 65.52 65.19 64.89 64.64 62.86 60.74 60.53 61.01 63.08 63.98 64.49 64.88 64.66 64.19 64.05 63.32 62.66 60.18 60.32 60.92 59.25 54.50 53.72 52.68
59.23 59.35 59.47 60.02 62.07 61.85 61.61 62.97 62.42 62.11 61.85 61.50 60.80 59.93 59.81 61.50 61.68 62.67 62.71 61.81 60.97 61.19 60.52 59.94 57.24 54.73 54.69 56.52 54.35 54.34 53.74 52.77
59.13 59.16 59.10 59.07 59.93 60.18 59.96 60.52 60.69 60.79 60.92 60.48 60.24 60.26 59.40 59.65 58.53 56.78 55.17 56.73 54.12 54.51 53.89 53.32 52.97 52.88 53.06 52.69 52.86 53.08 52.79 52.56
58.60 58.52 58.44 58.44 58.62 59.41 59.00 59.56 60.06 59.95 60.86 61.13 59.08 57.59 55.65 55.04 53.70 53.70 53.47 53.31 52.73 52.34 51.89 52.21 51.49 51.88 51.57 51.04 51.10 51.12 51.96 52.07
58.05 58.55 58.61 58.67 58.25 58.66 58.42 59.05 60.14 60.04 60.31 59.65 57.52 54.83 54.02 54.19 53.29 52.90 52.12 51.92 50.75 50.30 49.75 49.29 49.01 49.56 49.37 49.41 49.39 50.21 50.78 51.07
58.24 58.34 59.34 58.83 57.55 57.57 57.77 58.64 58.85 59.16 58.38 56.83 56.73 55.20 54.13 52.94 50.80 50.06 49.33 48.85 48.41 48.34 47.64 47.54 46.96 47.92 47.34 47.79 48.27 48.35 48.49 49.05
58.67 59.42 59.17 57.55 56.06 56.09 56.93 56.82 56.98 56.52 54.79 54.42 54.07 52.91 50.11 48.97 47.90 47.28 47.30 47.28 46.89 46.99 46.41 46.85 45.71 46.60 45.63 46.11 46.80 46.92 47.61 48.43
60.63 60.60 58.81 57.85 56.75 56.66 54.87 54.11 53.89 52.54 51.46 50.10 49.59 49.00 47.89 46.65 45.77 45.38 45.92 45.59 45.42 45.05 44.54 44.69 43.94 43.54 42.87 43.52 44.25 45.78 46.98 48.22
58.87 59.52 57.69 56.73 54.54 53.74 51.85 51.48 50.04 48.31 47.83 47.01 46.91 47.24 46.89 45.29 44.82 44.96 45.30 44.69 43.91 43.84 43.54 43.70 42.67 43.00 44.90 45.69 44.74 44.63 45.92 45.85
59.44 57.02 55.79 54.74 53.70 52.91 50.70 48.68 47.23 46.81 45.99 45.87 46.00 47.19 47.79 47.06 46.32 44.29 44.60 44.00 44.05 43.74 42.95 43.60 42.47 42.47 44.64 44.23 43.00 44.08 43.32 41.49
57.39 54.76 54.74 54.68 52.40 49.49 47.24 46.17 45.31 44.60 44.53 45.95 47.10 46.78 45.59 44.26 43.84 43.82 43.65 42.62 42.51 42.89 42.30 41.50 41.78 41.61 40.34 39.78 41.11 42.82 40.13 40.01
54.32 53.56 53.35 50.74 49.03 47.72 47.06 45.20 44.35 43.67 43.60 43.85 43.86 44.31 44.48 44.38 43.05 42.27 41.78 40.70 40.45 40.95 40.20 39.61 40.26 40.09 37.99 37.10 34.08 36.42 38.45 39.76
48.88 48.58 48.34 48.57 48.39 48.17 46.36 45.86 45.14 42.76 41.70 41.47 42.63 43.82 43.75 43.25 42.78 41.52 40.97 40.95 39.97 39.37 38.93 37.89 37.07 38.49 38.12 36.95 32.65 30.98 34.70 37.17
47.41 48.07 47.89 48.18 47.59 46.75 45.49 44.35 43.69 42.59 41.25 40.94 41.27 42.61 42.60 42.49 42.23 41.48 40.72 40.46 39.20 39.32 40.13 38.15 37.43 35.41 37.00 39.46 37.29 36.64 32.73 31.45
46.62 47.90 48.11 47.77 47.29 46.46 45.22 43.45 42.43 41.78 41.01 40.35 40.40 40.96 41.80 41.18 41.27 41.05 40.26 40.04 39.23 38.64 37.88 37.44 37.28 36.28 35.47 35.17 34.97 34.73 35.21 34.16
48.00 48.35 47.33 47.28 46.75 46.15 44.85 42.63 41.16 40.42 40.37 39.58 39.36 39.74 39.91 39.63 39.89 40.39 39.73 39.19 38.54 38.13 37.76 36.80 35.97 35.39 35.29 34.64 34.15 34.32 33.56 34.07
46.87 46.53 45.98 45.79 44.99 44.16 43.46 42.58 41.87 41.40 40.58 39.55 38.36 37.86 38.06 38.44 37.63 39.02 39.11 39.19 38.77 38.26 37.39 36.17 35.31 33.92 33.16 33.29 33.35 33.86 35.52 34.15
45.56 45.43 45.38 44.62 43.86 43.21 43.06 42.61 41.34 40.74 39.88 38.87 38.49 37.67 38.04 38.00 37.57 37.38 38.67 38.97 38.67 39.01 36.95 36.17 35.40 34.55 32.85 32.59 32.75 33.73 34.25 34.00

GFSFLT2_sfc_wetblb_033.txt.gz
Wetbulb
69.39 69.50 69.68 68.46 68.28 67.87 67.13 67.12 67.12 67.33 67.21 66.94 66.33 65.64 65.42 65.42 65.28 64.96 64.58 64.73 64.80 64.61 64.28 64.30 63.90 63.03 62.47 62.27 61.81 60.34 61.42 60.57
68.47 68.82 69.07 69.12 68.51 66.46 66.28 66.10 66.03 66.15 66.08 65.48 64.81 64.51 64.62 65.03 63.83 64.81 65.12 64.99 64.83 64.43 64.30 63.82 62.26 61.23 61.32 61.22 59.95 60.18 61.47 61.11
66.34 66.71 67.18 66.90 66.65 66.35 65.74 65.87 65.53 65.34 65.33 64.45 63.64 64.98 64.99 64.67 63.57 64.22 64.36 62.83 62.95 62.56 62.07 60.56 59.78 60.04 59.83 59.61 59.81 60.64 60.86 60.78
64.08 64.83 64.75 64.73 64.23 65.95 66.09 65.63 65.54 65.62 65.39 65.51 65.31 65.18 65.13 64.91 63.54 62.32 61.21 60.22 59.94 59.77 59.01 59.18 59.67 59.04 58.58 58.38 57.98 58.51 58.88 58.99
63.04 63.83 63.86 63.51 63.58 64.48 64.45 65.11 65.16 65.34 65.20 65.23 65.42 65.04 65.39 65.32 63.16 61.16 61.26 59.64 59.63 59.33 58.76 57.62 57.21 56.92 56.24 56.03 55.91 56.31 56.25 56.32
62.43 62.80 62.61 62.62 63.52 63.72 63.92 64.09 64.77 65.03 65.54 65.30 65.40 63.74 61.63 60.31 59.69 59.47 58.80 58.05 57.57 56.96 56.22 56.25 56.02 55.38 54.72 54.52 54.74 54.15 53.63 53.93
61.89 62.51 62.36 62.22 62.38 63.17 63.41 63.59 64.32 64.41 64.86 62.97 62.33 60.92 60.06 59.13 57.26 56.24 55.83 55.94 55.71 55.16 55.03 54.58 54.21 53.90 53.55 53.11 52.82 53.13 53.58 53.88
61.81 62.22 62.85 62.87 62.07 62.23 63.10 63.39 63.73 63.96 61.94 61.63 61.39 60.50 58.36 56.01 55.02 54.13 53.66 53.84 53.88 53.18 52.70 52.69 52.16 52.03 51.69 52.09 52.19 53.01 53.51 54.05
61.69 61.71 61.38 60.31 60.31 59.50 58.12 58.37 60.11 58.90 58.88 57.80 57.08 56.07 55.12 54.27 53.45 52.51 52.18 52.34 52.50 52.31 51.99 51.97 51.29 51.22 51.39 51.88 52.17 51.95 52.35 52.89
62.24 61.14 59.31 58.52 57.59 56.71 55.78 55.09 55.43 55.41 55.59 54.39 54.24 53.53 53.70 53.15 52.08 51.46 52.06 52.19 51.84 51.33 50.65 50.05 50.14 50.15 49.55 50.70 50.32 50.31 51.85 50.67
60.92 60.75 59.12 58.56 55.11 54.19 52.79 52.84 52.94 52.35 52.42 52.37 52.56 51.92 51.79 52.13 51.09 50.95 51.26 50.31 49.82 49.00 48.74 48.98 48.13 47.70 46.88 49.20 47.90 47.87 51.98 49.15
59.94 59.17 57.28 55.10 54.44 53.36 51.87 50.69 50.36 51.67 52.01 51.44 51.60 51.88 51.99 51.44 50.45 49.72 49.22 48.29 47.80 47.96 47.59 47.76 47.93 45.95 45.07 45.58 46.14 48.09 50.05 47.93
59.24 56.04 55.62 55.96 54.07 51.32 50.77 50.80 50.52 50.64 51.10 51.02 51.17 51.17 50.81 50.62 49.29 48.75 48.46 47.02 46.90 47.31 46.55 45.52 44.98 45.82 43.96 43.52 45.65 49.16 47.11 46.61
57.75 59.12 56.40 56.44 54.67 54.25 53.88 51.99 50.91 50.24 49.89 49.87 50.44 50.51 49.96 49.34 48.74 48.01 47.79 46.98 46.42 46.31 45.47 43.44 44.21 45.11 41.35 41.70 38.97 41.19 45.68 43.72
58.21 57.00 56.52 55.76 54.66 53.02 51.52 50.80 49.82 49.23 49.00 49.40 49.49 49.55 49.07 48.99 48.59 48.68 48.24 47.94 46.45 46.62 45.71 43.00 41.20 43.50 43.05 40.33 36.52 35.36 37.59 42.29
55.40 54.79 54.34 53.87 53.52 53.02 52.46 52.67 51.35 50.49 49.89 49.80 49.60 49.01 48.77 48.22 47.93 47.91 47.90 47.88 46.10 45.88 45.99 44.35 43.19 40.01 41.61 42.78 41.86 39.99 33.76 33.06
53.83 53.67 52.91 53.18 53.39 53.38 52.95 51.18 50.06 49.35 49.49 48.47 48.63 48.43 47.89 47.31 47.55 47.53 47.29 46.83 46.14 45.57 45.31 44.33 44.06 41.64 40.21 39.64 39.41 39.08 38.82 34.79
52.96 53.58 52.29 52.75 52.66 52.21 51.71 50.72 49.54 49.85 49.72 49.12 48.63 48.06 47.81 47.62 46.83 46.94 46.98 46.27 45.73 45.34 45.07 44.18 43.45 42.49 41.43 40.48 38.72 36.22 35.19 34.02
52.84 53.14 51.43 51.45 51.40 51.30 51.08 50.78 50.34 49.48 49.21 48.47 47.43 47.26 47.09 47.52 46.45 46.06 45.64 45.75 45.28 45.03 44.46 43.94 43.44 41.85 41.12 39.79 40.25 39.10 39.14 37.35
52.14 51.73 50.65 50.26 50.20 50.44 50.64 49.99 49.42 48.12 47.01 46.80 46.47 46.18 46.14 46.11 45.44 44.86 44.24 44.46 44.95 44.83 43.73 43.57 43.68 42.61 41.34 40.64 39.91 39.92 40.00 37.96

GFSFLT2_sfc_wetblb_036.txt.gz
Wetbulb
70.46 70.81 70.24 69.04 68.59 68.36 67.52 67.64 67.75 67.64 67.51 67.19 66.41 65.98 65.84 65.45 65.41 65.10 65.07 65.11 64.95 64.49 64.10 63.42 62.41 62.12 61.78 61.29 60.75 61.03 63.07 62.47
69.40 69.40 69.31 69.13 69.09 67.15 66.57 66.53 66.64 66.64 66.67 65.63 65.12 65.13 65.35 64.67 65.44 65.09 64.81 64.27 64.06 63.28 61.95 61.32 61.21 60.93 60.57 60.49 60.71 61.97 62.06 61.86
68.53 68.03 68.08 67.65 66.99 67.10 65.87 65.97 65.99 65.70 65.60 64.80 64.33 66.58 66.34 65.82 63.91 63.92 62.71 62.46 62.18 61.29 60.44 60.48 61.21 60.50 59.44 59.18 60.69 60.82 60.97 60.49
66.88 66.94 66.59 66.27 64.96 66.13 66.20 65.37 66.71 67.50 67.13 67.11 67.93 67.91 67.81 65.90 63.57 61.84 61.17 61.10 60.64 60.03 60.22 61.14 61.59 60.29 60.21 60.74 59.33 59.38 59.27 58.85
65.10 65.81 66.02 65.04 64.50 65.72 65.86 67.02 67.50 67.95 67.74 68.25 68.08 68.68 68.82 68.47 65.77 65.16 65.25 62.17 63.15 62.63 61.52 60.04 59.81 59.40 58.82 58.78 58.46 58.62 57.96 57.43
64.16 64.81 65.13 65.39 65.39 65.82 66.40 66.81 67.52 68.45 68.53 68.58 68.87 67.78 66.19 66.09 64.63 64.14 63.38 62.13 61.34 60.55 60.19 59.51 59.20 58.61 58.10 57.68 57.59 57.29 57.05 57.00
64.20 64.59 64.48 64.89 65.35 65.99 67.14 68.31 67.86 67.79 68.17 66.78 66.74 66.33 64.72 63.56 62.55 62.16 61.10 61.05 59.87 59.12 58.52 58.07 57.73 57.35 57.12 56.58 56.06 56.29 56.57 56.46
65.20 65.04 65.38 65.38 65.67 66.06 66.32 66.60 67.11 66.59 65.26 64.05 63.22 65.42 63.67 61.99 60.63 59.46 58.75 58.29 57.80 57.43 56.74 56.44 56.18 55.94 55.23 55.45 55.14 55.20 54.78 55.28
64.87 65.51 66.19 65.06 64.02 64.02 64.13 63.52 62.48 62.46 62.69 61.87 61.80 62.05 61.11 60.08 58.39 56.90 56.53 57.53 57.28 56.57 55.57 54.62 54.15 53.53 52.92 52.57 53.36 53.00 52.87 54.09
64.66 63.45 63.04 62.43 61.76 61.46 61.05 57.92 58.41 59.53 60.14 59.28 58.34 57.55 57.34 56.93 56.41 56.00 56.20 55.68 54.12 52.89 52.19 51.47 51.13 51.29 50.46 50.30 51.72 51.15 50.80 53.47
63.72 63.94 62.62 62.28 61.97 56.60 56.23 55.63 55.22 56.13 56.54 56.36 55.85 55.69 56.15 56.08 55.71 54.75 54.38 53.13 52.38 51.25 50.60 50.49 49.85 49.80 48.70 49.06 50.04 49.54 49.95 51.21
63.48 63.97 62.32 58.53 56.63 57.87 54.18 53.91 53.69 54.17 54.15 54.06 54.93 55.50 55.98 55.79 53.98 53.04 52.69 51.48 50.67 50.28 49.74 49.88 49.16 49.00 47.15 47.61 48.81 49.61 50.85 50.86
63.55 61.84 57.93 58.23 56.87 55.77 54.46 52.50 53.19 55.00 55.82 55.56 55.91 55.77 54.34 53.54 52.80 52.58 51.69 50.52 49.70 49.69 48.61 48.20 47.56 48.94 46.70 46.14 46.84 49.23 49.91 48.88
62.58 62.13 61.36 60.47 60.30 58.84 58.61 57.37 56.67 56.39 55.88 55.57 55.57 54.12 53.33 52.13 51.82 51.47 51.19 49.80 49.67 49.55 48.97 47.38 47.09 47.73 44.61 43.65 41.19 43.79 46.63 47.11
62.90 63.72 63.12 61.79 59.86 58.58 57.74 56.64 55.63 54.94 54.71 54.95 54.65 53.88 53.39 52.88 52.12 51.31 50.90 50.63 49.02 49.27 48.83 47.41 44.90 46.37 46.26 42.95 39.41 37.95 41.12 44.41
63.63 62.65 61.34 59.84 59.22 57.86 56.84 56.85 55.17 56.65 55.56 55.61 54.49 53.26 53.20 51.69 50.96 51.28 51.03 50.62 49.80 49.26 48.08 47.80 46.18 43.65 45.10 44.74 44.50 42.74 37.83 36.57
60.97 59.98 58.99 58.45 57.89 58.36 57.94 56.42 56.45 55.60 55.32 53.21 53.88 54.18 52.58 51.68 51.36 51.20 50.87 50.30 50.10 49.33 48.12 47.11 46.40 43.37 43.19 42.36 40.85 40.04 39.40 35.58
57.99 57.50 57.19 57.71 57.78 57.48 56.99 55.53 54.35 53.67 53.25 51.99 51.29 51.53 51.63 51.48 51.09 51.12 50.84 50.33 49.74 49.10 48.26 46.07 45.59 44.80 42.72 41.19 39.05 37.33 36.87 35.81
57.86 57.33 56.40 57.22 57.01 56.53 55.67 53.85 52.55 51.37 50.96 50.65 50.27 50.05 50.29 50.39 50.68 49.82 49.52 49.66 49.27 48.59 47.48 46.18 45.58 44.38 42.81 41.03 40.75 39.29 39.02 37.56
57.05 57.08 55.57 55.68 55.17 53.59 53.23 52.20 53.42 52.74 51.48 50.95 50.10 49.33 49.04 48.95 47.93 47.59 47.26 47.20 47.56 47.67 46.90 45.95 45.32 44.28 42.69 41.45 39.83 39.28 39.17 38.50

GFSFLT2_sfc_wetblb_039.txt.gz
Wetbulb
69.60 70.30 70.00 69.20 68.68 67.98 67.57 67.83 67.91 67.84 67.74 66.99 66.47 66.28 66.34 66.17 65.66 65.28 65.24 65.06 64.71 64.00 62.93 62.47 61.96 61.50 61.36 61.67 61.73 62.86 62.84 61.54
68.94 68.81 68.20 68.41 68.34 66.91 66.92 67.01 66.94 66.88 66.33 65.74 65.30 65.07 65.06 65.67 65.80 64.83 64.22 64.02 63.51 62.11 61.36 61.16 61.39 60.76 60.31 60.60 61.10 61.86 61.30 60.80
67.28 67.23 67.81 67.40 66.63 66.62 66.22 66.71 66.42 65.95 65.28 65.12 64.09 65.24 65.48 65.69 63.67 63.13 62.68 62.42 61.72 60.78 60.94 60.93 61.07 60.78 59.97 59.70 60.39 60.31 60.11 59.45
66.46 66.88 66.60 66.41 64.29 65.21 65.25 65.09 65.54 66.61 66.37 65.96 67.03 66.76 66.87 65.64 63.27 62.60 61.91 61.43 61.36 60.67 61.02 60.83 62.29 61.23 60.74 61.90 60.04 60.01 59.74 59.19
65.90 66.14 66.14 65.06 65.18 64.97 65.33 66.08 67.00 67.20 67.55 67.61 68.11 67.34 67.02 66.44 65.72 64.09 65.06 61.97 63.57 62.24 62.38 61.36 61.12 60.53 59.96 59.96 59.43 59.37 58.81 58.78
64.51 65.23 65.18 65.41 64.89 65.22 65.97 66.44 66.86 67.23 67.69 67.96 67.67 66.41 66.70 65.79 64.62 64.76 63.74 62.93 62.22 61.89 61.21 61.10 60.50 60.04 59.43 58.83 58.42 57.94 57.54 57.51
63.35 64.18 64.75 65.79 66.03 66.82 67.02 67.27 68.59 68.26 68.00 67.43 66.94 65.55 65.58 64.93 64.45 63.16 62.19 61.54 60.71 60.11 59.69 58.91 58.69 58.64 58.11 57.33 56.69 56.47 56.54 55.71
64.18 64.26 65.43 65.82 66.77 66.97 67.91 68.62 67.74 66.53 65.93 64.88 64.83 64.83 65.44 64.59 63.28 61.27 59.98 59.10 58.66 57.93 57.18 56.26 55.89 56.21 55.48 55.05 53.99 54.36 54.89 54.48
65.31 66.03 66.56 66.04 65.66 65.14 64.00 63.58 63.99 64.00 63.39 62.80 63.12 63.26 62.46 61.61 58.59 57.07 56.99 57.66 57.93 56.32 55.03 54.72 53.95 53.58 53.43 52.93 52.03 52.39 53.04 51.92
65.86 65.57 65.15 63.90 62.97 61.98 60.87 61.29 61.28 60.47 60.93 61.37 60.61 59.69 59.07 58.94 56.97 56.05 56.33 56.06 54.96 53.61 52.73 51.81 51.71 51.43 51.46 50.88 50.18 51.03 51.73 51.31
64.36 64.60 63.28 61.97 59.89 58.19 57.16 57.28 57.99 58.44 58.83 57.21 56.74 56.70 57.11 57.22 56.31 55.06 55.08 54.01 53.27 52.26 51.18 50.83 49.66 49.50 49.43 49.74 49.95 50.09 50.30 50.50
64.80 64.15 63.62 62.08 60.85 60.11 56.46 55.34 55.66 57.15 55.87 55.15 56.21 56.83 57.06 56.90 54.99 54.63 54.02 52.93 51.95 51.20 50.47 50.08 49.45 48.82 48.15 48.19 49.92 49.06 49.83 51.68
63.53 62.69 62.66 61.75 59.11 58.59 55.74 55.10 54.51 55.33 55.79 57.10 57.54 57.52 55.76 55.04 54.57 53.58 52.92 51.57 50.93 51.34 50.30 49.43 48.59 49.27 46.89 46.66 46.92 49.79 49.74 49.00
63.62 63.05 62.26 63.58 60.32 61.22 60.62 58.31 57.53 58.26 57.42 57.85 57.99 55.95 55.09 54.06 53.45 52.63 52.33 51.09 51.07 50.78 50.09 48.30 48.18 48.42 44.62 44.34 41.05 43.30 46.61 47.75
64.17 63.44 63.92 63.33 63.15 61.27 60.19 59.61 58.43 57.07 56.75 56.55 56.27 55.07 54.60 53.85 52.87 52.32 51.86 51.42 49.96 50.34 49.84 48.36 45.43 46.88 47.21 43.55 39.54 37.86 41.12 44.35
64.27 63.71 63.32 62.34 60.99 59.47 58.25 56.69 55.72 57.08 57.11 57.33 56.32 55.17 54.11 53.02 52.22 52.18 52.00 51.37 50.48 50.01 49.71 48.83 47.51 44.41 45.90 45.35 45.27 43.10 37.60 35.88
63.50 63.06 61.53 60.43 60.00 59.41 58.46 57.80 58.26 58.11 57.68 55.77 55.13 54.70 53.89 52.82 52.59 52.11 51.51 50.78 50.53 50.75 50.28 48.55 47.77 45.58 44.14 43.01 42.91 41.98 41.69 37.88
61.77 60.71 59.60 59.74 59.20 59.48 58.67 57.14 55.54 54.41 54.70 53.31 52.64 52.14 51.92 52.26 51.87 51.96 51.30 49.98 49.90 49.73 49.58 47.89 47.08 46.36 45.04 43.54 41.90 39.57 38.27 37.75
59.45 58.96 57.86 58.66 58.92 58.47 57.47 56.00 54.42 52.17 52.79 51.60 50.51 50.42 50.41 50.74 50.68 49.27 48.23 47.84 47.51 47.79 48.09 48.05 46.92 45.55 44.38 43.03 42.98 41.49 41.24 39.20
58.57 58.18 57.13 58.20 57.66 56.55 55.49 53.99 52.57 52.46 51.76 51.05 50.10 49.38 48.97 48.98 47.81 47.48 46.84 46.49 46.65 47.05 47.01 47.35 46.71 45.90 44.08 43.48 42.14 42.15 41.67 40.19

GFSFLT2_sfc_wetblb_042.txt.gz
Wetbulb
68.27 68.66 69.25 68.40 67.72 67.45 67.67 67.71 67.57 67.54 66.92 66.60 66.45 66.45 66.35 66.54 66.41 65.95 65.45 65.28 64.42 63.42 62.70 62.82 62.05 61.23 61.37 61.30 61.48 61.85 58.35 57.33
67.13 68.05 68.16 67.15 65.98 66.43 66.65 66.51 66.55 66.34 65.92 65.61 65.11 65.11 65.62 66.29 65.46 65.00 64.64 64.15 63.06 61.93 61.98 61.89 61.96 60.41 60.46 60.14 60.73 61.54 56.78 55.70
66.71 66.63 66.77 65.99 65.66 65.97 66.34 66.59 66.17 65.29 65.10 64.97 63.74 63.05 63.65 64.66 63.72 63.88 63.56 62.97 62.43 61.53 61.37 60.62 61.58 61.00 60.66 59.81 61.39 56.67 56.52 55.88
65.59 65.92 65.64 64.26 63.45 64.06 64.03 64.47 63.97 63.82 63.87 63.60 63.94 65.37 64.13 63.70 62.28 62.73 62.92 62.39 61.67 61.14 60.71 61.27 61.71 58.07 57.37 59.83 56.48 56.72 55.98 55.67
64.46 65.21 64.56 62.93 62.78 63.31 63.49 63.99 64.51 65.91 65.95 65.70 66.24 66.00 64.60 63.67 61.35 60.33 61.11 61.86 61.27 60.09 59.83 58.77 58.65 57.62 56.82 56.50 56.15 55.02 54.09 54.22
64.01 64.01 64.72 64.37 63.61 63.72 64.66 65.27 65.95 65.78 66.08 65.93 65.44 64.74 64.20 63.10 62.17 62.22 61.02 60.65 59.06 58.59 57.81 57.47 56.72 56.99 56.71 55.64 55.13 53.77 52.89 52.74
62.55 63.60 64.53 64.59 65.23 65.68 65.21 64.81 65.25 65.25 66.30 65.18 64.50 64.34 63.72 62.98 61.73 60.83 59.15 58.08 56.70 55.80 55.16 54.65 54.23 53.84 54.52 54.01 51.77 50.95 51.67 51.75
62.17 63.01 64.82 65.57 65.41 65.37 64.67 65.18 65.43 64.87 64.12 64.04 64.18 63.85 63.45 62.11 59.00 56.70 56.12 56.02 55.19 54.57 52.89 52.67 51.55 51.64 50.81 51.78 50.40 49.52 49.14 50.54
62.41 63.78 65.83 64.23 63.34 62.34 61.76 61.85 62.00 61.81 61.75 62.26 61.96 62.07 59.53 57.22 56.50 55.75 55.40 54.99 53.69 52.44 51.32 50.55 49.71 49.99 48.65 49.29 48.50 46.98 47.97 49.10
63.82 64.93 64.25 63.01 61.83 60.92 60.24 60.35 59.84 59.53 59.80 60.01 59.47 58.41 57.69 56.61 55.21 54.07 53.94 53.70 51.17 50.29 49.41 47.39 47.10 46.79 45.62 46.67 46.65 47.15 47.07 47.53
63.97 63.16 61.22 60.46 59.87 59.39 58.35 58.93 57.77 58.28 58.61 56.25 56.12 56.15 56.61 55.27 54.37 52.45 52.36 51.77 50.70 48.96 47.54 46.54 45.20 45.11 45.45 44.73 45.38 46.13 45.90 47.88
63.27 61.72 60.97 60.21 60.10 59.34 58.80 57.70 57.04 56.54 54.94 54.60 55.31 55.72 56.14 54.99 52.90 52.19 51.46 49.73 48.49 47.93 47.09 46.92 46.09 45.32 46.70 45.48 44.71 44.46 45.44 45.99
62.36 61.31 60.98 60.04 58.93 57.05 56.42 55.29 54.53 54.81 54.29 55.03 55.84 55.92 54.68 52.49 52.22 50.99 50.04 48.83 48.08 47.99 46.65 45.51 45.00 45.35 42.81 42.34 42.52 43.75 43.00 43.77
62.12 61.51 61.13 60.79 60.20 58.93 58.20 56.73 54.86 54.90 55.20 55.89 56.65 55.23 53.42 52.93 50.95 50.19 49.61 48.15 47.84 47.89 46.74 45.02 44.32 44.74 40.57 40.45 36.73 39.24 41.67 42.71
62.40 61.61 61.21 61.70 60.00 60.85 59.48 57.24 56.02 55.48 54.86 54.89 54.67 54.37 53.48 52.09 51.01 49.77 48.80 48.37 46.74 46.79 46.10 45.31 42.15 43.07 43.39 40.44 36.18 33.32 37.56 39.64
63.19 62.67 62.21 62.60 61.76 58.68 56.81 55.09 53.50 54.46 54.49 55.09 53.48 53.66 53.03 52.13 50.57 49.52 48.90 48.50 47.20 46.81 46.86 45.39 43.98 41.05 42.22 43.84 40.68 38.92 33.79 33.20
63.35 62.98 61.55 60.84 59.49 58.55 56.95 56.29 55.18 55.22 55.00 53.99 53.89 53.51 52.90 51.65 50.86 49.73 48.38 47.91 47.03 46.73 45.98 45.01 44.35 42.80 41.02 39.93 39.72 38.90 38.24 34.64
62.51 61.34 59.83 59.01 58.78 58.47 57.59 56.44 54.77 53.59 53.36 52.51 52.07 51.29 49.68 50.32 50.32 48.42 47.07 46.22 44.77 43.83 43.78 42.87 42.11 42.64 42.02 40.82 39.48 37.97 36.60 34.38
60.90 59.76 57.63 58.32 58.02 57.89 57.36 55.56 53.79 51.29 51.27 50.46 48.67 48.02 47.85 47.40 46.70 45.23 44.66 44.50 44.17 43.49 42.64 42.24 42.17 41.80 40.76 40.97 40.59 39.43 38.94 36.99
58.88 58.24 56.91 57.38 57.76 57.06 56.02 53.97 51.79 51.18 51.60 49.47 47.62 46.69 46.13 46.23 45.13 44.47 44.12 43.66 42.99 42.49 41.98 41.76 41.45 41.57 40.30 41.24 41.00 40.43 39.46 37.38

GFSFLT2_sfc_wetblb_045.txt.gz
Wetbulb
66.23 67.75 68.14 67.81 67.30 67.25 66.95 67.03 66.75 66.56 66.52 66.36 66.16 66.12 66.43 66.74 66.55 65.97 65.44 64.63 63.72 62.97 62.68 62.15 61.97 61.34 62.28 61.86 61.44 61.79 53.82 55.04
66.24 66.43 66.15 65.18 65.55 66.27 66.20 66.09 65.75 65.63 65.64 65.48 65.12 65.20 65.91 65.45 64.93 65.20 64.85 64.01 63.13 61.88 61.92 61.08 61.38 60.78 61.25 61.63 60.29 59.45 53.78 53.07
65.54 65.33 64.80 64.43 64.60 65.80 65.64 65.85 65.09 64.80 64.59 64.44 62.89 62.42 63.11 63.70 63.02 63.95 64.15 63.13 62.13 62.23 61.25 60.69 61.33 60.88 61.36 61.65 59.08 54.65 53.88 52.91
64.41 65.04 63.44 63.09 64.44 63.42 63.28 63.93 62.07 61.73 61.79 61.95 61.04 61.45 62.26 61.71 62.25 63.17 63.10 62.38 61.70 61.93 60.69 61.15 59.52 55.80 55.22 57.64 53.87 53.38 52.51 52.14
63.95 64.49 62.21 60.85 61.90 61.63 61.95 61.63 61.54 61.43 61.59 61.71 62.48 62.93 61.89 60.90 58.92 59.60 58.46 61.31 58.25 58.66 56.80 55.38 54.42 54.11 54.56 53.04 52.89 51.84 49.98 51.06
61.87 61.81 60.32 60.48 61.62 61.06 61.32 61.49 62.52 63.18 64.13 64.00 63.29 62.74 61.53 61.36 59.93 60.49 57.28 56.20 54.06 54.01 52.35 52.51 52.47 51.84 51.61 51.56 49.74 48.33 48.72 49.09
60.38 60.94 60.48 60.50 60.68 62.45 63.30 63.20 63.56 63.90 63.30 63.14 63.03 61.91 60.62 58.74 55.59 54.70 53.91 53.15 52.70 51.61 49.75 50.55 49.46 49.85 48.67 49.67 48.06 47.44 46.93 48.05
59.23 60.48 60.39 63.61 62.66 62.78 63.05 63.27 62.75 62.25 61.53 61.23 61.32 59.69 56.37 55.19 53.84 53.42 53.22 51.91 51.20 49.06 48.03 47.38 46.99 47.23 46.78 47.33 46.93 45.25 45.46 46.16
59.05 60.54 62.89 61.17 59.87 59.62 59.91 60.96 60.77 60.42 60.09 59.68 59.43 56.59 55.01 53.98 53.07 51.65 51.50 51.37 48.87 48.32 46.82 46.01 45.22 46.31 44.71 45.39 45.58 45.07 45.12 45.64
60.10 63.11 60.52 59.13 58.32 57.62 57.86 57.43 58.34 58.54 57.63 57.19 56.52 55.99 54.56 52.88 51.06 49.73 50.12 48.93 48.03 46.45 45.28 44.70 43.66 43.56 42.50 41.89 43.34 43.97 44.53 44.13
60.54 59.66 58.33 58.03 57.70 56.78 56.58 56.28 55.76 56.16 54.79 53.55 54.29 54.13 53.85 52.70 49.30 48.29 49.04 47.76 46.72 46.16 44.79 43.94 42.77 43.02 43.62 42.10 42.08 42.63 42.31 45.28
59.54 58.95 57.86 56.84 56.92 56.45 55.63 54.61 53.98 53.97 51.76 51.39 52.33 53.02 53.02 50.37 49.54 48.13 47.83 46.62 45.29 44.50 44.31 44.22 43.36 42.65 45.44 43.04 40.98 41.40 41.61 40.38
58.93 57.57 57.71 57.43 55.81 54.16 52.95 51.80 51.70 50.68 50.44 51.95 52.69 52.69 50.93 49.89 48.97 47.78 46.67 45.69 44.35 44.83 43.79 42.63 42.29 42.08 39.48 39.37 39.69 40.85 40.75 39.73
58.75 57.90 57.75 57.93 56.41 54.67 53.93 51.11 50.79 50.35 50.79 51.33 52.50 51.98 50.09 49.17 47.47 46.24 45.86 45.04 44.57 44.06 42.99 41.93 41.65 41.69 38.63 37.29 35.28 37.78 38.46 40.31
58.76 58.74 58.08 58.60 58.36 55.63 54.49 52.01 50.69 50.19 49.86 50.54 50.96 50.71 50.32 49.29 47.80 46.29 45.75 45.29 43.88 43.15 42.98 42.51 40.14 40.88 40.64 38.70 34.21 31.53 34.33 37.07
59.76 59.63 59.04 59.22 58.87 56.25 53.51 50.77 49.69 50.39 50.75 50.73 49.61 50.45 49.85 49.07 47.64 46.37 45.82 45.21 43.92 43.57 44.90 41.99 41.35 39.23 39.94 42.33 38.42 36.88 32.71 31.68
60.08 59.85 59.21 59.41 59.27 56.29 53.84 50.71 50.59 51.12 51.42 50.62 49.89 50.87 50.54 48.89 47.25 45.91 44.72 44.08 42.45 41.37 40.35 39.77 39.74 39.09 38.45 38.26 37.35 37.10 36.65 33.54
60.12 59.68 59.28 58.12 56.23 54.23 52.61 51.79 51.58 51.68 51.76 51.17 50.89 50.15 47.96 46.03 45.21 42.89 42.30 41.53 40.63 39.95 39.65 39.33 38.89 38.71 39.00 39.06 37.96 37.75 37.58 37.05
59.47 59.40 56.45 55.72 53.71 52.97 52.49 50.16 49.30 48.89 49.20 49.00 46.90 44.67 43.36 43.13 42.08 41.24 40.59 40.37 40.29 39.78 38.91 38.35 38.32 37.84 37.98 39.35 40.90 39.09 39.24 38.96
58.57 57.11 56.47 55.04 53.37 52.85 50.95 48.59 47.14 46.90 47.62 46.25 45.35 44.84 44.00 42.11 41.54 40.58 40.18 40.40 39.83 39.28 38.88 38.17 38.50 37.60 37.53 38.50 38.95 40.31 38.48 38.95

GFSFLT2_sfc_wetblb_051.txt.gz
Wetbulb
64.25 65.11 66.04 67.12 66.90 66.63 66.38 66.66 66.97 66.93 66.72 66.42 66.34 66.17 66.13 66.20 66.10 65.60 65.07 64.71 64.18 63.79 63.72 63.51 63.13 62.47 61.92 60.67 60.03 58.60 52.61 53.92
62.49 64.75 65.19 64.95 64.79 65.61 65.70 65.95 66.25 66.16 66.17 65.86 65.56 65.58 65.91 65.92 65.44 65.14 64.51 63.92 63.72 63.77 62.81 62.36 62.39 61.60 61.13 59.71 57.90 56.27 51.46 51.96
59.93 61.66 64.18 64.10 63.95 64.76 65.39 66.05 65.63 65.30 65.11 64.87 63.25 61.81 61.36 60.49 63.50 64.03 63.66 63.07 63.48 62.45 61.29 59.86 58.70 58.96 59.54 57.85 53.90 48.03 50.28 51.34
57.91 58.46 61.75 63.48 64.00 63.12 62.30 63.17 62.31 61.80 61.28 61.21 60.60 60.68 59.62 61.31 62.70 63.35 62.83 62.75 61.34 60.22 58.68 56.73 53.17 50.32 50.01 51.01 46.35 45.68 46.32 48.67
59.47 58.72 61.61 62.22 61.75 61.42 60.42 60.09 59.71 59.90 60.20 59.87 60.44 60.94 58.68 58.91 57.56 57.18 55.11 55.79 52.04 52.00 50.37 49.06 47.55 47.86 47.45 45.61 44.60 43.85 43.43 46.12
62.61 62.54 61.95 60.17 60.39 60.02 59.27 58.99 59.22 59.17 59.54 59.97 60.22 59.96 57.81 56.81 57.01 54.89 52.25 50.51 48.75 48.47 48.06 46.94 45.85 45.97 45.75 45.02 43.52 42.56 42.67 43.60
62.36 61.53 60.85 59.31 59.12 58.42 59.34 59.60 60.33 61.19 61.55 62.03 61.15 59.82 58.14 55.20 52.81 51.91 50.46 48.56 47.14 45.80 45.13 45.05 44.08 43.94 43.89 43.59 42.98 42.90 42.54 42.27
62.66 60.81 59.26 58.99 58.77 59.01 59.51 61.11 61.37 60.61 59.66 60.25 59.83 56.60 53.76 52.31 50.66 49.55 47.93 46.87 45.54 44.33 43.43 43.01 42.64 42.87 42.84 43.19 42.59 42.29 41.71 41.78
62.03 59.69 58.37 59.17 59.63 60.06 60.55 60.59 59.64 58.80 57.81 57.14 55.44 54.16 52.61 51.30 49.71 48.91 46.91 45.71 44.64 44.02 43.28 42.99 42.76 43.26 41.26 42.02 41.62 41.61 41.56 41.41
60.66 60.02 59.52 58.93 59.12 58.48 58.33 58.02 57.80 57.18 55.96 54.46 54.28 53.59 52.16 49.75 48.95 48.32 46.59 45.21 44.40 43.36 42.59 42.03 41.66 41.34 39.75 39.71 40.23 40.91 41.00 40.54
59.27 59.21 58.17 57.58 56.48 56.02 55.90 56.12 55.88 55.60 54.22 53.11 52.74 52.01 50.62 48.93 47.94 46.99 45.40 44.41 43.71 44.17 42.39 42.07 40.44 40.59 41.23 39.47 39.67 38.89 39.61 40.94
59.42 58.24 57.28 56.36 55.41 54.57 54.07 53.97 53.45 52.57 51.74 51.72 51.93 50.87 49.43 47.64 46.67 45.75 44.92 43.57 42.95 42.78 41.98 41.37 40.57 40.37 42.88 41.17 39.25 38.22 38.19 37.40
57.89 56.78 55.80 56.28 54.84 53.13 51.52 51.75 51.36 50.24 50.03 50.85 51.30 50.09 49.04 46.78 45.35 44.64 43.63 43.12 42.92 42.42 41.37 40.50 40.02 39.58 37.72 37.78 37.29 37.77 37.10 37.37
57.37 57.21 55.92 56.22 55.93 52.67 52.68 51.45 51.25 49.77 49.64 50.35 50.83 49.98 48.37 47.01 45.20 43.95 43.38 43.48 42.48 41.55 40.94 39.88 39.65 39.26 37.44 35.29 33.76 35.88 36.38 38.02
57.60 57.26 56.51 55.94 55.17 53.09 50.47 49.52 48.74 48.12 47.73 48.49 49.67 48.26 48.33 47.21 45.36 44.16 43.12 42.99 41.77 41.09 40.62 39.83 37.33 38.42 39.33 36.38 31.25 30.30 32.54 35.71
57.89 57.46 56.59 56.16 55.20 52.99 50.57 49.30 47.97 48.06 47.90 48.14 49.24 48.37 47.41 46.45 45.11 43.94 43.37 42.91 41.95 40.64 40.17 38.27 38.70 35.19 36.56 39.44 36.64 35.35 32.14 30.96
57.05 57.15 56.59 56.56 55.45 54.06 51.59 49.30 48.70 48.18 48.05 48.11 48.04 46.64 46.12 45.64 44.75 43.77 42.27 41.31 39.10 38.50 38.28 37.24 37.05 35.26 34.80 34.80 34.67 34.14 33.33 31.84
56.34 56.50 56.61 57.00 56.01 54.91 52.06 49.85 48.46 47.80 47.25 47.04 45.98 45.00 44.30 43.74 43.05 42.75 42.46 41.32 38.70 37.57 36.81 36.07 35.66 34.97 35.34 34.90 35.15 34.69 33.99 32.81
57.57 56.65 56.27 56.69 56.50 55.32 53.31 50.38 49.24 48.34 48.00 47.63 44.28 42.31 41.20 41.70 42.29 42.38 41.77 40.82 39.99 38.41 37.51 36.34 36.31 35.24 35.30 36.20 36.48 36.26 36.64 36.42
58.02 57.21 56.92 56.88 56.74 55.60 54.02 51.11 49.89 49.27 48.52 46.77 44.01 42.97 42.70 41.96 42.84 42.22 41.26 40.61 40.42 39.55 37.34 36.06 34.84 35.12 34.36 34.30 34.76 35.00 35.07 35.57

GFSFLT2_sfc_wetblb_054.txt.gz
Wetbulb
62.74 64.30 64.04 66.58 66.67 66.53 66.82 67.15 67.18 67.12 66.98 66.70 66.47 66.28 66.06 65.96 65.50 65.32 64.95 64.97 64.98 64.61 63.96 62.97 62.98 61.82 60.56 60.66 59.62 57.84 52.45 54.33
60.51 62.09 63.69 64.18 64.61 65.99 66.07 66.41 66.36 66.38 66.46 65.98 65.56 65.73 65.79 65.66 64.82 64.61 64.46 64.46 63.62 62.98 62.76 61.94 61.66 60.52 58.52 56.61 56.56 55.62 51.16 52.38
61.93 59.32 59.87 63.18 63.39 64.87 65.76 66.34 65.98 65.63 65.40 64.92 62.62 61.61 61.29 60.61 63.70 63.79 64.32 63.00 61.94 60.94 59.19 58.18 57.74 57.54 56.06 53.78 51.07 46.59 49.15 51.38
59.92 61.41 63.06 63.13 63.52 61.93 62.47 63.82 62.56 62.00 61.69 60.62 60.05 59.03 58.65 61.26 62.44 63.17 62.27 61.17 59.95 58.27 56.31 54.91 51.40 47.45 46.97 48.44 44.12 45.49 47.65 50.37
57.85 59.19 62.09 62.21 61.71 61.02 60.75 60.46 59.32 59.49 59.69 59.74 60.39 59.48 58.38 58.31 56.42 55.26 53.17 54.17 50.13 49.64 48.25 47.16 46.45 46.26 45.11 43.75 43.77 43.70 43.38 43.80
57.78 58.99 60.73 61.29 61.24 59.90 59.38 58.95 58.89 58.35 58.86 60.14 60.10 57.84 57.05 56.46 54.69 52.09 50.25 48.76 47.62 46.87 46.09 45.33 44.64 44.99 44.32 43.54 43.16 42.49 42.16 42.83
59.76 60.69 60.65 59.84 59.69 58.99 58.84 58.27 58.61 58.95 59.34 59.91 60.45 58.10 56.07 54.82 51.74 50.14 47.98 47.08 45.82 44.78 44.22 43.88 43.35 43.51 43.07 42.88 42.46 42.10 42.43 42.57
61.37 60.75 60.17 59.15 58.40 57.88 58.25 59.33 59.74 60.12 59.92 60.33 59.94 58.43 54.78 52.54 49.90 48.17 46.44 45.24 44.25 43.59 43.04 42.57 41.85 42.48 42.47 42.25 42.11 41.70 41.67 41.90
61.52 60.60 58.44 58.10 57.93 58.05 58.41 59.68 59.74 59.06 58.52 58.71 57.25 55.54 52.66 51.28 48.35 46.43 44.93 44.11 43.82 44.31 42.74 42.85 42.47 42.57 41.42 41.55 41.60 41.68 41.26 41.23
60.80 60.56 57.57 57.42 57.55 57.55 57.98 58.34 57.86 57.14 56.23 55.08 54.35 54.39 52.70 49.97 48.12 45.90 45.37 44.66 44.53 43.07 42.52 41.92 41.61 41.16 40.13 40.12 40.08 40.87 40.70 40.18
58.58 57.55 56.79 56.57 56.19 55.97 56.23 56.55 56.21 55.89 54.46 54.98 52.97 51.74 50.56 49.04 48.78 46.67 45.05 45.65 43.45 43.67 42.20 41.83 40.47 40.65 40.99 39.80 39.43 39.49 39.69 40.42
58.00 57.51 56.29 55.13 54.52 54.18 54.22 54.12 53.88 53.87 53.13 52.14 51.39 50.31 48.94 47.88 46.71 45.10 44.81 43.10 42.50 42.35 41.69 41.17 40.72 40.17 42.22 41.39 38.93 38.84 38.82 38.08
57.79 56.21 55.29 55.77 55.61 54.06 52.29 52.01 51.78 51.42 52.66 52.55 50.97 48.88 47.86 47.23 45.42 44.37 43.32 42.62 42.35 41.96 40.88 40.15 39.85 39.77 38.65 38.21 37.84 38.11 38.20 37.78
57.27 57.01 55.81 56.17 56.37 52.36 52.78 51.55 51.63 51.28 52.18 50.65 50.30 48.72 47.37 46.17 44.80 43.15 42.66 42.70 41.92 41.58 40.94 40.06 39.71 39.23 36.90 35.33 33.12 35.55 37.09 38.14
57.40 57.09 55.98 56.45 55.28 52.66 50.26 50.90 50.30 49.85 48.18 48.44 49.29 48.75 47.57 46.22 44.53 43.14 42.79 42.49 41.10 40.83 40.46 39.56 37.05 37.65 38.08 35.09 29.83 29.23 32.85 36.20
57.61 57.11 55.98 55.96 54.33 53.02 51.10 50.45 48.85 48.99 47.96 48.19 48.92 48.05 47.44 45.87 43.99 43.19 42.56 42.24 41.31 39.78 39.79 38.61 36.92 34.93 36.03 38.94 36.65 35.58 32.32 31.54
57.52 56.91 56.19 56.21 54.73 53.83 52.08 51.05 51.12 50.43 49.37 47.81 48.27 45.97 45.70 45.04 43.86 42.85 42.02 40.46 38.71 38.64 38.24 37.40 36.74 36.06 34.88 34.97 34.89 34.45 33.81 32.72
55.79 56.35 55.98 55.98 55.36 53.95 52.23 51.83 51.17 50.15 47.57 47.24 45.95 44.52 43.73 43.34 43.11 41.35 40.87 40.16 39.03 39.58 38.58 38.23 37.13 35.96 35.46 35.38 35.31 34.80 34.17 32.99
55.74 55.99 55.82 56.19 56.09 55.06 53.77 52.63 52.62 49.98 47.76 47.59 44.52 42.11 40.88 40.97 41.08 41.36 41.10 41.05 40.90 38.82 39.56 38.99 38.03 37.05 36.34 36.63 36.16 36.50 36.70 36.06
56.09 55.84 56.52 56.09 56.79 56.07 54.06 53.80 51.10 49.44 47.99 47.27 45.33 42.96 41.10 41.93 40.70 40.95 41.50 41.36 40.95 40.65 39.55 38.09 37.38 35.76 34.49 34.32 35.69 35.55 35.36 35.87

GFSFLT2_sfc_wetblb_057.txt.gz
Wetbulb
60.83 60.67 61.61 62.09 63.99 66.92 66.82 67.14 67.24 67.04 67.23 67.00 66.86 66.50 65.98 65.67 65.44 65.58 65.47 65.10 64.83 64.41 63.88 62.95 62.08 61.26 60.09 59.50 59.33 58.48 59.10 59.62
60.55 59.27 58.50 60.06 62.77 65.35 66.30 66.42 66.48 66.38 66.34 65.96 65.61 65.47 65.54 65.39 64.77 65.17 65.14 64.98 64.32 62.88 62.73 61.39 59.30 58.33 57.62 56.31 55.75 57.36 57.77 58.24
60.15 58.24 58.65 60.10 63.98 65.54 66.16 66.43 66.01 65.48 65.40 64.88 63.85 63.67 63.34 62.82 63.89 64.05 63.66 62.99 61.88 60.70 59.46 58.48 57.83 56.35 54.79 54.25 55.96 56.54 56.87 57.26
58.57 58.70 57.67 57.10 58.09 61.69 64.81 65.09 64.49 64.42 64.13 63.84 63.38 63.46 63.17 62.16 63.06 62.49 61.83 60.91 60.11 58.06 56.06 54.20 54.39 52.54 52.30 52.52 52.37 52.83 52.63 52.94
56.97 57.86 59.85 61.76 61.76 62.84 64.10 63.60 63.50 63.59 63.20 63.29 62.76 63.13 62.82 62.23 61.12 59.21 58.14 56.12 54.46 54.28 52.76 52.35 52.76 52.33 51.94 51.53 51.40 51.42 51.81 51.68
60.17 61.01 62.30 62.14 62.69 62.89 62.95 62.49 62.56 62.49 62.66 63.55 62.45 61.74 61.55 60.51 58.00 56.55 54.73 53.66 53.19 53.13 52.30 52.76 51.57 51.08 51.31 51.17 51.08 50.81 50.66 51.00
59.22 61.55 62.81 62.66 62.09 62.13 62.11 62.27 61.85 62.83 62.96 63.52 62.49 61.01 61.03 58.96 56.23 54.92 53.64 53.55 52.16 51.74 51.57 51.01 51.05 50.98 50.72 50.31 49.90 50.14 50.60 51.88
59.74 61.06 62.92 63.27 62.17 62.10 61.72 62.44 62.64 62.46 62.21 63.14 62.83 60.52 59.82 56.79 55.11 54.19 52.71 52.47 52.11 51.87 51.50 50.88 50.27 50.60 50.03 50.18 49.92 49.89 50.27 52.14
60.41 61.65 62.87 63.14 62.08 61.72 61.82 61.93 61.86 61.83 62.13 63.39 63.70 61.72 60.07 57.37 54.66 53.07 52.09 51.76 51.57 51.33 51.10 51.32 50.50 50.12 49.69 49.82 49.88 49.42 49.40 49.94
61.87 62.55 62.49 62.86 62.06 61.79 61.64 62.10 62.56 63.19 63.28 63.84 62.92 61.34 59.01 56.53 53.97 52.22 51.61 51.68 50.40 50.32 51.26 50.45 50.25 50.22 49.92 49.74 49.40 49.67 48.32 48.47
62.46 63.50 62.52 62.34 61.82 61.76 62.23 62.60 62.99 63.31 62.53 61.66 60.70 59.57 57.63 55.74 53.38 51.66 52.20 51.51 51.81 51.35 50.57 50.71 49.78 49.97 50.05 50.55 50.15 49.54 47.99 47.35
63.14 62.98 62.55 61.90 61.31 61.18 61.57 62.11 62.51 61.94 60.79 60.28 58.88 58.11 56.15 55.19 53.25 50.55 52.41 50.59 50.93 51.03 50.51 50.14 50.17 50.40 48.20 48.78 49.11 49.12 47.93 47.77
62.30 61.88 61.42 60.32 59.10 58.34 58.00 58.57 59.77 60.04 58.91 58.52 57.42 56.61 55.08 54.43 51.44 50.48 51.85 51.44 51.21 51.19 49.87 49.74 48.98 49.81 48.72 47.91 47.91 47.73 46.72 46.89
61.11 61.50 60.82 60.69 60.44 59.96 59.87 59.40 59.59 59.70 58.66 57.82 57.21 55.62 54.73 53.80 51.03 51.50 51.45 50.74 50.52 50.38 50.18 48.59 49.06 48.59 45.87 44.68 42.28 43.73 45.53 46.68
60.67 61.07 60.82 60.59 60.56 59.16 57.48 57.82 57.01 56.42 56.62 56.85 55.98 54.73 53.54 52.32 51.66 51.42 50.97 51.17 50.01 50.15 49.85 48.82 46.39 46.72 45.88 43.27 39.92 38.78 41.63 44.82
61.25 61.32 60.75 60.27 59.57 58.54 57.62 58.05 57.43 57.20 56.61 56.48 55.81 52.69 51.15 51.07 51.50 51.11 51.08 50.67 49.66 49.18 47.87 47.55 45.99 43.28 44.36 44.90 45.33 42.87 39.05 37.90
60.84 61.19 60.67 60.47 59.40 59.35 58.52 58.25 59.13 56.02 55.41 54.95 54.47 53.78 52.72 51.38 50.97 50.35 50.18 49.98 49.01 47.75 46.40 45.74 44.97 43.23 42.61 42.90 42.61 43.31 43.06 39.66
60.43 60.17 59.87 60.12 59.46 59.00 58.23 58.10 56.29 54.20 54.14 53.21 53.17 52.90 51.70 51.68 50.14 50.25 49.97 48.53 47.17 45.26 43.78 42.70 41.95 44.35 42.44 42.21 42.20 40.96 40.47 39.81
59.98 60.31 59.63 59.74 59.10 58.26 57.30 56.60 56.45 55.38 54.64 51.97 53.06 51.53 49.99 50.00 49.75 48.48 47.42 46.43 45.61 43.17 41.84 42.06 41.86 41.98 43.62 43.36 43.64 42.56 42.72 41.47
59.56 59.40 59.68 59.50 59.00 58.54 56.60 56.14 56.66 56.26 54.14 51.75 51.99 51.98 51.13 49.61 48.29 46.94 45.64 45.32 43.21 42.25 42.18 41.15 41.42 44.02 43.26 42.85 42.57 42.47 42.60 41.38

GFSFLT2_sfc_wetblb_060.txt.gz
Wetbulb
60.13 59.88 61.46 61.84 63.13 63.62 64.65 66.70 67.19 67.28 67.02 67.06 66.94 66.51 66.18 66.38 66.15 65.86 65.42 64.92 64.58 63.88 63.67 63.13 61.86 60.58 59.87 59.55 59.59 59.69 60.26 60.47
59.10 57.37 57.78 58.20 58.95 62.48 64.95 66.14 66.53 66.46 66.46 65.90 65.49 65.33 65.64 65.59 65.28 65.37 65.20 64.76 63.82 62.37 61.84 61.00 59.82 58.66 57.52 57.25 58.19 58.61 58.84 58.95
59.02 57.88 58.13 58.31 59.50 63.26 65.01 66.05 65.78 65.39 65.27 64.52 63.27 63.00 63.58 63.84 64.18 64.84 64.38 63.45 62.56 60.71 59.24 58.06 57.42 56.26 55.60 56.79 57.30 57.27 57.18 57.65
58.76 59.85 58.80 57.87 60.05 62.29 64.41 64.71 64.70 64.08 63.63 63.98 63.16 63.59 63.76 64.11 63.31 62.90 62.48 61.51 59.91 58.05 56.58 57.38 58.75 56.88 55.34 55.70 55.15 54.87 54.47 55.07
58.37 58.27 57.81 60.41 61.77 61.13 62.08 64.16 64.02 64.12 64.32 63.65 64.40 64.15 64.02 63.62 61.93 61.03 60.28 59.79 57.52 56.94 57.67 57.76 56.91 55.94 54.47 54.70 54.57 54.65 54.20 53.84
56.24 57.13 59.37 59.44 59.62 59.07 60.06 61.50 62.84 62.57 63.36 64.65 64.38 63.59 63.87 63.44 62.09 61.47 60.11 59.95 58.92 58.34 57.41 56.31 55.06 54.66 54.78 54.10 53.69 53.36 53.49 53.64
57.89 61.60 61.63 60.91 61.46 62.39 62.94 62.81 62.75 63.12 63.95 64.07 64.11 63.41 63.06 62.85 62.11 60.91 60.05 59.37 58.41 57.28 56.07 55.29 54.71 54.30 54.00 53.08 52.69 52.65 53.38 55.30
59.34 60.18 61.93 62.62 62.58 63.92 63.23 62.79 63.19 63.73 63.72 64.11 64.52 63.66 63.53 62.52 61.05 59.80 58.97 59.10 58.24 56.92 55.82 54.70 54.24 53.84 53.02 52.87 52.50 52.32 53.10 54.51
61.04 61.87 63.52 63.38 62.77 63.75 63.38 62.65 62.93 62.81 63.98 65.63 64.18 63.91 63.47 62.70 60.95 59.49 58.59 58.02 57.34 56.29 55.39 54.85 54.08 53.22 52.32 52.81 53.22 52.54 52.42 52.41
61.85 61.82 63.28 64.04 63.08 63.02 62.98 63.01 62.94 63.19 64.22 66.03 66.51 64.57 64.18 61.89 59.48 58.38 58.10 56.86 56.52 55.49 55.49 54.67 54.21 53.76 54.17 54.54 54.51 53.61 52.34 52.32
61.30 61.98 62.30 64.85 64.64 63.40 63.59 63.87 63.31 63.88 65.27 65.86 66.62 66.14 63.76 61.63 60.39 59.10 57.48 56.67 54.92 55.31 55.09 54.86 53.64 54.09 54.00 54.77 54.73 53.98 51.45 50.76
62.98 62.89 63.70 65.61 65.42 64.35 63.40 63.52 63.52 64.72 65.41 65.95 66.09 64.57 63.33 62.54 60.61 58.27 57.25 56.31 56.06 55.51 54.84 54.58 54.93 55.37 52.33 52.59 53.85 52.85 51.81 51.14
63.58 63.79 64.59 65.37 64.28 62.18 61.16 61.11 62.53 63.58 64.94 65.44 64.40 63.66 62.73 61.72 59.97 57.29 56.73 56.32 55.60 55.86 54.90 53.70 53.17 54.87 52.91 52.31 52.10 51.18 50.78 50.68
63.37 64.26 65.47 65.21 64.52 62.97 61.82 61.74 62.89 63.47 64.54 64.49 64.17 62.88 62.10 61.01 59.65 56.83 55.11 56.39 55.68 55.38 54.44 53.24 54.05 53.88 51.04 49.36 48.76 49.48 49.41 49.82
63.42 64.27 65.13 65.07 65.25 63.64 62.44 62.45 62.75 62.39 62.71 62.30 62.51 61.87 61.04 59.99 57.50 55.83 55.34 56.53 55.17 55.09 54.83 53.57 51.98 51.72 49.82 47.26 47.21 46.08 46.89 49.14
64.12 64.42 64.87 65.00 65.44 63.55 61.61 60.20 59.26 61.44 62.76 62.56 62.68 61.21 60.08 59.04 55.57 54.96 55.69 55.60 55.54 55.03 54.58 54.03 52.28 49.12 47.33 45.83 47.76 47.07 43.86 42.77
64.40 64.08 64.39 64.96 64.88 64.39 62.68 61.11 60.76 62.49 62.88 61.81 60.80 59.22 57.49 55.50 55.59 53.89 54.32 55.42 55.64 54.72 53.32 52.06 47.89 44.33 44.76 45.29 45.81 46.68 46.07 42.65
64.65 64.17 64.08 64.90 64.83 64.33 63.81 62.84 62.04 61.30 60.54 60.27 59.79 59.35 57.74 56.38 53.46 53.62 54.60 55.30 54.80 53.61 52.22 48.18 46.15 43.60 43.55 43.62 43.01 43.04 43.17 42.73
64.46 64.46 63.74 64.43 64.90 64.36 64.13 63.85 62.78 60.25 59.54 60.33 58.98 57.21 55.29 53.16 52.99 52.87 54.74 54.92 53.84 51.25 47.07 46.23 44.10 43.47 43.13 44.17 44.30 44.97 44.83 43.88
64.44 63.39 64.01 64.18 64.24 63.79 63.80 63.26 62.22 59.94 59.02 59.93 59.73 55.35 52.25 53.13 52.52 54.44 54.81 52.95 47.83 47.59 43.92 47.64 46.82 43.35 44.28 43.96 43.43 44.70 45.26 44.23

GFSFLT2_sfc_wetblb_063.txt.gz
Wetbulb
62.43 62.26 61.89 62.16 62.97 63.56 65.11 65.98 66.91 67.40 67.23 67.09 66.93 66.67 66.43 66.55 66.64 66.64 66.13 65.68 65.02 63.61 62.92 62.59 60.82 60.44 59.92 59.67 59.27 60.44 60.83 61.10
60.11 60.44 59.44 58.19 58.80 61.33 62.81 64.85 66.44 66.53 66.23 65.63 65.36 65.68 65.55 65.58 65.07 65.20 64.87 64.27 63.41 62.35 61.75 60.73 59.41 58.06 57.50 58.74 58.22 60.02 59.14 59.73
58.77 58.03 58.74 59.04 59.60 60.87 63.67 65.48 65.68 65.37 65.35 64.39 63.29 63.74 63.01 63.26 64.16 64.57 64.59 63.57 62.01 60.76 59.73 58.53 58.33 57.39 57.93 57.18 57.55 56.62 56.70 58.17
58.41 58.53 58.80 58.48 59.06 60.13 62.86 63.55 64.21 64.44 63.82 63.58 63.38 63.58 63.85 63.58 63.37 63.52 62.83 61.77 60.55 59.57 58.69 58.98 58.84 56.80 55.59 56.88 55.41 55.74 55.01 55.23
58.43 59.02 59.11 59.32 59.49 59.72 62.16 62.70 62.98 63.30 64.47 64.39 63.72 63.91 63.69 63.59 62.04 60.72 60.45 59.97 57.29 56.96 56.54 58.27 58.24 56.83 55.86 55.78 55.18 54.83 54.35 53.96
57.64 58.22 58.44 58.53 59.87 61.46 62.03 62.69 63.20 63.23 63.43 65.70 65.10 63.57 64.31 63.32 61.76 61.59 60.67 60.29 59.16 60.11 59.13 58.02 56.79 56.08 55.43 55.08 54.53 54.10 53.52 53.78
56.91 57.77 58.83 59.93 59.54 58.92 59.35 60.89 62.38 63.89 63.31 64.93 65.14 64.41 64.74 63.29 63.29 62.00 61.67 61.26 60.59 59.80 57.91 56.89 55.89 55.31 54.87 54.07 53.51 53.74 54.36 56.25
57.36 58.67 59.26 58.72 58.70 61.11 61.72 62.36 62.43 63.30 63.29 64.35 66.03 65.24 64.97 62.87 62.93 61.74 61.27 61.15 60.51 59.68 58.36 57.06 55.81 55.40 53.97 53.64 53.25 53.36 54.27 55.50
58.21 58.76 61.04 61.29 61.79 63.08 62.90 62.55 62.30 62.35 63.08 64.98 64.90 65.01 65.01 64.43 62.41 61.59 61.09 61.48 60.71 59.32 57.82 57.18 55.71 54.71 53.88 53.64 53.75 53.28 53.08 53.55
58.92 59.60 61.45 62.88 63.37 63.53 62.52 62.15 62.69 63.29 63.71 64.29 64.96 64.23 64.32 63.91 62.58 61.82 62.06 60.39 59.48 58.49 57.62 56.71 55.66 54.67 54.07 53.93 54.51 53.64 52.94 52.81
60.54 61.86 62.47 62.51 62.80 62.90 63.36 65.00 63.01 62.36 63.59 64.55 65.55 64.35 64.67 63.75 62.28 61.63 60.90 59.48 58.94 58.09 57.94 57.48 54.92 54.44 54.27 54.65 55.30 54.49 52.91 52.24
61.57 61.65 62.52 63.13 64.05 63.49 62.47 62.70 62.32 63.02 63.24 64.17 65.67 65.71 64.90 63.88 62.78 61.90 60.10 59.18 57.75 57.85 58.03 57.16 55.88 55.39 53.25 53.22 55.16 54.64 54.03 52.87
61.66 61.38 62.07 63.34 62.83 61.49 60.70 60.44 61.50 62.11 63.70 64.94 65.82 65.36 64.91 64.03 63.37 61.88 59.86 58.88 58.56 58.63 57.64 55.92 54.70 55.57 53.88 54.08 54.04 53.88 52.55 52.43
62.13 61.72 62.18 63.68 63.93 63.27 61.78 61.02 61.43 62.09 63.13 64.91 65.46 64.93 64.45 63.43 63.34 61.55 59.60 58.78 59.00 58.11 57.46 55.11 55.31 55.42 52.80 52.23 49.88 51.06 51.43 51.70
62.95 63.36 63.52 64.05 64.22 63.76 62.00 61.69 61.77 61.57 62.12 63.32 64.68 64.69 63.58 63.03 63.16 61.04 59.93 58.90 57.68 57.82 56.92 55.79 53.53 54.24 53.12 50.68 48.31 45.11 48.34 51.89
63.55 63.87 64.27 64.70 64.96 63.78 61.92 59.74 58.46 60.54 61.78 63.10 62.97 63.52 62.65 62.74 61.93 60.63 58.97 58.28 57.29 56.42 57.06 56.79 55.53 52.85 52.12 49.31 47.44 46.56 44.29 44.54
64.57 64.02 63.89 64.71 64.89 64.67 63.23 61.52 61.02 61.87 62.21 62.87 62.56 62.99 62.92 61.52 60.37 58.07 57.52 57.71 56.97 55.68 56.52 55.84 55.11 53.14 47.56 45.26 47.08 47.30 48.89 44.28
64.85 64.34 64.02 64.95 65.19 65.01 64.67 63.41 62.84 60.84 61.62 62.27 62.32 61.93 61.43 60.61 58.80 57.79 57.47 55.95 55.40 54.43 56.96 55.60 51.24 48.10 45.03 46.30 43.93 44.27 44.11 42.67
64.85 64.73 63.73 64.59 65.00 65.06 64.79 64.56 64.30 63.25 62.47 61.75 60.98 60.94 59.44 59.35 58.14 56.81 55.38 54.14 53.43 53.71 55.10 52.49 46.43 45.85 46.41 45.56 44.65 45.57 44.55 44.27
64.81 64.37 63.88 64.46 65.20 65.22 65.64 65.62 64.99 64.80 61.16 59.68 60.52 60.34 60.41 60.61 59.14 55.17 52.95 53.10 52.83 52.78 49.67 45.79 46.85 45.59 43.95 43.98 43.69 44.18 44.95 45.33

GFSFLT2_sfc_wetblb_066.txt.gz
Wetbulb
60.71 60.20 61.33 62.94 63.91 65.04 65.60 66.97 67.37 67.45 67.56 67.23 67.34 67.17 66.91 66.98 66.84 66.38 65.94 65.32 64.36 62.96 61.99 61.90 60.61 60.31 59.52 59.12 59.81 60.83 57.64 58.24
60.41 59.29 59.13 58.98 60.33 62.97 63.85 66.19 66.26 66.32 66.34 65.96 65.38 65.64 66.01 65.92 65.67 65.72 65.34 64.53 63.36 62.16 61.37 60.67 59.23 58.67 57.49 57.54 59.06 59.35 56.44 57.27
60.44 58.65 57.88 57.73 58.23 60.02 62.01 66.12 65.66 65.34 65.24 64.53 62.94 62.71 62.40 62.71 64.15 64.35 64.30 63.54 62.56 61.24 60.05 59.41 58.17 57.24 58.17 57.72 57.90 52.09 54.02 56.61
58.49 58.18 58.38 58.72 59.73 57.61 59.23 63.03 63.73 63.34 62.96 62.19 61.67 60.62 61.93 62.72 63.56 63.45 63.09 62.37 61.62 60.92 60.11 59.01 57.77 51.48 51.74 56.32 51.62 52.36 52.58 55.20
57.84 58.02 58.63 58.78 58.70 57.94 61.09 61.68 62.49 62.78 62.58 62.42 61.95 62.14 61.52 60.99 60.21 59.28 58.71 58.90 54.86 56.21 55.87 54.59 55.16 53.39 52.74 52.19 51.88 51.00 50.75 50.28
57.72 58.16 58.65 58.47 59.10 60.21 60.84 61.19 61.12 60.83 63.12 62.72 62.31 61.49 61.21 59.75 58.60 58.68 57.54 56.86 54.06 55.55 56.15 55.04 53.39 53.16 52.64 51.57 51.19 50.01 49.99 50.65
56.93 58.22 58.37 58.67 58.81 60.04 60.69 60.66 60.44 61.59 62.85 63.38 62.45 61.55 61.07 60.25 59.96 58.65 57.89 58.81 57.55 57.39 54.93 53.85 52.96 52.19 51.70 51.21 50.72 50.10 50.84 52.87
57.11 57.73 59.42 58.35 58.94 59.45 59.71 60.59 61.95 61.96 62.86 63.73 64.32 62.33 62.26 60.59 60.96 59.31 59.17 59.00 58.40 57.09 55.08 53.44 52.38 51.71 51.04 50.55 50.00 50.60 50.51 52.40
56.61 57.97 58.68 58.58 57.54 57.69 58.36 58.50 61.23 61.67 62.20 63.90 64.04 63.87 62.93 61.89 60.49 60.01 59.18 58.98 58.37 57.26 55.29 54.32 52.12 52.83 51.02 50.57 50.41 49.67 49.45 49.76
57.44 58.48 57.84 58.20 58.98 57.73 60.12 60.22 60.54 61.31 62.14 62.53 63.27 63.14 62.92 61.88 60.79 59.88 59.30 58.84 57.28 55.12 54.08 52.85 52.31 50.90 49.77 49.64 49.70 49.69 49.14 48.93
56.01 57.47 58.25 59.68 60.76 60.78 61.37 61.15 61.18 61.14 61.86 62.45 62.67 62.59 62.80 61.66 61.00 59.78 59.25 58.07 56.72 56.22 54.90 54.28 51.50 50.11 50.68 50.43 50.39 49.73 48.80 50.40
56.62 57.61 58.96 60.51 61.53 61.88 61.27 60.99 60.75 60.76 60.62 61.97 62.45 61.63 62.81 62.18 60.58 59.83 58.03 57.29 56.30 54.88 54.86 54.07 52.58 50.94 52.39 51.02 50.82 50.30 49.72 48.59
58.82 58.56 60.92 61.06 59.73 59.38 59.10 59.23 59.45 59.75 60.48 61.50 63.56 63.63 63.60 62.33 60.38 60.32 58.09 56.74 55.54 55.04 55.07 53.53 51.28 51.33 49.59 49.54 49.89 50.24 48.67 48.01
60.09 60.50 61.17 61.28 60.81 60.40 59.58 59.79 60.09 59.88 60.70 61.63 63.49 63.43 63.56 63.23 62.01 60.51 58.05 56.87 56.37 55.91 54.33 52.36 52.47 52.01 48.37 48.26 44.28 46.26 47.16 48.56
59.92 60.28 60.41 61.26 61.51 61.21 60.55 60.04 59.50 59.26 59.71 60.48 62.95 63.71 63.19 62.71 61.86 60.94 58.32 57.50 56.32 56.21 55.05 53.98 51.19 52.22 49.81 46.83 43.65 42.29 43.12 48.55
60.81 60.66 60.37 61.19 62.41 61.35 59.81 57.53 56.22 58.28 58.76 60.50 62.75 63.49 62.64 62.80 61.57 60.81 58.57 57.07 55.51 55.27 55.42 53.62 52.68 50.12 49.02 47.71 44.01 43.84 41.62 41.52
61.24 61.90 61.45 61.79 62.12 62.03 60.95 58.87 58.55 58.65 59.78 59.62 61.77 61.77 61.42 61.49 60.90 59.87 56.45 55.88 55.07 55.78 53.73 53.23 52.51 51.11 48.39 43.45 43.87 44.52 45.59 41.63
61.37 61.75 61.95 62.58 62.83 62.28 62.00 59.99 59.31 58.11 58.70 58.98 60.84 60.88 60.92 60.88 59.87 57.17 56.82 55.07 54.55 55.01 54.24 52.79 51.17 46.52 44.98 43.67 43.47 43.37 42.72 41.96
62.38 62.00 61.50 62.28 63.11 62.88 62.04 62.85 60.60 60.21 59.27 59.86 60.24 60.00 58.87 58.39 57.94 56.05 55.32 55.00 54.28 53.75 52.81 50.50 46.70 44.15 43.92 44.08 43.71 43.60 43.24 42.22
62.80 62.52 61.92 62.61 62.75 63.26 63.40 62.95 63.04 61.91 61.64 61.01 59.84 59.59 59.23 58.82 57.57 56.32 55.43 53.86 53.35 52.06 49.20 46.12 45.87 46.50 44.58 43.18 43.35 42.85 43.13 42.29

GFSFLT2_sfc_wetblb_069.txt.gz
Wetbulb
61.91 62.50 62.46 63.26 62.38 65.41 66.03 66.77 68.24 68.99 69.13 68.85 68.69 67.46 67.23 67.02 66.51 66.40 65.87 65.28 63.58 62.43 61.76 61.76 61.05 60.44 60.09 59.96 60.39 60.60 55.80 55.71
59.76 60.28 60.58 60.63 61.02 62.61 62.76 63.42 65.43 66.87 67.17 66.99 66.19 66.25 66.15 66.12 65.72 65.64 65.21 64.37 62.78 61.52 61.48 60.39 59.13 58.37 58.32 58.21 59.26 59.80 55.25 55.05
58.21 58.58 59.39 59.61 59.73 60.82 62.24 63.81 65.56 64.45 65.16 64.94 63.96 63.47 62.91 63.17 64.37 64.56 64.38 63.72 62.85 61.23 60.56 58.99 57.68 56.79 56.86 57.58 56.15 54.63 54.97 55.27
57.69 57.22 57.52 58.51 59.56 59.60 60.44 63.23 63.17 62.23 61.43 60.15 60.91 61.11 61.65 62.50 63.28 63.76 63.63 62.99 62.30 61.07 59.69 58.53 54.96 49.32 50.17 53.63 48.76 53.10 54.73 54.35
58.14 58.05 58.76 57.52 56.74 58.25 60.09 61.67 62.04 61.47 60.53 59.43 60.91 61.04 60.35 59.79 59.53 59.03 57.96 59.23 56.21 56.05 54.43 52.33 52.53 49.95 49.31 48.74 48.61 49.31 48.56 51.23
57.61 58.32 58.63 57.08 57.01 58.15 60.46 61.30 61.30 60.74 60.05 61.04 59.69 58.73 57.66 57.68 57.08 56.55 54.44 53.76 51.29 52.06 52.61 51.34 49.97 50.63 49.87 48.99 47.70 46.83 46.55 48.46
57.93 58.33 57.96 58.77 59.53 60.42 60.62 60.83 59.86 60.50 60.63 61.09 59.46 58.57 56.79 57.13 56.87 55.88 55.29 54.47 52.71 53.86 51.59 51.54 49.95 49.58 49.14 48.82 48.22 47.68 49.17 50.03
57.95 58.24 58.24 59.18 58.51 58.98 59.89 60.49 59.64 60.85 60.65 60.80 60.50 59.11 57.89 57.24 56.62 56.00 55.43 56.04 55.72 53.24 51.93 50.86 49.71 49.25 48.53 48.36 48.16 48.21 50.45 50.96
57.41 58.10 57.94 57.58 57.16 58.49 59.06 59.61 60.64 60.05 60.70 61.47 60.22 60.19 57.84 58.35 57.30 56.44 56.73 56.35 55.82 53.61 52.63 51.01 49.93 49.62 48.59 48.40 47.98 47.72 47.65 50.10
57.58 58.79 57.24 57.85 57.83 58.32 58.54 58.53 59.37 59.55 59.96 60.35 60.74 61.22 60.24 58.97 57.89 57.75 57.19 56.91 55.21 53.17 52.05 50.74 49.65 48.54 47.14 46.69 47.13 47.57 46.97 46.94
57.08 58.01 57.22 57.87 57.62 57.58 57.75 57.73 57.85 58.49 58.92 59.31 60.27 60.89 60.57 59.50 58.39 57.99 57.08 55.74 54.15 53.34 52.00 50.98 49.63 48.10 47.78 47.19 46.65 46.21 46.29 48.50
56.56 57.30 56.85 57.06 57.51 55.53 57.25 56.03 57.13 57.45 58.49 59.71 59.94 59.91 60.59 59.66 59.03 57.09 55.90 55.02 54.34 53.53 52.07 52.59 50.39 48.31 50.98 49.38 47.09 47.11 45.79 45.38
54.79 55.61 55.72 56.54 55.46 54.72 56.78 55.33 55.44 55.88 56.76 59.89 59.73 59.50 60.31 59.05 58.09 57.21 55.39 54.74 54.08 52.89 51.85 51.60 49.86 49.52 47.38 46.67 46.95 46.99 46.38 45.98
54.10 54.75 55.20 57.28 57.92 57.62 56.01 56.74 55.66 55.80 56.44 57.64 60.67 60.03 60.32 59.77 58.39 57.82 55.48 54.47 54.11 52.29 52.17 50.88 50.99 49.67 46.34 46.21 43.16 44.57 45.67 46.16
53.87 55.01 56.46 58.41 58.09 57.13 55.68 56.11 55.91 55.58 55.27 57.07 60.33 61.52 61.76 61.20 59.86 58.84 56.32 55.63 54.63 52.87 52.04 51.43 50.65 51.35 48.65 47.61 43.12 40.76 41.98 45.02
56.27 56.74 58.12 58.57 58.18 57.34 56.28 55.97 55.24 56.34 55.70 56.27 60.60 61.48 61.69 61.48 60.91 60.11 57.40 56.58 55.04 53.94 55.22 54.53 51.85 50.00 48.87 46.91 44.84 44.04 40.27 39.46
57.43 57.81 57.90 58.52 58.55 58.27 56.94 55.56 55.61 55.25 55.54 56.56 59.86 60.96 61.27 61.42 60.26 58.96 56.91 56.65 55.51 55.14 54.79 53.55 52.93 51.50 48.46 44.84 44.82 44.49 44.29 40.45
57.80 57.42 57.40 58.13 58.49 58.78 59.08 57.67 54.70 54.08 55.29 55.87 58.68 60.27 60.45 60.16 60.51 59.49 57.30 55.48 54.63 53.53 53.65 53.40 51.23 48.57 46.59 45.64 44.93 43.70 43.21 42.02
57.55 57.86 57.38 57.89 57.97 58.62 58.68 58.69 56.23 54.99 54.70 56.20 58.08 58.79 59.66 59.51 58.55 55.89 55.58 53.89 53.17 53.26 53.10 50.88 47.89 46.48 45.28 45.15 45.09 44.20 43.39 43.19
57.85 57.81 58.44 58.92 58.65 59.19 59.44 59.05 58.18 57.44 56.62 57.19 59.06 59.12 59.01 57.20 55.46 54.20 53.47 53.01 52.37 52.08 50.09 46.88 46.30 45.49 45.17 44.34 43.66 43.64 44.11 43.37

GFSFLT2_sfc_wetblb_072.txt.gz
Wetbulb
62.69 63.19 63.34 63.22 62.53 64.27 66.57 66.31 68.23 69.16 68.70 68.01 67.85 67.53 66.84 66.76 66.27 66.02 64.89 63.94 63.01 62.38 61.89 61.79 61.59 61.05 62.17 61.08 59.90 58.94 54.17 54.61
60.35 60.72 60.65 60.46 60.56 62.03 62.42 63.18 65.11 67.42 67.35 66.99 66.40 66.03 65.96 65.63 65.33 65.12 64.50 63.45 62.43 61.78 61.01 60.87 60.55 60.26 61.72 60.63 59.88 58.51 52.95 53.01
60.23 60.12 59.98 59.76 59.99 61.09 61.08 62.19 63.97 65.86 65.90 65.72 64.39 63.77 63.30 62.36 64.00 64.19 63.93 63.13 61.99 61.07 60.61 58.83 57.49 58.97 60.64 59.90 58.09 53.71 53.27 53.48
58.64 58.97 58.77 59.12 59.43 58.78 58.99 60.75 62.40 62.73 62.27 61.41 62.15 61.59 61.74 62.43 63.33 63.48 63.29 62.47 61.15 60.32 59.91 58.22 54.01 49.11 50.53 55.60 52.42 53.43 53.50 53.85
57.24 58.03 58.76 57.63 57.76 57.62 59.48 61.05 61.62 60.66 60.45 60.83 61.26 61.57 61.07 60.08 60.07 59.22 58.53 58.77 55.18 53.95 51.29 50.97 48.89 47.84 47.47 48.35 50.56 51.86 51.85 54.09
57.67 58.29 57.50 57.56 56.94 57.36 59.51 60.52 61.10 60.22 60.27 60.63 59.71 58.25 56.90 56.18 56.08 54.78 53.65 52.88 51.17 50.61 51.27 49.14 48.51 48.43 47.81 47.51 47.73 48.53 49.44 52.18
57.74 57.81 56.27 57.21 57.56 57.77 58.80 60.60 59.88 59.69 60.51 59.61 58.59 56.71 55.70 54.99 54.06 52.87 52.59 51.03 52.30 52.14 49.93 49.04 47.91 48.00 47.80 47.42 46.64 46.67 47.99 50.14
57.76 57.54 57.54 57.77 58.43 59.85 60.40 60.11 59.99 60.12 60.60 59.73 58.37 56.50 55.72 54.76 53.70 53.54 53.27 51.39 53.57 51.68 50.73 49.52 48.56 48.23 47.54 47.55 47.74 48.25 48.18 49.10
57.26 58.05 58.70 58.72 59.01 59.94 59.97 59.53 60.44 60.03 60.53 59.84 58.88 56.93 55.56 55.66 53.85 53.82 53.92 53.55 53.90 51.42 50.52 49.39 48.19 48.32 47.03 46.67 47.25 48.87 48.87 49.76
57.84 58.67 58.00 57.91 58.01 59.43 59.41 59.15 59.91 60.31 60.38 59.76 59.24 57.73 56.88 56.75 55.28 54.85 55.56 54.88 53.96 52.09 50.79 49.08 47.81 47.28 45.92 45.95 45.34 46.16 48.26 48.81
57.83 57.37 56.56 56.46 56.76 56.73 57.67 57.77 58.68 59.50 59.79 59.46 58.72 58.50 58.66 57.45 56.34 56.00 55.63 54.93 53.21 52.41 50.58 49.63 47.72 46.84 46.32 45.16 45.27 45.49 45.17 48.38
57.55 56.40 56.66 56.88 57.18 56.54 56.99 56.49 57.63 58.20 58.38 58.57 59.35 59.54 59.02 57.43 56.42 56.41 55.23 54.04 52.28 51.47 50.58 50.57 49.14 47.73 49.13 47.47 44.87 44.88 44.44 44.25
56.79 56.19 56.54 57.18 55.54 54.74 55.11 54.88 54.40 55.20 56.80 58.30 58.57 58.68 58.80 57.41 57.35 55.77 54.48 53.50 52.86 51.95 50.70 49.91 50.04 47.48 46.53 45.37 45.29 45.31 43.84 43.96
54.26 55.57 55.43 55.62 55.52 54.15 55.94 54.47 54.20 56.50 56.09 58.01 58.82 58.20 58.63 57.72 57.29 56.04 54.13 53.05 52.50 51.86 50.81 49.72 49.75 48.33 45.63 46.95 44.74 45.42 45.06 45.05
53.31 54.90 54.87 55.46 55.92 54.37 54.37 54.78 54.11 54.15 53.97 55.58 58.36 58.58 58.55 58.68 57.54 56.66 55.20 53.78 52.77 51.55 50.47 50.12 48.51 49.41 49.23 47.86 44.37 43.34 43.63 45.44
53.16 53.96 53.59 55.21 56.61 54.98 54.45 54.54 53.84 54.99 54.45 54.84 56.72 59.07 58.93 59.58 58.84 57.33 55.69 54.62 53.18 52.93 52.55 51.29 51.59 50.82 49.83 47.45 45.88 45.34 42.51 41.71
52.63 53.46 54.23 55.68 57.09 56.09 55.92 54.64 55.85 54.81 53.80 54.15 55.73 58.77 59.64 59.79 59.59 58.21 56.62 55.96 55.03 54.77 53.35 52.14 52.50 51.04 49.13 45.43 45.09 45.48 45.61 43.12
52.62 52.97 54.04 55.86 57.40 56.75 56.00 55.47 53.34 53.21 54.62 54.12 54.99 58.32 59.45 59.99 60.08 59.83 58.84 56.18 54.75 54.76 53.63 53.36 52.47 50.96 48.35 46.58 45.94 45.04 44.42 43.72
53.50 54.25 54.39 56.36 57.44 56.99 56.20 55.46 54.02 54.26 54.12 54.98 54.58 57.19 58.48 59.10 59.38 58.20 56.36 56.48 54.32 53.83 53.39 52.86 51.23 50.29 48.94 46.94 46.82 46.15 44.47 43.70
55.03 55.04 55.42 56.73 57.05 57.22 57.62 57.15 56.95 56.00 55.10 55.75 55.72 56.49 58.44 60.07 59.48 57.60 55.52 55.34 53.03 52.14 52.05 49.25 48.55 48.10 47.50 46.09 45.88 45.10 45.04 44.57

GFSFLT2_sfc_wetblb_075.txt.gz
Wetbulb
63.58 63.96 63.89 64.25 64.92 64.70 65.23 65.76 67.09 67.85 68.22 67.95 67.69 67.04 66.63 66.38 65.91 65.13 64.57 63.62 63.31 62.80 63.16 64.07 62.97 61.97 61.46 60.63 59.90 58.55 53.15 54.28
60.81 61.85 61.75 61.23 61.33 65.30 65.92 65.76 65.56 66.11 66.17 67.03 66.37 66.03 65.84 65.58 64.82 64.24 63.44 62.68 62.45 61.92 61.76 62.55 62.98 61.58 60.78 60.09 59.71 57.62 52.39 52.81
60.34 60.26 60.28 59.93 61.13 63.29 63.73 65.02 65.29 65.35 65.77 65.80 64.28 63.79 63.22 61.82 63.33 63.39 62.77 61.85 61.69 60.58 60.19 62.30 62.13 61.17 60.83 59.81 57.26 53.25 53.07 53.18
59.14 59.31 59.29 59.86 60.25 59.26 60.46 62.61 62.96 63.37 63.43 63.08 62.43 61.00 60.91 61.76 62.41 62.57 61.85 61.12 60.94 60.65 58.84 58.37 58.01 57.07 57.44 56.87 52.68 52.58 52.87 53.47
58.41 58.72 59.07 58.67 58.11 58.72 59.49 60.93 61.42 60.96 61.53 61.43 61.02 61.29 61.23 60.31 59.26 58.19 55.62 56.33 51.72 52.50 51.02 49.32 48.25 50.36 50.14 51.13 51.93 52.26 52.46 53.82
57.75 58.29 57.61 56.88 57.69 58.04 59.64 60.71 60.69 60.33 60.74 60.74 59.94 58.90 57.75 56.76 55.93 54.28 51.19 50.01 49.90 50.37 49.16 47.48 47.12 48.22 49.71 49.76 50.58 50.85 52.02 53.88
57.53 57.16 56.29 55.97 57.05 58.32 58.93 60.09 60.68 60.47 60.59 59.81 59.02 57.60 56.19 54.88 53.04 51.26 49.65 50.03 50.72 49.08 47.99 47.68 46.65 46.73 47.20 48.57 48.96 49.88 51.74 53.20
57.83 56.15 56.43 56.86 56.77 58.14 58.37 60.11 59.60 60.49 60.00 58.85 57.80 56.64 55.35 53.47 51.73 50.58 49.57 50.86 51.14 48.89 48.06 47.28 46.76 46.67 45.67 45.91 46.41 47.74 48.94 50.80
57.29 56.29 56.90 57.03 57.05 57.73 59.54 59.64 59.58 59.45 59.20 58.35 56.76 55.70 53.99 52.59 51.53 51.01 50.85 51.61 50.79 49.40 48.54 47.51 46.64 47.07 46.41 46.37 46.96 47.07 46.70 48.24
57.76 58.25 57.38 58.26 58.29 58.95 59.96 59.75 59.42 59.70 59.10 58.09 56.45 55.94 55.19 53.30 52.56 52.33 53.06 52.62 51.18 49.77 48.50 47.30 46.53 45.88 45.10 45.01 46.54 47.56 47.16 47.41
57.40 58.03 57.38 58.23 58.74 58.52 58.58 58.69 59.09 59.77 59.05 58.39 56.68 56.05 56.47 54.69 53.58 53.47 54.04 53.55 52.23 51.13 49.80 48.74 46.49 45.67 45.07 44.07 43.63 45.33 47.14 48.93
57.79 57.69 57.59 57.46 56.93 57.03 57.05 57.07 57.95 59.24 59.10 58.64 57.65 56.11 56.69 55.77 54.55 54.24 54.66 53.47 52.60 51.36 50.06 48.83 47.67 46.66 47.69 45.92 43.99 43.82 43.54 44.78
57.28 56.35 56.37 56.56 55.98 55.23 54.93 54.82 56.20 57.01 58.56 58.33 58.21 57.48 57.00 56.29 55.16 54.41 54.18 53.54 53.07 51.73 49.73 49.24 48.23 46.41 45.01 44.33 44.57 44.82 43.60 42.58
56.59 55.54 56.09 56.39 56.29 56.22 56.37 55.38 55.39 56.12 56.82 57.09 58.24 57.91 57.49 56.83 56.09 55.04 54.53 53.24 51.69 50.07 49.77 49.21 48.57 46.94 44.90 45.38 43.25 44.15 45.00 45.51
55.37 55.04 55.15 56.32 56.04 54.27 55.00 54.94 54.59 53.88 53.46 55.10 56.62 57.60 57.81 57.11 56.51 55.50 53.46 52.68 51.61 50.55 50.20 49.97 48.18 48.45 49.28 47.43 44.59 43.58 44.28 44.44
53.88 54.80 54.73 55.36 55.18 52.98 53.48 52.66 51.93 53.31 53.63 53.86 55.62 57.20 56.92 57.60 56.89 55.68 54.49 53.24 51.72 51.76 51.35 50.36 50.18 48.59 48.57 47.32 46.65 47.09 43.94 42.88
52.91 53.30 54.69 55.47 54.98 53.43 52.92 51.26 52.04 52.56 53.16 53.57 53.34 56.15 57.30 57.54 57.52 55.74 55.40 54.39 54.43 53.63 52.60 50.68 51.56 51.80 49.03 45.45 45.14 45.74 45.77 44.23
52.28 51.85 52.34 53.85 54.43 54.66 52.70 52.68 52.75 52.62 52.32 52.64 52.75 54.33 56.61 57.52 57.71 57.31 56.94 55.97 54.16 53.81 53.55 51.95 51.20 51.04 49.41 47.40 45.12 45.42 44.84 44.64
51.29 51.35 51.74 52.85 53.77 55.03 54.49 54.08 53.32 53.57 53.96 54.10 53.28 53.38 55.34 56.95 57.57 57.51 57.92 57.87 55.81 54.56 54.65 53.42 50.89 50.15 49.35 48.54 48.22 48.04 46.95 46.23
51.21 51.19 51.42 52.46 53.63 54.99 55.84 55.10 55.02 54.91 54.86 55.32 54.58 54.49 55.28 57.31 58.07 58.50 58.61 56.85 55.85 54.93 54.13 53.49 51.73 51.15 49.87 48.46 48.68 47.56 46.63 45.48

GFSFLT2_sfc_wetblb_078.txt.gz
Wetbulb
62.89 64.57 64.20 64.58 64.45 65.58 66.62 67.06 67.31 67.60 68.06 68.10 67.80 67.05 66.36 66.72 66.49 65.63 64.83 65.50 66.42 65.19 63.90 63.13 62.67 61.95 61.47 60.89 60.13 58.59 54.04 55.15
62.73 63.11 60.87 60.57 62.84 65.14 65.13 66.16 66.14 66.49 66.97 66.99 66.33 65.84 65.64 65.14 64.58 64.22 64.06 65.06 65.62 64.38 63.40 62.66 62.25 61.58 60.95 60.52 59.96 57.97 53.59 54.44
60.72 60.48 60.46 59.80 60.78 64.38 65.11 66.37 65.51 65.44 65.47 65.60 64.23 63.61 62.82 61.13 62.30 62.95 62.85 62.78 63.87 64.43 63.10 62.12 61.36 60.98 60.67 59.90 57.06 53.68 54.02 54.49
59.39 59.55 59.58 60.44 60.19 62.45 64.41 64.05 63.97 63.55 63.55 63.28 62.73 61.75 60.54 61.27 61.25 62.15 61.91 61.61 62.51 63.25 63.28 61.56 59.51 57.26 57.35 56.67 53.38 53.56 53.76 54.44
58.65 58.64 59.59 59.07 58.21 61.02 62.25 61.80 62.50 62.20 61.80 61.80 60.51 60.54 60.65 59.82 58.38 57.14 56.58 56.96 56.49 58.74 58.53 54.20 54.73 53.98 52.53 52.49 52.92 53.25 53.54 54.77
58.30 58.73 58.03 57.86 58.52 59.96 61.25 61.27 60.98 60.25 60.97 60.30 60.11 59.31 58.28 57.04 55.36 52.52 49.62 49.60 49.11 49.04 49.45 49.78 51.27 51.52 52.15 52.09 52.05 52.31 52.88 54.70
57.50 57.66 56.97 57.05 56.66 58.74 60.60 60.93 60.57 60.61 60.50 59.82 59.12 57.73 56.20 54.96 52.40 50.80 49.48 50.17 48.87 47.62 47.79 49.28 50.27 50.49 50.66 51.63 51.19 51.87 53.18 54.42
57.02 56.64 56.54 57.07 57.06 58.85 59.72 60.47 60.66 60.73 59.51 58.32 58.01 56.90 55.41 53.54 51.29 50.29 50.42 51.08 48.59 47.68 47.03 47.53 47.88 48.12 48.39 50.08 50.26 51.20 52.59 53.50
56.44 56.30 56.60 56.62 57.54 58.15 59.40 59.87 60.47 60.26 58.82 57.09 56.88 56.08 54.41 52.91 51.20 50.37 50.82 51.53 49.35 47.94 47.17 47.09 45.69 46.22 46.65 47.18 48.21 49.53 50.87 52.32
57.03 57.43 56.70 57.23 57.09 57.84 59.45 59.14 59.56 59.75 58.52 56.86 55.97 55.41 53.95 52.52 51.63 51.05 51.62 51.98 50.15 48.65 47.73 46.51 46.26 45.29 44.63 46.17 46.91 47.43 47.37 49.36
57.16 57.27 56.70 57.64 57.82 59.05 59.18 59.37 59.09 58.82 58.31 57.08 56.01 55.68 54.80 52.94 52.21 51.95 51.96 52.32 50.32 49.46 48.26 47.53 46.12 45.58 44.99 44.59 45.69 47.12 47.06 48.16
57.99 57.32 57.36 58.32 58.13 58.22 58.43 58.49 58.90 59.01 58.12 57.15 56.03 55.06 55.04 53.25 53.00 52.65 52.68 52.24 50.90 50.32 49.53 49.14 47.53 46.22 46.92 45.45 44.28 44.28 44.72 46.23
57.58 56.86 57.28 57.38 56.86 56.48 56.68 56.78 57.65 58.33 58.23 57.67 55.93 56.01 56.01 54.54 53.74 52.74 53.48 52.67 51.63 50.41 49.98 49.29 47.47 46.63 45.39 44.86 44.95 45.02 44.19 43.12
56.91 56.72 56.70 56.83 56.66 57.51 57.16 55.64 56.70 58.19 58.28 57.77 57.51 55.89 55.44 55.17 54.23 53.50 53.95 52.64 51.69 50.70 49.94 48.14 48.08 46.68 44.92 44.42 42.64 44.78 45.26 45.48
56.31 56.10 56.24 56.73 56.97 56.36 55.54 55.55 55.85 55.23 55.01 56.02 56.36 56.96 56.08 55.87 55.27 54.44 53.87 53.08 52.28 50.25 49.60 49.22 47.69 47.09 46.95 45.99 43.26 42.41 43.89 46.00
56.49 55.95 55.72 56.55 56.59 55.95 54.28 54.65 54.42 55.36 54.26 55.27 55.81 56.82 57.00 56.82 56.46 55.60 54.48 53.31 51.49 51.37 50.81 49.55 49.24 47.43 47.77 48.02 47.20 47.77 44.72 44.24
54.00 54.80 54.68 55.77 55.00 55.49 53.66 52.57 53.31 53.83 53.80 53.99 54.18 55.85 56.74 57.10 56.66 55.15 54.01 53.39 52.96 51.61 50.51 49.65 50.37 49.46 47.50 44.88 44.97 46.20 46.61 45.34
52.17 53.27 53.89 54.87 54.64 52.84 53.00 51.49 51.94 51.50 52.14 53.10 53.64 53.72 55.57 55.96 56.56 56.14 55.39 54.63 53.19 52.99 52.00 50.51 50.33 49.85 48.26 47.40 47.47 46.33 45.56 45.10
51.60 52.07 52.66 53.93 54.28 54.07 52.48 52.60 51.93 52.02 51.84 52.70 51.66 52.51 52.56 55.03 55.45 54.70 55.53 55.53 54.93 54.22 52.80 52.28 51.08 51.62 50.94 50.33 49.15 48.81 48.59 47.11
51.74 51.40 51.84 52.03 53.09 53.59 54.19 52.48 53.11 53.17 52.46 52.41 52.23 52.34 52.65 54.20 55.39 56.16 56.54 56.48 55.89 55.07 55.05 54.35 53.66 52.70 52.21 51.35 50.09 49.70 48.32 47.58

GFSFLT2_sfc_wetblb_081.txt.gz
Wetbulb
66.10 66.24 66.45 66.94 66.21 66.49 65.65 66.36 66.91 67.02 67.86 68.00 67.95 67.61 67.57 67.81 66.91 66.36 66.48 67.03 66.35 65.19 64.10 63.47 62.96 62.10 61.43 61.18 60.40 61.39 61.16 61.14
63.98 63.99 63.41 63.52 65.74 64.62 66.22 66.23 65.72 66.44 67.05 66.80 66.16 66.44 66.94 66.18 65.20 66.00 66.52 66.58 65.52 64.55 63.57 63.13 62.59 61.98 61.23 60.79 60.36 60.66 61.02 61.02
63.34 62.11 61.62 62.32 63.92 64.92 65.50 66.48 66.05 66.07 66.66 65.90 64.61 65.80 65.47 64.12 63.94 65.60 66.41 65.44 64.40 63.85 63.16 62.42 61.83 61.31 61.03 60.25 60.02 60.24 60.55 60.80
60.23 61.54 60.98 61.45 62.55 65.01 66.44 64.88 65.31 65.03 65.92 64.13 63.69 63.78 63.35 62.09 63.07 64.67 65.38 64.38 63.79 63.29 62.55 61.72 60.66 60.10 60.00 58.92 59.44 60.00 60.22 60.32
59.38 59.91 60.93 61.00 62.55 63.91 64.75 64.98 64.47 63.96 63.22 62.83 61.92 61.66 62.17 61.85 60.77 61.61 63.76 64.28 63.13 62.30 61.40 60.10 59.78 59.17 58.57 58.93 59.35 59.63 60.04 60.00
59.11 59.18 58.56 59.36 61.23 61.96 62.30 64.23 62.80 62.35 62.23 61.61 61.32 61.17 60.17 60.39 57.27 57.69 59.16 61.85 63.01 61.67 59.99 59.82 59.08 58.25 58.21 58.50 59.07 59.21 59.57 59.80
58.15 58.51 58.25 59.40 59.40 60.83 61.61 61.44 61.66 61.19 61.13 62.35 60.93 58.58 57.12 56.51 55.12 54.83 54.99 56.71 59.02 58.34 57.97 57.85 57.81 57.62 57.91 57.97 58.32 58.98 59.48 59.39
57.77 57.46 57.96 58.85 59.10 60.34 60.43 60.25 60.35 60.58 60.69 61.26 60.16 57.51 55.59 54.30 53.53 53.86 53.95 55.56 55.60 55.61 57.10 57.71 57.42 57.45 56.96 57.42 57.74 58.31 58.96 59.24
56.88 56.90 57.92 58.76 58.77 60.00 60.39 60.23 60.36 59.71 59.46 59.59 59.85 57.47 55.63 54.37 53.97 53.37 53.86 54.27 53.38 54.43 55.24 56.61 56.30 56.58 56.33 56.89 57.34 58.18 58.45 58.49
57.10 57.22 57.21 58.55 58.14 59.67 60.04 60.46 60.60 59.86 59.44 59.20 58.92 57.96 55.63 55.40 54.63 55.44 55.45 54.11 53.69 52.86 53.27 54.48 54.28 54.43 54.48 54.80 55.52 56.69 57.69 58.07
56.73 57.02 57.26 58.18 58.18 59.87 59.96 59.46 59.80 59.24 59.20 58.30 58.20 57.39 57.03 55.40 55.70 55.95 56.33 53.97 54.10 53.15 52.68 52.74 51.86 52.00 52.00 52.33 52.85 53.93 55.08 56.03
57.39 56.75 57.57 58.31 59.13 59.38 59.35 59.30 59.12 59.54 59.23 58.59 58.03 57.54 56.96 56.37 55.94 54.85 54.88 53.94 54.90 54.23 53.60 53.49 52.82 51.97 50.25 50.81 51.83 52.97 53.34 52.96
57.33 56.44 57.01 58.03 57.48 57.78 57.78 57.40 58.50 58.57 58.88 58.26 58.60 58.15 57.30 56.89 57.08 56.23 55.82 56.19 56.07 55.94 54.69 53.64 51.94 52.27 51.09 51.36 51.37 51.90 52.16 52.76
57.64 57.02 57.17 57.56 57.70 58.06 58.13 57.80 58.62 58.51 58.70 58.03 58.41 58.94 57.88 57.43 57.55 56.56 56.87 56.84 56.92 55.79 55.18 53.82 54.65 53.44 52.51 52.51 51.12 52.00 51.93 52.39
57.36 57.18 57.37 57.43 58.23 57.58 57.24 57.32 57.38 57.12 57.28 57.01 58.89 58.69 58.55 58.38 58.23 57.88 57.74 57.89 57.09 56.71 56.16 55.86 54.53 53.74 54.33 54.99 51.19 50.94 52.19 53.34
57.64 57.52 57.23 57.47 57.70 57.22 56.37 55.84 55.26 56.69 56.52 57.11 58.25 59.64 58.67 58.61 58.66 58.51 58.48 58.36 57.95 57.62 56.99 56.81 56.34 54.34 52.88 53.51 54.45 54.40 52.21 51.88
57.07 57.48 57.47 57.47 57.42 57.32 56.60 56.32 57.06 57.69 57.43 58.34 59.33 59.90 59.45 58.69 59.19 59.38 59.26 58.85 58.79 58.58 57.60 56.35 57.01 56.76 55.02 53.67 52.99 53.10 52.84 52.41
56.36 56.41 57.59 58.12 57.67 58.05 56.72 57.44 57.67 56.71 56.65 58.14 58.83 59.63 59.92 60.63 60.08 59.72 60.03 59.78 59.13 58.83 58.83 57.96 57.30 56.86 56.80 55.02 54.56 52.66 50.65 50.57
54.84 55.35 56.15 57.68 57.05 56.79 57.65 57.54 58.05 57.85 58.29 58.69 58.69 58.56 58.69 59.80 60.28 60.51 60.23 60.40 60.15 60.17 59.33 58.28 58.03 57.45 57.21 56.41 54.66 51.94 52.66 50.92
53.90 55.39 56.20 56.97 57.18 56.33 56.36 57.64 57.19 57.26 57.48 58.11 57.91 58.86 58.82 59.56 59.78 60.40 60.21 60.49 60.36 60.30 60.49 59.81 59.36 58.57 57.66 56.93 55.70 51.35 51.67 51.74

GFSFLT2_sfc_wetblb_084.txt.gz
Wetbulb
66.70 67.88 67.76 65.58 67.00 66.27 66.72 67.48 67.84 67.73 67.64 67.81 68.35 68.48 68.11 68.38 68.40 68.17 67.99 66.77 65.83 64.90 64.32 63.82 63.09 62.51 61.82 61.87 61.74 62.99 63.13 63.06
66.05 66.55 67.72 67.16 67.31 66.27 65.52 66.56 66.40 67.01 67.24 67.03 67.02 66.95 67.25 67.14 66.96 67.50 67.15 66.42 65.24 64.41 63.68 63.24 62.52 62.11 61.39 61.20 61.36 62.21 62.92 62.71
65.30 65.16 66.02 65.27 66.43 66.16 65.85 66.01 66.30 65.92 65.91 66.38 65.34 65.78 67.25 66.06 66.02 66.39 66.23 65.41 64.49 64.05 63.42 62.57 61.96 61.59 61.33 60.94 60.86 62.54 62.82 62.42
62.84 62.90 63.12 64.90 65.84 65.44 65.32 66.88 65.70 65.50 64.99 66.02 64.72 64.83 65.09 65.85 65.62 65.54 65.42 64.34 63.73 63.44 62.88 61.94 61.20 61.16 61.21 60.41 61.87 62.28 62.61 62.25
60.95 61.14 62.03 61.94 62.74 65.17 66.00 68.95 67.01 65.83 64.31 64.43 65.12 64.03 64.02 65.68 66.23 65.99 64.66 63.03 62.56 62.44 61.57 61.41 61.25 60.67 60.32 60.92 61.66 61.87 62.22 62.00
60.74 60.49 60.70 60.86 63.38 64.10 65.51 66.64 66.43 66.28 62.67 63.37 62.49 61.43 61.22 63.53 65.03 64.49 63.85 63.29 62.33 62.01 61.53 62.36 61.58 60.95 60.70 60.81 61.08 61.39 61.73 61.79
60.65 60.47 59.45 59.84 60.99 64.65 64.34 65.57 64.24 63.14 61.74 62.07 61.15 60.15 58.98 60.72 63.56 64.22 63.57 63.50 62.80 62.36 62.59 61.66 60.69 59.91 60.29 60.70 60.32 60.75 61.32 61.25
60.07 59.76 59.59 61.79 61.54 61.59 61.41 62.68 61.92 60.83 60.76 60.36 60.29 59.97 58.57 58.52 60.34 60.19 62.87 63.73 63.23 62.32 61.75 60.42 59.41 59.40 59.53 60.11 60.20 60.52 60.99 61.44
59.56 59.21 59.47 60.40 61.85 60.92 60.58 60.88 60.64 59.77 59.38 58.68 58.83 59.27 59.49 59.18 57.36 57.84 58.70 60.42 61.28 61.21 61.27 59.67 59.53 58.97 58.53 59.29 60.02 60.43 60.47 60.90
59.52 58.90 58.83 60.38 59.95 60.55 60.28 60.15 59.51 59.13 58.68 58.35 59.20 59.36 58.70 58.08 57.12 56.44 57.80 58.41 58.17 58.72 58.63 58.91 58.66 58.14 57.94 58.44 58.94 59.76 60.23 60.36
58.72 58.68 58.54 59.73 60.03 60.05 59.83 60.20 59.59 59.44 58.99 58.89 58.93 58.03 57.69 56.75 57.21 56.93 57.17 55.93 56.78 57.35 57.96 58.28 56.59 56.99 57.16 57.57 58.03 58.75 59.68 59.34
58.79 57.95 57.87 59.53 60.13 59.69 59.77 59.29 59.18 59.34 59.16 58.12 57.53 57.19 57.12 58.61 58.56 58.05 57.97 56.42 56.80 56.54 56.92 56.83 56.42 55.96 54.23 55.08 56.53 57.58 58.32 58.77
57.45 56.60 58.45 59.95 58.63 57.87 57.99 56.92 58.01 58.58 58.22 58.41 58.34 57.85 57.73 58.69 58.83 58.96 58.53 57.38 58.56 59.04 58.06 56.83 55.51 56.31 54.28 54.80 54.13 56.34 56.35 56.22
57.29 56.71 57.23 58.07 59.37 59.17 58.63 58.25 58.51 58.29 58.52 58.53 58.39 58.05 56.73 58.54 59.30 58.99 58.57 58.09 58.80 58.75 58.96 57.31 57.44 56.49 54.69 55.82 53.78 54.54 55.31 56.03
57.40 57.34 56.90 58.13 58.98 58.72 58.41 58.08 58.68 57.78 58.49 57.47 58.34 59.59 58.65 58.71 59.28 59.73 59.40 60.95 59.74 59.98 59.27 59.00 56.85 57.64 57.58 57.21 54.95 54.24 56.95 57.58
58.63 58.11 57.80 58.11 59.01 57.86 56.98 55.32 54.89 57.43 58.22 58.17 58.42 60.33 60.02 59.42 60.31 60.69 61.08 60.84 60.56 60.67 60.25 60.21 59.45 57.51 57.53 57.57 59.34 59.24 55.61 54.31
58.94 58.64 58.14 58.01 58.44 57.90 57.41 56.14 56.87 58.90 57.31 56.52 56.65 60.15 60.97 60.30 61.03 61.09 61.03 60.95 61.15 61.29 60.86 60.28 60.05 59.32 59.40 59.20 57.61 57.77 58.12 56.08
58.79 57.97 57.96 57.82 58.03 58.41 58.01 57.31 56.72 56.47 55.76 55.03 55.74 59.53 60.69 61.81 61.09 61.33 61.39 61.09 61.23 61.68 61.99 61.41 60.73 60.68 60.36 59.88 58.65 57.35 56.94 56.46
57.60 57.75 57.49 57.88 57.86 58.13 58.86 58.21 57.28 56.67 57.57 56.17 55.66 58.90 59.10 60.95 61.74 60.85 61.24 61.69 61.88 62.52 62.42 62.47 62.00 61.01 60.98 60.14 60.71 59.79 60.08 57.01
57.03 56.97 56.80 58.26 58.27 58.92 59.88 60.40 59.35 58.41 57.46 56.63 59.49 60.07 60.79 61.50 62.25 62.61 63.02 63.03 62.98 63.27 63.10 62.84 62.73 62.19 61.76 61.51 61.22 61.24 59.29 57.45

GFSFLT2_sfc_wetblb_087.txt.gz
Wetbulb
70.19 70.62 68.52 65.65 67.56 67.19 67.07 66.69 66.87 67.36 66.54 66.87 66.87 67.72 67.54 67.80 68.18 67.95 67.63 66.90 66.27 65.44 65.17 64.58 64.20 63.43 62.97 62.41 61.53 63.17 63.44 62.78
68.48 69.79 69.44 68.41 69.06 65.77 65.65 65.98 65.69 65.79 66.58 65.99 65.63 66.55 67.06 67.30 67.48 67.37 67.03 66.26 65.56 64.55 64.27 63.86 63.38 62.70 62.11 61.41 61.34 62.45 62.93 62.42
67.45 68.19 68.15 67.86 68.25 67.91 65.87 65.78 65.83 65.75 65.79 64.76 61.61 66.05 66.81 67.58 66.79 66.15 65.85 65.15 64.51 64.07 63.40 62.75 62.24 61.83 61.50 61.24 61.89 62.82 62.60 62.13
66.03 66.27 67.04 67.64 66.83 67.50 67.32 67.28 66.76 67.08 65.67 65.50 65.05 65.19 66.25 67.07 66.55 65.19 64.87 64.26 63.95 63.38 62.59 61.91 61.00 60.64 60.84 60.68 62.54 62.95 62.48 61.71
64.52 63.80 63.51 66.49 66.69 66.30 66.19 67.07 66.70 65.94 65.50 64.94 64.47 64.70 64.81 66.86 66.05 65.28 64.38 63.05 62.10 61.59 60.58 59.72 60.19 60.04 60.62 62.14 62.54 62.92 62.20 61.54
63.33 62.56 61.48 62.21 62.76 64.28 66.68 67.19 67.10 65.24 64.28 64.01 63.92 63.59 63.32 65.54 65.25 64.04 62.73 61.91 61.42 59.98 60.48 62.48 61.36 60.20 60.68 61.65 62.12 62.15 61.94 61.22
61.95 62.69 61.29 61.49 62.07 63.80 64.21 66.02 66.98 65.00 64.39 63.85 63.79 62.93 62.68 63.05 63.89 63.96 62.10 62.76 62.07 60.88 62.20 61.15 60.92 60.65 61.04 61.01 61.17 61.91 62.02 60.93
61.48 61.98 61.87 61.74 60.80 61.43 64.23 64.97 65.74 64.67 63.73 63.00 62.34 61.08 61.86 62.42 62.94 62.63 63.58 63.13 62.86 62.40 61.94 60.80 59.97 60.15 60.45 60.97 60.79 61.41 61.66 61.27
61.40 61.71 61.26 61.32 62.35 61.81 62.37 63.76 62.74 62.06 60.33 60.15 60.05 59.90 60.03 60.55 61.98 62.64 63.63 63.90 63.95 62.87 61.34 60.68 59.12 59.22 59.62 60.06 60.37 60.93 61.25 61.33
60.78 60.41 60.10 60.94 61.15 60.98 60.86 60.62 60.25 59.69 59.60 59.19 59.09 58.27 58.15 58.35 60.10 61.92 63.61 63.52 62.51 61.02 59.82 58.51 59.10 58.48 58.73 59.33 59.94 60.51 60.89 61.48
60.17 59.37 59.06 60.08 60.66 60.36 59.27 58.99 58.54 58.21 57.93 57.80 57.46 57.89 57.62 57.56 59.09 59.34 60.68 60.59 60.36 60.38 59.88 59.22 58.17 58.08 57.90 58.59 59.51 59.91 60.24 60.34
60.27 59.13 58.79 60.17 59.95 59.55 58.50 57.83 57.97 57.58 57.23 57.11 57.21 57.31 57.91 58.07 57.82 57.29 57.26 56.84 58.37 58.52 58.80 59.91 59.19 58.09 56.54 57.28 58.58 59.35 60.19 59.92
59.32 58.24 58.39 59.66 58.46 57.40 56.86 56.38 57.06 56.82 56.57 57.42 57.47 58.55 58.07 57.78 56.79 57.39 56.64 56.60 57.30 59.11 59.37 58.57 57.08 58.38 55.63 55.72 56.59 58.00 58.47 58.94
58.59 58.47 58.54 58.93 58.94 57.95 57.21 56.55 56.71 56.80 56.97 57.71 58.39 57.68 57.55 59.22 59.51 58.29 58.66 57.97 58.02 58.76 59.38 57.50 56.73 58.24 55.11 55.81 53.39 54.35 56.45 57.36
58.55 58.57 59.15 59.88 59.57 58.84 57.59 57.41 57.46 56.92 56.39 55.77 57.36 57.48 57.34 58.73 61.28 59.51 59.82 59.21 58.87 60.34 60.78 59.12 57.11 57.84 58.84 57.67 54.97 54.09 56.68 57.59
60.69 59.41 58.62 59.54 59.87 58.11 56.36 54.63 53.99 55.66 55.37 55.93 57.53 58.99 57.82 56.82 58.48 59.99 59.14 59.83 60.29 60.51 61.42 61.58 60.94 57.67 58.40 58.15 59.78 58.95 55.37 54.71
60.29 59.51 58.45 58.75 59.58 58.42 57.23 55.01 54.97 55.58 55.73 56.25 58.25 59.39 59.74 58.86 58.35 60.32 61.98 61.81 62.02 62.56 62.35 60.99 60.87 59.92 58.97 58.53 58.31 58.11 59.36 55.76
59.86 58.94 58.18 58.60 58.50 58.29 57.36 56.25 55.44 55.69 55.33 55.64 57.14 57.62 58.13 58.65 59.78 61.85 61.96 62.32 62.37 62.93 62.97 61.91 61.84 61.76 60.67 61.02 59.23 57.44 56.44 56.47
58.98 58.43 57.57 58.05 58.26 58.65 58.05 57.19 56.38 57.18 55.78 55.82 54.70 55.49 56.44 58.16 60.25 62.31 61.90 62.66 62.51 62.60 62.65 62.38 62.60 61.59 61.98 60.91 61.47 60.44 60.35 60.00
58.15 57.97 57.96 58.41 58.08 58.66 59.20 58.58 56.80 57.51 57.96 56.46 54.98 55.35 56.71 59.30 62.06 62.14 62.28 62.59 62.47 63.18 62.93 63.21 63.56 63.23 63.06 62.42 61.70 61.62 61.61 60.90

GFSFLT2_sfc_wetblb_090.txt.gz
Wetbulb
70.11 69.49 68.13 67.74 68.35 67.85 66.64 67.17 65.33 65.73 65.20 63.54 64.01 66.51 67.04 67.69 67.47 68.47 68.29 67.63 67.01 65.84 65.36 64.89 64.84 64.06 62.83 61.84 62.00 63.29 60.48 60.19
68.90 69.19 68.08 67.79 67.33 67.17 66.75 66.47 66.04 65.30 65.34 64.75 64.34 66.02 66.20 66.96 66.95 67.21 67.08 66.73 66.11 65.18 64.84 64.44 63.84 63.02 61.61 61.69 61.50 62.86 59.91 59.37
67.17 66.28 68.17 67.72 67.76 66.07 66.24 66.93 66.29 66.00 66.04 65.29 64.39 64.44 64.82 65.88 65.73 65.71 66.05 65.39 64.99 64.29 64.01 63.21 62.36 61.72 61.29 61.63 61.68 59.39 59.27 59.40
65.85 65.79 66.54 67.23 67.24 65.93 65.78 66.16 66.00 65.26 64.86 63.80 63.96 63.96 64.85 65.40 65.05 65.15 65.17 64.47 64.07 63.74 62.75 61.99 60.95 58.14 58.34 60.00 58.25 60.19 59.37 58.64
64.69 64.00 64.60 66.05 66.15 66.02 66.00 66.02 64.94 64.91 64.35 64.02 63.27 64.24 64.17 63.95 64.16 63.45 62.73 63.17 61.38 61.18 59.96 58.23 57.06 57.15 58.04 57.98 58.90 60.17 59.02 58.30
63.84 62.80 62.69 63.78 64.68 64.84 65.28 64.87 64.97 64.17 64.09 64.17 62.94 63.97 63.82 63.88 62.87 61.95 60.52 60.02 58.93 57.91 57.10 57.38 56.88 57.88 58.29 59.50 58.89 59.70 58.57 58.35
62.21 62.17 61.59 62.14 62.87 64.10 63.50 64.31 65.09 64.23 64.15 63.96 63.43 63.39 62.87 63.31 62.49 59.99 59.24 58.70 57.20 56.42 57.91 57.59 57.17 56.78 58.25 58.46 58.49 59.24 58.39 58.38
61.93 61.82 61.89 61.50 61.62 62.20 63.53 63.76 64.39 64.66 63.75 63.44 63.24 62.94 62.84 62.42 61.75 59.16 59.36 59.34 57.38 57.99 58.10 57.81 57.24 57.10 57.52 58.00 58.33 58.73 58.18 58.13
61.43 60.79 61.12 62.08 61.47 61.99 62.49 63.85 63.88 63.50 63.78 63.36 63.20 63.10 62.95 62.16 60.92 59.21 59.42 60.31 58.47 59.83 58.68 58.07 57.24 57.62 56.97 57.40 57.79 58.47 58.32 58.09
61.14 60.80 60.13 61.75 61.35 62.04 62.51 62.49 62.92 61.07 60.79 62.92 62.37 62.12 61.72 61.47 60.66 60.86 60.26 60.53 60.23 58.72 57.16 56.13 55.80 56.03 55.70 55.75 56.63 57.49 58.48 57.86
59.84 59.89 59.49 60.49 60.80 60.29 59.71 59.25 59.48 59.94 59.50 59.42 60.10 60.14 59.92 60.53 60.18 60.58 60.99 60.34 59.23 58.29 57.03 56.56 54.74 54.97 55.72 55.79 56.76 56.77 57.26 58.73
59.23 58.86 60.02 60.37 59.10 58.11 57.95 57.63 57.57 57.79 57.88 57.71 57.85 57.36 57.54 57.78 57.85 58.05 58.25 58.33 58.10 57.12 56.18 57.11 55.46 54.46 55.82 55.66 56.08 56.65 56.79 56.20
58.13 58.02 59.38 59.12 57.46 56.18 55.57 54.92 55.51 55.98 56.30 56.53 56.44 56.42 56.56 56.39 56.48 56.06 55.87 55.46 55.95 56.18 56.37 55.78 54.26 56.02 53.24 53.67 53.71 55.42 55.94 55.89
58.21 58.40 59.09 58.80 57.99 56.97 56.13 55.30 54.93 55.13 55.71 55.82 55.73 56.12 56.30 56.16 55.60 54.82 54.38 54.22 54.76 55.76 55.53 54.05 54.08 54.41 51.81 51.79 48.71 50.73 52.78 54.40
58.10 57.75 58.88 58.72 58.11 56.97 56.49 55.42 54.68 53.72 53.99 54.70 55.48 56.05 56.37 56.19 55.25 54.88 54.80 54.62 54.78 55.47 56.24 53.75 52.03 53.85 55.11 53.25 51.31 49.65 49.96 52.66
58.30 58.67 58.73 58.87 57.95 56.11 54.81 53.12 51.71 53.18 53.35 54.22 55.57 56.34 55.83 56.03 55.59 56.43 55.54 56.11 56.43 56.73 58.29 56.05 55.74 52.93 53.86 56.11 55.42 55.32 52.56 50.71
58.14 58.56 58.67 58.82 57.77 56.71 54.59 53.34 54.11 54.80 54.54 54.07 54.05 54.91 55.66 56.21 58.29 57.91 57.52 57.41 57.61 57.41 57.98 58.74 57.74 56.90 54.67 53.91 53.83 53.92 54.66 52.48
58.14 57.60 57.91 58.83 58.38 56.92 55.31 53.98 54.07 54.05 53.11 53.20 54.43 54.96 56.28 56.16 57.27 57.38 57.88 57.77 58.27 58.91 58.77 58.51 58.03 57.47 57.30 56.52 55.31 53.71 53.00 52.34
58.23 57.79 56.63 57.99 58.26 57.73 55.74 54.70 54.35 54.24 53.28 53.20 53.73 54.62 56.16 57.18 57.36 56.62 57.65 58.80 59.27 59.94 58.80 58.74 58.25 57.44 57.33 56.59 56.99 56.36 56.21 54.82
57.77 57.85 57.09 57.79 58.12 57.92 57.42 56.00 55.18 55.16 54.43 54.55 54.78 54.97 55.66 57.06 57.63 58.04 58.16 59.08 59.46 59.14 58.89 58.93 58.90 58.49 57.95 57.92 57.42 57.25 56.87 56.04

GFSFLT2_sfc_wetblb_093.txt.gz
Wetbulb
66.46 67.49 68.56 68.81 68.98 68.34 67.56 67.67 67.04 66.57 66.28 65.10 63.81 64.51 66.40 67.69 68.20 68.40 68.60 67.96 67.44 66.97 66.35 66.22 65.63 64.91 63.51 62.16 62.43 62.01 58.79 58.65
65.35 65.79 66.64 65.48 66.08 66.87 66.44 66.20 65.86 65.57 65.57 64.66 63.61 64.07 65.79 66.84 66.73 67.63 67.82 67.35 66.85 66.20 65.41 65.12 64.62 63.32 62.19 61.70 62.22 61.87 58.61 58.44
63.95 66.42 66.89 66.35 65.16 66.62 66.53 66.58 65.57 65.62 65.15 64.73 63.61 63.66 65.57 65.60 66.13 66.72 66.79 66.39 65.75 65.39 64.66 63.65 62.86 61.98 61.88 61.66 61.02 58.95 58.76 58.34
62.19 64.65 66.35 66.42 66.32 63.36 63.75 65.29 64.84 63.93 64.27 63.67 63.42 63.50 63.73 65.41 65.77 65.51 65.51 65.44 64.84 64.36 63.54 62.58 60.19 56.24 57.25 59.36 58.68 58.48 58.13 58.10
61.80 61.82 62.73 65.22 65.04 64.61 63.15 63.73 63.81 63.72 63.93 63.62 62.75 63.32 64.07 64.09 64.51 63.89 63.15 63.43 61.72 60.95 60.41 57.88 56.61 55.82 56.09 56.64 58.21 57.80 57.65 58.14
60.67 60.62 61.93 62.85 64.86 64.59 64.36 63.53 63.22 63.65 63.55 62.56 61.76 63.15 62.40 63.38 62.62 61.77 60.96 60.22 58.34 58.16 55.97 54.88 54.57 56.20 56.62 57.03 57.82 56.92 57.23 57.50
59.38 60.31 60.82 61.50 62.27 63.32 63.59 62.91 63.37 63.37 63.53 62.33 63.45 62.94 62.36 62.54 61.46 60.52 59.10 58.80 57.16 55.59 54.37 54.73 54.30 56.18 56.20 57.48 57.47 56.86 56.99 57.65
59.33 59.54 60.03 60.47 58.82 59.82 60.47 62.31 63.58 63.62 63.46 62.52 62.80 63.35 63.02 61.86 59.60 58.39 57.62 56.66 55.60 55.78 55.10 54.28 54.66 55.08 55.95 57.62 57.53 56.98 57.25 57.33
59.09 59.33 61.12 60.37 58.70 58.98 59.64 61.03 62.94 63.60 63.20 63.29 62.72 63.37 63.01 60.70 58.51 57.82 56.90 55.13 55.28 55.91 55.62 54.78 53.87 56.16 55.94 56.63 57.35 56.96 57.00 56.95
58.90 59.76 59.92 60.89 59.59 59.64 59.45 61.34 62.74 63.81 63.17 63.23 62.72 62.88 62.88 60.05 58.05 57.52 58.14 54.82 56.86 57.19 56.43 54.94 54.23 54.62 53.90 54.30 56.72 56.72 56.58 56.51
57.46 57.79 58.99 59.89 60.34 59.43 58.99 60.57 61.36 61.02 62.50 62.91 62.60 62.85 62.75 60.53 58.77 58.14 59.23 55.91 58.12 57.19 54.59 55.39 54.49 54.51 54.50 54.18 54.47 56.50 56.35 56.97
57.48 57.65 59.57 59.42 58.88 58.40 58.22 57.88 58.28 59.31 60.35 61.37 62.47 62.49 62.17 60.70 60.20 58.64 58.67 58.12 56.62 56.12 55.19 54.67 54.91 54.68 56.14 54.78 54.35 55.88 56.52 56.15
56.63 56.85 58.86 58.10 57.04 56.13 55.77 55.09 55.59 56.17 58.10 58.94 60.20 61.28 60.66 59.88 59.00 58.23 58.77 57.37 55.79 55.33 54.98 54.05 53.15 53.34 52.21 51.97 52.96 54.06 53.81 54.49
56.39 57.22 58.69 57.73 57.11 56.71 55.90 55.12 55.32 55.38 56.08 56.26 57.07 58.28 58.89 58.06 57.13 56.14 56.72 56.07 54.46 54.16 54.82 52.73 52.51 53.39 51.10 49.95 47.24 49.31 51.44 53.33
56.35 57.56 58.59 57.87 57.48 56.15 55.20 54.73 54.42 53.60 53.38 53.92 55.60 56.83 57.68 57.01 55.67 54.46 54.29 54.24 53.65 53.50 53.74 52.59 51.32 51.27 52.96 50.45 47.53 46.16 47.96 50.31
56.80 57.73 58.39 57.69 56.87 55.26 53.43 52.57 51.77 53.18 53.14 53.66 54.66 56.02 55.86 55.58 55.03 54.49 54.17 53.59 52.79 53.82 55.21 53.07 51.39 49.98 51.22 55.31 54.44 53.94 48.62 48.32
56.25 57.72 58.05 57.21 56.32 55.29 53.53 52.21 52.41 53.42 53.50 52.98 53.86 54.91 55.65 55.15 54.97 54.69 54.51 54.28 54.02 54.38 55.01 54.19 53.84 52.37 51.70 51.83 52.16 52.87 53.22 50.99
56.46 57.32 57.58 56.94 56.04 55.05 52.58 51.63 52.20 51.87 52.22 52.66 52.93 54.09 54.30 54.53 54.68 54.51 54.31 54.82 55.99 55.92 56.28 56.00 55.87 55.33 55.26 54.60 52.78 51.16 50.84 50.76
56.12 56.89 57.30 57.12 55.92 54.67 53.84 53.82 53.43 52.62 52.29 53.08 52.30 52.52 53.45 54.32 54.59 55.23 55.83 56.21 57.35 56.58 56.72 57.26 56.95 56.31 56.34 55.39 55.71 54.28 54.08 52.74
55.76 56.35 57.11 57.18 56.23 55.16 54.32 54.77 54.51 53.63 52.95 53.47 53.24 52.76 52.94 54.42 55.29 56.52 56.63 56.54 57.13 57.34 57.47 57.45 57.16 56.77 56.70 56.40 55.92 55.47 55.14 54.80

GFSFLT2_sfc_wetblb_096.txt.gz
Wetbulb
66.45 67.47 69.56 69.48 69.03 68.92 69.36 68.86 67.21 67.01 66.59 66.12 66.36 65.35 64.81 64.52 65.98 67.24 68.14 68.07 67.99 67.77 67.31 66.84 66.06 65.00 64.00 63.08 62.32 62.16 59.55 60.48
64.65 64.62 65.35 65.92 67.35 67.42 67.71 67.65 66.80 66.77 66.62 66.04 65.19 65.02 65.57 65.12 66.72 66.13 67.48 67.84 67.48 67.00 66.32 65.77 64.43 63.49 63.14 62.32 61.71 61.62 59.00 59.26
63.68 64.18 64.60 64.34 64.92 66.84 66.84 66.62 65.97 65.72 65.70 64.51 63.50 61.90 64.21 64.81 65.57 66.57 66.61 66.61 66.57 66.07 65.52 64.57 63.15 62.68 62.58 61.82 60.71 58.56 58.16 58.86
61.72 63.77 64.44 64.04 65.83 65.73 65.42 65.34 64.23 63.01 62.86 62.66 61.07 62.93 63.32 65.18 65.50 65.99 66.01 65.67 65.57 65.28 64.61 63.47 60.52 58.26 60.49 60.91 58.37 58.36 57.87 57.51
61.15 62.25 63.64 63.72 62.94 62.74 63.50 65.00 62.65 62.24 62.26 61.94 61.29 62.54 64.21 64.58 64.69 64.75 64.14 64.46 62.72 62.31 61.70 58.03 55.50 55.96 57.09 57.64 57.59 57.53 57.45 57.56
60.49 60.33 60.84 62.17 63.08 63.40 63.94 63.96 63.70 63.15 63.07 62.78 61.93 62.56 62.35 63.19 63.91 63.62 63.07 61.80 59.64 58.17 56.18 55.14 54.68 56.24 57.36 56.99 56.51 57.03 57.30 57.48
58.99 59.27 59.72 60.61 62.18 62.10 63.06 62.62 63.46 63.26 63.31 62.58 62.55 62.20 62.10 63.34 62.68 61.94 60.71 59.79 58.07 54.79 53.57 54.01 53.64 55.02 57.10 56.44 56.07 56.59 56.91 57.75
58.54 58.45 59.17 60.34 59.63 60.63 62.02 62.50 62.20 63.40 63.12 62.14 63.19 62.62 61.93 61.49 61.29 59.91 59.21 58.36 57.01 55.34 53.25 52.81 53.48 54.41 56.37 56.13 55.90 56.82 57.27 56.90
58.31 58.08 58.65 59.35 57.94 59.77 61.56 62.16 63.18 63.13 62.76 61.62 63.19 62.71 61.84 60.48 59.26 58.41 57.48 56.33 54.54 53.60 52.68 53.17 52.66 55.13 56.00 55.90 55.94 56.78 56.82 56.84
58.91 60.03 58.64 58.06 57.24 57.66 58.81 60.15 63.17 63.14 63.01 62.01 63.08 62.94 62.13 59.50 58.50 57.28 56.20 54.69 54.56 53.76 53.95 52.80 52.17 54.63 55.40 55.67 55.52 56.61 56.76 56.50
58.02 58.01 57.87 58.76 59.02 59.90 58.00 60.68 62.36 62.90 63.10 62.46 62.60 63.12 61.56 59.42 57.87 56.13 54.26 54.07 55.07 54.51 53.99 54.16 52.25 53.22 54.84 55.22 55.38 55.37 55.78 56.85
57.62 57.31 58.30 58.96 59.81 59.05 58.89 59.09 59.83 61.36 62.59 62.61 62.18 62.99 61.09 59.44 57.66 56.08 53.72 55.11 56.07 55.13 54.09 54.34 53.91 53.86 55.28 54.57 55.26 54.92 55.44 55.37
56.55 56.90 58.14 58.38 57.64 56.62 56.47 56.25 56.64 57.96 59.99 62.07 62.35 62.67 61.25 59.21 58.20 56.90 53.78 56.16 56.25 55.44 54.42 54.01 53.13 53.34 52.37 52.43 52.62 54.74 54.67 54.98
56.26 57.04 57.27 57.59 57.49 56.88 56.24 55.84 55.61 56.60 57.10 58.58 61.88 62.38 61.35 59.39 57.94 57.36 55.13 56.93 55.52 54.85 54.27 51.87 52.37 53.47 52.24 50.09 48.19 49.84 51.76 53.55
55.84 56.52 56.89 57.35 57.03 55.92 55.14 54.72 54.39 53.85 54.61 55.67 57.46 61.17 60.63 60.05 57.86 57.80 56.99 56.32 55.10 54.88 54.39 53.51 52.27 51.54 53.40 50.33 46.68 46.17 48.62 50.81
56.18 56.83 57.06 57.08 56.06 55.20 53.94 53.13 52.07 53.24 53.59 54.36 55.91 58.43 59.87 59.14 58.06 57.62 56.78 56.29 54.51 54.59 54.04 53.04 53.27 51.37 50.54 54.07 53.09 51.07 47.63 46.35
55.94 56.85 56.82 56.64 55.30 54.89 54.12 53.15 53.48 53.35 53.09 53.64 54.53 55.69 57.17 57.58 57.25 56.49 54.90 54.87 53.81 54.55 53.32 52.90 52.36 51.60 50.71 51.50 52.12 52.64 53.09 49.90
55.44 56.33 55.77 56.25 55.57 54.77 54.10 53.18 52.78 52.38 52.30 52.70 53.85 54.98 55.18 55.52 55.45 55.33 54.92 54.21 54.12 53.80 54.86 53.67 53.61 52.64 52.81 52.43 52.03 51.43 51.06 50.99
55.12 55.74 54.63 55.76 55.16 54.37 52.17 52.24 52.15 52.46 52.46 52.55 52.80 53.29 54.00 54.17 54.74 54.38 54.31 54.47 55.20 55.34 55.05 55.53 54.47 53.67 53.69 52.94 54.18 53.28 53.81 52.71
55.24 55.46 54.74 55.47 54.65 53.92 52.55 52.11 52.74 53.11 53.37 53.26 53.01 53.30 54.04 54.16 54.28 54.57 54.33 54.78 54.92 55.93 55.56 55.30 56.23 55.31 54.69 55.06 55.01 54.97 54.63 53.14

GFSFLT2_sfc_wetblb_099.txt.gz
Wetbulb
66.07 67.09 68.84 69.49 69.57 69.72 69.20 68.55 67.48 67.33 67.15 66.68 66.33 66.12 65.66 67.02 67.84 68.44 68.64 68.19 68.06 67.59 67.22 66.76 66.08 65.26 64.26 63.28 62.75 62.86 60.30 61.02
65.18 65.57 66.03 67.90 68.80 68.03 68.19 67.79 66.96 66.64 66.71 66.60 66.04 66.04 65.69 65.79 66.02 66.80 67.73 67.65 67.10 66.82 66.70 66.14 64.69 64.02 63.12 62.54 62.10 62.03 59.37 60.12
63.38 63.04 63.26 63.53 66.50 67.00 68.06 67.65 66.76 66.35 66.60 66.33 65.15 63.35 63.36 64.29 65.24 66.22 66.82 66.89 66.21 66.72 65.70 64.75 63.08 63.18 62.53 62.06 60.85 58.23 58.76 59.40
62.73 62.16 62.19 62.84 65.50 65.28 65.46 67.00 66.44 65.95 65.34 64.35 62.21 60.62 62.38 64.13 65.26 65.95 66.71 66.11 66.26 66.11 64.99 62.93 61.97 60.63 60.71 60.72 57.53 57.86 58.71 58.67
61.71 62.40 62.18 62.69 63.23 63.12 65.00 64.60 63.72 63.50 62.84 62.14 60.98 61.89 61.76 62.74 63.47 64.39 64.84 64.66 63.96 63.85 61.85 57.44 59.29 59.26 57.90 56.76 56.94 57.12 57.50 57.96
60.29 61.52 61.71 61.73 62.27 62.31 64.03 64.31 63.00 62.50 62.13 61.57 60.03 62.14 62.78 63.01 63.55 62.68 62.88 63.28 61.93 61.29 57.71 55.60 55.89 56.49 56.76 56.70 56.58 56.93 56.66 56.68
59.87 59.62 60.89 61.68 61.57 61.54 62.74 63.53 62.98 62.52 62.02 61.36 61.11 61.49 62.42 63.30 63.27 63.30 62.97 62.05 60.73 58.62 56.41 54.88 55.09 55.87 56.47 56.22 56.24 56.06 56.22 57.13
58.95 58.98 59.91 60.43 61.48 60.57 61.73 62.33 62.81 62.77 62.36 62.00 61.73 62.22 62.00 62.65 61.76 62.54 61.81 61.01 59.52 57.86 55.21 54.23 54.12 55.48 55.38 56.07 55.52 55.51 55.75 55.71
58.57 58.57 58.84 59.57 59.55 59.69 60.48 60.98 62.07 61.88 62.22 61.88 62.32 62.32 61.57 61.96 61.37 60.17 60.42 59.43 57.74 56.33 54.31 53.70 52.84 55.50 54.55 54.45 55.49 55.26 55.50 55.21
58.85 59.62 58.37 58.04 57.54 58.33 59.25 61.62 62.23 62.29 62.80 62.09 62.64 62.57 61.42 59.95 60.93 59.55 57.86 57.29 55.98 55.39 53.68 53.12 53.73 54.45 53.84 54.17 55.05 55.55 55.46 55.64
58.01 58.22 57.50 57.22 56.88 57.00 57.18 60.73 62.47 62.87 62.76 61.79 62.37 62.43 61.00 59.60 58.98 57.85 56.58 56.26 55.24 54.69 53.47 53.67 53.97 54.64 54.10 53.79 54.68 55.04 55.21 56.47
58.25 58.08 57.54 57.30 57.98 57.88 58.16 60.34 61.60 62.13 62.66 62.04 62.35 62.58 60.55 59.10 57.90 56.30 55.65 54.81 54.44 54.06 52.88 52.87 54.43 54.60 55.05 53.72 53.53 54.65 55.33 55.09
57.36 56.70 58.07 58.63 57.21 57.18 57.48 57.82 57.76 59.77 61.88 62.31 61.89 62.46 60.38 58.90 57.19 55.68 54.15 54.09 54.42 53.50 53.58 52.82 51.95 55.08 53.05 51.76 51.60 53.65 53.55 54.26
56.40 56.69 58.03 58.07 57.83 57.22 55.67 56.38 56.50 57.64 58.67 60.50 62.04 62.19 60.55 59.28 57.48 55.48 52.72 54.06 54.42 53.34 53.71 51.48 51.51 54.60 52.73 51.22 48.62 50.10 51.83 52.97
56.14 57.34 57.06 57.31 56.24 54.77 55.09 54.95 54.89 54.83 55.75 57.60 59.13 62.03 60.75 59.63 57.94 55.97 52.72 55.63 54.45 53.54 53.89 53.73 51.91 51.32 54.35 50.83 47.31 47.37 49.30 50.28
56.39 56.72 56.10 56.44 56.20 54.54 53.96 53.28 52.75 53.85 54.48 55.15 56.78 59.44 60.88 59.98 58.65 56.74 54.18 56.65 55.01 54.13 54.70 54.32 54.05 51.35 50.98 53.12 52.26 51.02 48.56 45.50
56.35 56.18 55.57 55.92 55.66 53.68 53.09 53.51 53.90 53.75 53.68 54.31 55.81 57.02 59.95 59.80 57.97 55.83 54.68 56.50 55.47 54.58 53.18 53.07 54.10 52.26 51.47 51.43 52.57 52.46 51.56 48.02
56.01 56.00 55.93 55.90 55.16 52.96 52.56 53.28 52.86 52.37 52.80 53.27 54.39 55.23 57.04 58.66 57.60 56.01 56.14 56.18 55.10 54.18 53.54 53.04 52.62 52.43 52.28 52.34 52.18 51.68 51.15 50.88
55.34 55.43 55.22 54.98 54.17 52.97 53.01 52.96 53.55 52.66 52.71 53.18 53.77 53.99 54.47 55.69 57.07 56.06 55.64 55.22 55.65 55.23 54.25 53.71 53.17 52.37 52.14 52.50 53.28 53.32 53.75 53.05
55.06 55.00 54.75 54.61 53.88 53.01 53.59 52.85 53.58 53.40 53.38 53.75 54.06 54.31 54.47 55.08 55.42 55.68 55.18 55.52 55.65 55.44 54.67 54.65 54.22 53.40 53.01 52.81 53.32 53.42 53.52 54.18

GFSFLT2_sfc_wetblb_105.txt.gz
Wetbulb
71.47 71.44 71.14 69.64 69.25 69.38 69.25 69.42 69.83 69.89 70.32 69.62 70.19 69.96 68.98 69.72 69.27 69.21 69.75 69.46 69.08 69.29 68.56 67.71 67.44 66.66 65.91 64.82 64.14 65.42 67.36 67.13
69.68 71.47 71.40 71.74 72.16 68.42 68.22 68.39 68.28 68.53 68.93 68.82 67.50 67.81 68.22 68.43 68.38 68.53 69.09 68.67 68.30 68.38 67.96 67.00 66.44 65.33 64.60 63.85 63.48 64.31 66.71 66.68
69.25 69.84 71.05 71.08 71.82 71.40 68.76 68.53 67.79 67.32 68.18 67.18 66.60 69.96 69.50 69.13 68.21 66.38 67.61 67.78 68.50 67.91 66.87 65.55 64.71 64.33 64.03 63.25 63.52 65.99 66.07 65.91
68.35 69.15 69.53 70.71 70.40 71.54 69.95 70.31 69.68 68.33 68.86 69.45 69.56 68.84 68.84 68.50 67.47 66.32 67.16 66.52 66.27 66.44 65.51 64.43 64.11 63.88 64.71 63.01 65.27 65.43 65.18 65.49
65.97 67.15 68.91 68.99 69.33 69.98 69.74 69.19 68.49 68.01 69.08 67.54 67.13 65.84 66.27 66.92 66.94 67.07 67.29 66.33 67.83 65.09 65.07 64.58 63.33 63.33 62.99 63.97 64.73 64.91 64.68 64.75
65.51 66.55 67.92 68.24 68.32 68.52 68.55 67.95 67.04 67.23 66.73 67.95 67.23 65.44 64.78 64.99 64.83 65.27 65.67 67.19 66.78 64.20 64.89 63.10 61.93 62.82 61.86 62.84 63.77 63.89 64.03 63.97
65.78 66.59 67.21 66.87 65.69 66.54 67.35 66.62 65.54 65.79 66.73 65.80 67.39 66.10 63.86 66.04 64.63 64.50 65.78 66.39 66.22 62.91 61.90 61.33 60.61 61.92 61.78 61.90 62.29 62.84 63.27 63.18
65.52 66.14 66.68 66.14 64.76 64.02 65.31 64.83 64.45 64.54 65.24 65.64 66.20 67.02 65.84 63.64 63.91 64.44 64.69 64.40 64.82 60.78 59.53 59.31 59.13 61.49 60.18 61.14 61.72 62.26 62.31 62.56
63.24 65.26 66.29 65.71 65.16 63.49 64.03 65.02 65.27 63.94 63.55 63.80 65.24 65.55 64.16 63.06 63.90 64.17 63.85 61.44 61.49 59.55 58.90 58.58 58.04 60.18 59.46 60.72 61.06 61.34 61.29 61.92
63.31 63.42 65.01 65.04 64.29 63.40 63.59 64.35 64.91 64.58 64.27 64.05 64.14 64.14 63.76 64.27 63.72 62.25 62.31 59.72 58.00 58.43 57.39 56.77 57.42 59.02 57.80 59.63 60.49 60.63 61.15 61.45
62.63 63.32 63.67 63.83 63.81 63.07 62.81 63.27 63.34 64.00 64.42 63.33 63.88 63.02 63.54 64.13 63.57 62.34 61.36 59.72 56.76 57.10 56.82 56.87 56.98 57.39 57.73 59.00 59.70 59.92 60.42 60.29
62.58 63.11 63.64 63.39 62.58 61.79 62.52 61.99 62.24 63.27 63.20 63.10 63.39 62.57 62.42 63.27 62.53 60.95 60.82 58.74 56.92 56.81 56.30 56.55 56.74 56.52 57.36 57.65 59.21 59.72 59.90 60.12
61.53 62.09 62.73 62.04 60.07 59.63 60.24 60.54 61.33 61.61 62.56 62.53 62.21 62.59 62.60 62.08 61.33 59.80 60.86 58.43 56.28 56.15 56.27 55.30 56.43 58.63 56.41 55.72 57.19 58.47 58.87 59.42
60.93 61.35 61.19 62.63 61.49 61.64 61.83 61.42 61.03 61.09 62.21 62.04 62.01 62.42 62.26 60.67 59.17 57.64 58.21 58.04 56.44 55.68 56.07 55.22 55.48 56.35 55.44 54.96 50.97 53.05 57.06 58.54
59.95 60.82 59.85 62.51 62.57 61.60 60.93 59.43 59.18 59.00 59.27 61.00 61.56 62.67 61.02 60.35 58.27 57.49 56.24 55.94 55.32 55.88 56.20 55.85 54.15 55.43 57.21 56.07 50.83 50.26 53.60 56.99
59.78 59.98 59.45 61.12 61.30 59.35 59.12 58.50 57.15 57.59 58.27 59.78 61.73 62.51 60.85 60.16 58.42 57.57 57.03 56.27 55.36 55.72 56.53 56.21 55.42 54.14 56.51 56.32 57.52 55.22 52.52 50.69
59.35 58.76 58.81 59.74 60.17 60.07 58.59 57.28 57.80 57.88 58.32 57.98 59.95 61.24 61.18 59.58 58.10 56.85 56.65 56.69 55.94 56.27 55.94 55.92 56.36 56.50 55.57 53.84 54.16 55.51 56.17 53.59
58.95 57.45 57.65 58.49 59.22 58.31 56.77 56.66 57.56 56.82 56.00 55.89 58.01 57.79 59.05 60.16 58.05 57.30 56.10 55.92 55.50 55.83 56.56 56.44 56.61 57.22 57.21 56.30 54.68 53.62 52.69 53.07
58.10 56.81 56.64 57.57 57.75 56.65 56.22 56.92 57.30 56.56 55.77 55.47 56.46 56.58 57.53 59.14 57.77 56.46 55.94 55.46 55.28 54.65 54.96 57.00 58.03 56.97 56.30 56.09 56.52 56.09 56.67 56.18
56.98 56.24 55.94 56.85 56.57 55.53 55.45 57.74 57.55 57.72 57.01 56.31 56.43 57.88 57.69 60.10 58.83 56.91 56.09 55.18 55.26 54.48 54.80 55.11 55.49 56.55 56.54 56.33 56.29 56.47 56.97 56.91

GFSFLT2_sfc_wetblb_108.txt.gz
Wetbulb
73.79 73.59 72.24 69.72 69.58 69.99 69.86 69.83 70.48 70.59 70.80 70.96 71.15 70.61 69.91 69.97 70.17 69.91 68.96 69.77 69.20 69.74 69.10 68.03 68.16 67.49 66.74 65.65 65.44 66.34 68.39 67.39
73.06 73.42 73.01 72.28 72.88 68.75 68.78 68.89 69.05 69.59 70.21 70.07 68.57 68.62 69.12 68.98 69.13 68.74 68.69 69.58 69.01 69.36 67.63 67.34 66.87 66.14 65.49 65.02 64.69 65.69 68.59 66.97
72.36 72.50 72.38 71.92 72.13 71.51 69.02 68.62 68.53 68.37 69.54 68.51 67.03 72.37 71.64 71.01 68.76 68.05 68.47 68.22 68.39 67.88 66.94 66.54 65.21 64.77 64.37 64.42 64.51 68.15 67.36 66.78
71.28 72.11 72.24 72.10 71.79 73.05 72.59 72.12 71.51 72.34 71.64 71.59 71.87 71.56 71.43 69.93 68.60 67.07 67.24 66.52 67.26 67.17 66.47 65.16 64.91 65.06 64.17 64.35 68.19 66.99 67.17 66.02
70.54 71.74 72.33 71.91 71.70 71.67 71.45 71.26 72.29 72.08 72.44 72.17 71.86 70.84 70.91 70.47 70.49 68.96 69.08 67.16 67.65 68.01 66.16 65.94 65.13 64.00 63.31 63.99 67.15 67.19 66.44 66.29
70.55 70.82 71.59 71.80 71.39 71.17 71.61 69.48 70.87 70.41 71.45 70.82 70.57 69.41 69.32 69.42 69.42 68.83 68.50 68.33 68.13 67.93 65.17 66.09 65.04 63.50 63.30 64.93 65.30 66.81 64.64 65.32
70.33 69.30 71.15 71.26 70.85 70.63 70.42 70.84 70.00 69.55 69.79 70.33 70.13 68.38 68.28 68.81 67.26 67.18 67.78 67.44 68.33 65.18 66.60 63.87 63.28 63.39 62.97 64.89 64.36 65.38 65.10 65.12
70.30 69.68 70.56 71.23 70.71 68.52 69.40 70.20 70.00 69.71 69.45 68.66 69.27 69.66 67.43 68.51 68.06 66.19 67.28 67.63 67.91 65.73 65.83 64.75 62.78 62.80 62.07 64.18 64.38 64.81 65.05 64.76
68.95 70.18 70.73 70.82 70.28 68.87 69.18 68.69 68.39 68.87 67.75 67.25 68.19 68.07 68.15 68.26 67.81 66.32 67.23 66.22 65.89 65.51 63.59 64.05 62.57 61.56 62.36 63.72 63.72 64.18 64.36 63.88
67.60 68.06 69.43 70.27 69.79 68.65 67.20 66.87 67.25 66.14 66.08 66.19 66.94 66.96 67.67 67.10 66.74 66.48 65.40 65.86 63.98 61.81 60.41 59.60 59.44 60.15 60.95 62.42 62.29 63.42 63.49 62.95
65.54 67.92 67.77 69.22 69.60 68.38 66.66 66.45 65.96 67.52 66.77 65.72 65.08 66.27 67.05 66.17 66.39 64.51 64.39 62.59 61.21 60.38 59.36 58.95 58.36 58.72 60.00 62.29 62.35 62.46 62.80 62.05
63.25 65.56 67.16 67.81 68.97 67.47 65.34 65.52 65.44 66.49 67.11 66.52 66.94 66.46 65.61 66.16 65.42 64.24 61.94 58.90 57.91 58.11 58.03 58.30 58.01 57.70 58.97 60.36 61.68 61.99 62.22 60.75
61.29 63.65 66.01 66.24 65.35 63.63 62.62 62.05 63.39 63.94 65.78 65.95 66.73 65.91 66.46 64.80 64.16 63.13 60.89 57.90 57.74 58.40 57.84 56.62 56.87 58.27 57.92 58.35 59.57 60.53 60.58 59.95
62.86 63.85 65.48 65.99 64.23 63.40 64.30 63.31 63.24 64.12 64.60 66.01 65.11 65.58 64.88 63.30 62.45 61.94 60.01 58.52 58.57 58.81 57.62 56.31 56.44 58.16 56.30 55.25 52.61 54.96 58.13 59.76
62.52 63.69 64.84 65.91 65.72 63.18 63.86 63.69 63.34 62.51 62.81 63.66 64.25 64.67 63.91 62.83 62.35 61.73 60.62 59.23 56.88 56.94 57.00 56.18 54.34 57.03 58.77 56.45 51.71 50.85 55.34 58.01
62.90 63.49 64.36 65.08 65.57 62.37 62.72 62.09 60.71 62.61 62.03 62.76 63.00 63.47 63.00 62.93 63.06 62.07 59.87 59.00 56.92 56.88 57.35 56.56 56.41 55.09 57.33 58.76 59.71 57.68 54.08 52.48
62.96 63.21 63.72 63.77 63.82 62.76 63.29 63.76 64.14 64.32 63.88 62.94 61.48 62.54 63.06 62.93 60.61 58.82 57.44 58.07 57.30 57.22 57.10 56.62 56.12 55.92 55.97 56.00 57.73 57.31 58.29 54.66
63.04 62.51 62.41 62.24 61.70 62.70 63.49 64.31 64.01 62.36 60.80 59.62 59.29 60.64 62.22 61.36 59.91 58.83 58.27 57.92 56.85 57.11 57.34 56.50 56.30 56.46 56.60 56.70 56.79 56.21 55.26 54.73
62.00 61.91 60.75 60.57 60.28 61.13 63.04 64.58 63.54 62.69 62.21 60.93 58.36 59.29 60.30 61.11 58.57 58.47 57.44 56.97 58.56 57.74 57.71 56.97 57.15 56.48 56.16 56.75 58.19 58.10 57.50 57.23
60.61 61.21 59.39 58.99 58.99 59.54 61.55 62.71 63.60 62.75 62.00 60.44 59.59 59.54 61.33 60.16 58.91 59.56 57.72 57.55 57.68 57.47 56.98 57.02 57.66 57.13 56.45 56.61 58.01 58.94 58.12 57.04

GFSFLT2_sfc_wetblb_111.txt.gz
Wetbulb
74.51 73.40 71.93 70.09 70.32 70.41 70.41 70.51 71.07 71.39 71.54 71.00 70.79 70.83 70.08 70.72 70.77 70.00 70.40 70.64 70.38 70.41 69.55 68.24 68.26 68.26 66.50 65.98 65.77 66.15 68.28 68.11
73.79 73.85 73.29 72.86 72.42 69.26 69.39 69.28 69.89 70.26 70.62 70.15 69.32 68.80 69.63 69.39 69.10 69.53 69.88 69.36 69.88 69.72 68.11 67.77 67.70 66.94 65.73 64.58 64.98 64.90 68.06 67.12
72.87 73.03 73.32 73.53 73.15 71.46 69.22 69.28 69.03 69.19 70.15 69.70 68.89 72.11 71.51 71.02 69.40 68.30 68.14 68.15 68.92 68.78 67.84 66.99 66.16 65.16 64.83 64.08 64.45 68.19 66.14 66.30
71.37 72.30 72.31 72.75 71.83 72.83 72.00 72.17 72.10 71.58 71.91 72.49 72.72 71.81 71.70 70.56 69.19 67.71 67.96 67.77 67.20 67.15 66.52 65.44 65.61 67.29 65.83 64.79 66.05 66.98 66.69 65.98
69.93 71.87 72.71 72.31 71.51 71.96 72.03 71.47 71.81 71.73 72.09 71.97 72.28 71.73 72.30 71.38 71.30 70.79 70.21 67.27 68.16 67.45 66.72 67.50 67.31 66.55 66.22 65.40 65.63 66.05 65.76 65.24
69.89 71.05 72.00 72.61 71.42 70.96 71.51 71.70 71.89 71.31 71.89 73.43 72.13 71.76 71.21 70.62 69.42 69.92 69.66 68.61 67.99 68.28 68.16 67.76 66.82 66.30 66.30 65.14 64.91 64.55 65.19 65.79
70.02 71.18 71.86 72.24 72.11 71.26 71.46 72.22 70.74 72.10 71.32 72.09 72.06 70.72 70.30 69.89 69.94 69.44 68.66 67.58 68.02 67.89 67.53 66.99 66.02 65.25 65.48 64.63 63.79 63.90 64.27 64.61
70.34 71.03 71.86 72.09 71.62 71.90 71.87 72.24 71.80 70.80 70.23 71.05 72.06 71.51 70.56 70.63 69.96 69.17 69.32 69.22 68.81 68.49 67.53 66.42 65.03 64.85 64.19 63.17 63.29 63.70 64.40 63.72
69.67 71.03 72.33 71.42 71.37 71.26 71.06 71.02 70.82 71.06 70.01 70.72 71.03 70.87 70.41 69.70 69.11 68.64 69.10 68.74 68.44 67.88 67.07 66.91 65.60 63.99 62.78 62.77 63.00 64.70 63.78 62.95
66.65 69.40 71.20 70.97 71.95 71.44 70.51 70.04 70.16 70.04 70.10 69.91 69.84 70.14 70.11 69.09 68.32 68.08 68.90 68.78 67.88 66.74 65.47 64.03 62.94 61.96 61.83 61.91 61.91 63.24 63.89 62.07
65.05 68.89 69.65 70.92 71.79 71.41 71.35 70.56 69.50 69.31 69.30 67.81 69.08 67.80 68.16 67.89 68.15 68.30 68.57 66.97 66.08 65.24 62.51 62.38 60.81 60.57 60.68 60.92 61.32 62.44 62.32 62.04
63.75 65.62 68.68 69.77 70.59 71.32 70.29 68.86 68.56 68.73 68.25 68.07 68.48 68.25 67.65 67.60 67.38 67.77 67.24 64.67 62.90 62.11 60.37 59.81 59.73 59.78 60.12 59.88 60.22 61.99 62.38 61.84
61.87 62.45 65.90 68.52 67.62 67.98 68.73 65.21 65.35 66.01 68.44 68.56 68.07 67.36 66.68 65.84 65.65 65.69 64.92 62.73 61.13 60.71 59.33 58.99 58.35 59.50 58.49 58.62 58.92 61.08 61.98 61.30
63.27 63.44 63.75 65.35 67.05 67.68 67.88 64.51 64.68 65.44 66.84 68.23 67.91 67.04 66.13 65.69 65.85 63.72 61.42 60.68 59.90 59.18 57.96 56.97 57.41 58.79 56.95 55.95 53.56 56.60 59.63 59.77
62.93 63.63 64.19 65.43 66.82 67.61 65.52 65.11 64.21 63.72 64.16 65.87 66.68 66.70 66.00 66.12 65.78 63.81 60.96 60.04 58.45 58.28 57.80 57.11 55.53 57.63 58.30 55.81 52.36 51.89 55.16 58.62
64.05 64.08 64.25 65.12 66.96 66.40 63.81 62.50 61.40 62.81 64.00 65.04 65.51 66.48 65.67 64.96 64.59 62.98 60.96 59.59 58.50 58.51 59.49 57.64 56.70 55.27 57.25 58.49 57.49 56.59 53.24 52.62
63.65 64.44 64.42 65.08 65.77 66.43 64.36 62.37 64.33 65.43 65.19 64.83 63.88 65.28 64.29 65.05 64.15 62.04 61.10 59.62 58.97 58.03 57.69 56.96 56.41 55.33 55.51 56.03 56.19 56.19 58.09 54.83
62.67 63.41 64.00 64.65 65.46 65.49 64.36 62.88 65.06 64.82 65.11 64.35 62.64 63.83 64.46 63.77 63.27 62.37 62.16 60.79 58.90 57.87 58.03 57.20 56.65 56.10 56.69 56.65 55.94 54.93 55.43 55.45
60.97 61.50 62.87 64.16 64.27 63.89 63.63 63.32 64.91 65.64 65.38 64.29 62.86 62.27 62.65 62.58 61.28 61.50 60.79 60.49 59.67 58.31 57.52 57.06 56.72 56.43 56.91 56.52 57.52 56.83 57.47 56.70
59.81 60.37 61.30 63.26 63.23 61.20 63.04 63.15 63.56 64.65 64.68 63.84 62.75 62.17 62.57 61.45 60.67 60.14 59.50 59.44 59.64 58.32 57.46 57.18 56.92 56.55 56.57 56.54 56.66 57.17 57.79 58.71

GFSFLT2_sfc_wetblb_114.txt.gz
Wetbulb
71.56 71.30 70.95 70.44 70.26 70.69 70.84 71.11 71.38 71.48 71.55 71.47 71.61 70.40 70.36 70.57 71.17 70.62 70.28 70.52 69.54 69.67 69.02 68.71 68.60 68.48 67.61 66.17 65.81 64.99 65.05 66.41
72.25 71.77 71.39 71.03 70.69 69.53 69.69 69.83 70.12 70.57 70.94 70.51 70.41 69.58 69.90 69.72 69.74 69.86 69.68 69.94 69.34 69.58 68.31 67.80 67.64 67.04 66.28 65.68 64.99 64.59 64.39 66.32
72.64 72.09 71.52 71.36 71.06 70.54 69.29 69.58 69.65 69.69 70.43 69.83 68.48 71.30 70.60 70.22 69.17 68.75 69.26 68.92 68.25 68.94 67.62 67.09 66.35 66.28 65.86 64.65 64.33 64.63 65.12 64.04
71.44 71.61 71.47 71.79 71.36 70.88 70.41 70.54 70.32 70.64 71.20 70.83 70.34 71.18 70.49 69.81 68.81 68.11 68.04 67.26 67.82 67.44 67.24 66.30 65.59 65.40 64.52 65.05 64.94 65.85 64.95 65.70
69.55 71.31 71.96 71.38 70.07 71.11 70.69 70.63 70.37 69.99 70.33 70.62 70.88 70.64 69.94 69.07 68.75 67.92 67.75 66.95 66.61 66.37 65.69 65.64 65.99 65.52 64.65 64.64 65.08 64.79 64.93 65.45
68.70 70.72 71.49 71.28 70.72 70.67 70.66 69.81 70.25 69.83 69.96 70.25 70.30 70.06 69.56 68.92 68.13 67.98 67.59 66.89 65.67 65.52 65.50 64.68 65.53 65.37 65.08 64.73 63.84 64.83 64.25 65.09
68.01 69.51 70.55 71.39 71.23 69.81 70.20 70.38 70.19 70.07 70.15 70.44 70.34 69.75 68.86 68.78 68.07 67.79 67.12 66.91 65.94 65.32 65.14 65.24 65.18 64.60 64.61 64.43 63.57 63.48 63.97 62.90
68.49 68.72 70.42 71.24 70.85 70.78 69.53 71.23 70.15 70.30 70.13 70.20 71.10 70.26 69.11 68.31 67.76 67.14 67.02 67.16 66.45 65.68 65.28 64.84 64.90 64.21 63.97 64.02 63.25 63.22 63.36 63.59
68.33 68.95 70.67 70.84 70.86 70.44 70.70 69.95 70.71 69.35 69.84 69.94 70.17 70.18 69.47 68.27 67.77 67.19 66.87 66.37 65.66 65.32 64.92 64.36 64.05 64.01 63.05 62.83 62.91 62.54 62.93 63.11
68.37 69.44 70.61 70.35 70.57 70.38 69.74 69.74 69.94 70.14 69.27 68.94 69.26 69.73 69.46 68.01 67.34 66.89 66.99 65.75 65.28 64.46 63.92 62.92 62.99 62.32 62.26 61.76 61.74 61.84 62.65 62.96
63.85 68.92 70.50 70.17 70.14 70.77 70.01 69.46 69.17 68.63 69.14 69.05 68.79 68.99 68.93 67.77 67.17 66.75 66.90 65.32 64.33 63.92 63.72 62.73 62.13 61.91 61.38 61.37 61.24 61.29 61.54 62.41
64.29 67.86 69.34 70.36 69.92 69.61 70.22 69.21 68.49 68.44 67.98 68.06 67.90 67.06 68.21 66.88 66.03 66.29 66.23 65.35 63.99 63.67 62.79 63.20 61.92 60.91 61.01 60.51 60.65 61.02 61.20 59.99
61.98 63.72 67.73 68.71 68.35 68.35 68.17 67.50 66.82 66.89 67.11 67.33 66.56 66.41 67.00 66.14 65.55 64.86 65.13 63.82 62.47 62.49 61.08 59.96 59.36 60.48 59.26 58.60 58.88 59.82 59.71 59.39
63.02 63.03 62.99 65.34 67.56 67.28 68.17 68.02 67.21 66.46 66.16 66.84 67.21 66.86 66.50 65.24 64.97 63.63 63.94 62.36 61.33 60.79 59.44 57.93 58.37 60.05 57.49 56.61 54.00 55.74 57.77 58.65
61.97 62.25 62.82 63.40 62.95 66.15 66.58 66.01 64.81 63.63 63.86 64.40 66.58 66.29 65.80 65.26 64.22 63.63 62.76 61.72 60.25 59.91 59.29 57.64 56.29 57.93 58.80 56.03 52.18 51.13 54.58 56.88
62.49 63.36 63.11 63.44 64.69 63.83 64.96 63.01 61.89 62.98 63.29 63.69 65.35 65.48 65.02 64.92 64.53 62.87 61.61 60.97 59.62 59.31 59.20 58.45 57.59 56.05 57.29 57.63 56.43 56.01 52.33 50.93
62.23 63.05 63.16 63.36 64.01 64.17 64.73 63.45 63.48 63.15 62.69 62.51 63.29 64.15 64.44 64.08 64.25 62.78 60.97 60.08 59.51 58.76 58.25 57.78 57.70 57.05 56.38 55.35 55.15 55.37 55.31 53.12
61.29 61.26 60.90 63.30 63.58 64.01 64.68 63.07 62.63 61.98 62.42 61.83 62.33 63.36 63.67 64.10 63.45 62.43 61.12 59.78 58.82 58.69 58.59 58.03 57.14 57.47 57.00 56.32 55.24 54.31 53.87 53.82
59.33 59.35 58.81 60.53 63.27 62.77 64.09 64.04 63.06 62.36 62.98 62.77 62.15 61.87 62.22 62.72 62.91 61.64 60.84 59.76 58.87 58.94 58.12 57.76 57.00 56.13 56.25 56.17 56.60 56.35 56.41 55.34
56.46 56.00 56.67 58.75 59.00 62.12 62.76 64.28 62.86 62.97 63.83 63.92 62.01 61.53 61.75 62.75 62.52 61.84 60.63 60.22 59.23 58.71 58.06 57.40 56.92 56.21 56.11 56.45 57.11 57.01 57.41 56.20

GFSFLT2_sfc_wetblb_117.txt.gz
Wetbulb
68.60 69.16 70.04 70.26 70.38 70.68 70.57 70.83 70.92 71.14 71.46 71.32 71.27 70.90 70.56 71.01 70.91 71.05 70.18 69.66 69.84 69.62 69.12 68.81 68.65 68.36 68.09 66.63 65.76 65.91 64.07 64.71
68.08 68.17 68.33 67.84 68.69 69.60 69.75 69.91 70.14 69.84 70.55 70.59 70.33 69.79 69.55 69.80 70.03 70.15 70.12 68.90 69.38 69.26 68.64 68.17 68.17 67.45 66.94 65.96 64.86 65.25 64.08 65.51
68.58 68.40 68.20 67.57 67.66 69.20 69.41 69.82 69.78 69.36 69.93 69.56 68.94 69.19 68.94 69.31 68.79 68.73 69.46 68.57 68.73 68.33 67.86 67.21 66.63 66.27 65.93 65.13 64.69 64.07 63.65 65.36
69.10 68.24 68.26 68.26 69.69 67.84 67.45 68.92 69.08 69.35 69.12 68.45 68.92 68.78 68.38 69.32 68.42 67.94 68.50 67.94 68.07 67.70 67.16 66.34 65.59 63.89 63.62 64.88 63.39 64.70 64.27 64.21
68.97 68.73 68.67 68.54 68.63 67.81 68.11 67.79 67.97 68.31 68.22 68.33 67.50 69.03 68.04 67.92 66.89 66.69 66.13 66.76 66.14 66.35 65.33 64.71 63.93 62.97 62.45 62.42 62.79 63.85 64.36 63.58
68.49 68.66 68.76 68.65 67.55 67.95 67.95 68.11 67.64 67.48 67.59 67.79 68.04 67.00 66.49 65.97 66.09 65.88 65.42 64.30 64.42 64.20 63.49 63.69 63.85 63.72 63.02 62.48 63.03 63.58 63.25 63.42
67.46 68.53 68.80 68.66 66.97 68.69 67.98 68.00 68.13 67.83 67.56 67.87 67.97 67.21 66.31 65.97 65.61 65.84 65.85 64.96 64.07 63.93 63.56 63.01 63.29 63.20 63.26 62.92 62.36 62.37 62.79 62.70
66.46 67.95 68.89 68.75 68.09 66.80 67.16 67.70 68.04 67.69 67.50 68.12 67.27 67.41 66.55 66.17 65.32 65.41 65.08 65.24 64.00 64.16 63.62 62.98 62.94 62.46 62.63 63.12 61.84 61.74 62.53 61.76
65.06 67.18 68.56 68.42 67.70 67.48 66.68 68.08 68.18 67.41 67.67 67.83 68.41 67.77 66.83 66.20 65.57 64.78 65.17 64.89 63.62 63.63 62.79 62.58 62.13 63.57 62.08 63.71 61.63 61.36 62.21 63.12
65.27 67.91 68.25 68.75 67.99 67.37 67.24 68.02 68.09 67.33 67.39 67.16 68.17 68.12 67.39 66.02 65.71 64.42 64.47 63.67 63.29 63.45 62.91 61.61 61.72 61.83 60.49 60.37 60.73 61.22 62.55 62.86
65.19 66.83 67.63 67.85 67.46 67.97 66.54 66.03 67.48 67.69 66.85 66.99 66.05 67.12 66.96 66.05 65.64 64.73 64.18 63.00 62.12 62.57 60.83 61.43 61.54 61.39 60.69 61.61 61.03 60.68 61.52 63.13
63.82 66.76 67.87 67.95 68.11 66.99 66.63 65.73 65.62 65.87 67.33 67.17 66.36 66.50 66.81 65.55 65.28 64.80 64.62 62.70 61.18 61.77 61.58 59.56 61.41 61.32 61.49 60.84 60.60 60.38 61.30 61.27
61.05 66.43 67.34 67.25 66.22 65.15 64.22 65.39 64.98 63.78 64.87 66.16 66.62 66.44 67.01 66.27 65.29 64.44 64.78 63.09 62.40 62.03 62.13 61.26 59.73 60.34 59.74 59.33 59.79 60.58 60.47 60.39
56.56 62.35 66.94 67.37 67.11 66.46 65.44 64.66 64.65 65.42 63.83 64.45 65.46 64.74 65.65 66.35 65.47 63.79 63.09 62.31 62.43 61.74 60.53 58.92 59.06 60.66 57.78 56.49 53.95 56.35 58.72 60.05
56.54 57.29 58.69 62.98 65.90 64.51 63.11 62.79 61.93 61.38 61.77 62.61 63.85 64.43 64.78 65.23 64.52 63.50 62.88 61.29 60.72 60.86 60.13 59.33 57.53 59.22 59.30 56.39 52.49 51.57 55.13 57.66
57.00 58.53 58.54 59.26 58.74 61.64 62.21 61.64 59.53 60.35 60.94 61.72 63.55 65.00 65.24 65.31 64.38 63.09 61.23 60.63 60.38 60.41 60.11 59.18 57.92 56.11 58.64 57.70 55.45 55.12 52.61 51.62
56.62 57.96 58.31 58.89 58.54 59.15 62.20 60.84 62.02 60.37 60.57 60.83 61.25 63.87 64.89 64.63 63.97 62.60 61.15 60.34 58.71 59.73 59.62 58.77 58.28 57.03 57.45 56.85 55.13 55.47 55.31 53.53
53.73 53.86 54.64 56.01 57.78 58.02 61.60 60.86 60.39 59.63 59.97 60.55 61.43 62.41 63.71 63.17 63.72 62.32 61.64 60.97 59.73 59.31 59.33 58.61 58.18 57.82 57.86 56.97 55.46 54.69 54.19 53.70
52.72 52.79 52.77 53.26 54.23 55.28 56.53 61.23 60.44 60.00 60.22 60.44 60.41 60.89 62.27 63.00 62.98 61.78 60.54 59.98 59.67 59.31 58.65 58.13 57.75 57.45 57.05 56.31 56.75 55.97 56.52 55.31
50.24 50.70 50.74 51.65 52.95 53.85 54.68 56.16 61.81 61.20 61.45 62.00 61.01 61.43 62.52 63.24 62.71 61.92 60.91 59.92 59.39 59.16 58.69 58.21 57.62 57.03 57.07 56.57 56.49 56.65 57.10 56.23

GFSFLT2_sfc_wetblb_120.txt.gz
Wetbulb
68.00 69.01 70.47 70.43 70.10 70.14 69.70 69.97 70.47 70.72 70.86 71.12 71.25 70.72 70.61 70.77 70.91 71.14 70.96 70.75 70.45 70.21 69.34 68.81 68.76 68.49 67.92 64.89 65.19 65.40 63.97 62.05
67.21 67.18 68.47 69.53 70.21 69.24 69.19 69.53 69.49 69.94 70.20 70.32 69.71 69.41 69.61 70.05 69.84 70.21 70.19 69.99 69.82 69.43 68.64 68.24 68.15 67.46 66.81 64.87 64.64 65.07 62.96 62.19
66.80 67.09 66.44 66.28 68.15 69.94 69.37 69.62 69.40 69.17 69.78 69.78 68.85 68.94 68.94 69.41 69.09 68.93 69.40 68.74 68.83 68.63 67.97 67.37 66.76 66.49 65.91 64.53 64.41 62.97 63.61 64.52
66.53 66.71 66.44 66.17 68.94 69.15 69.24 69.93 69.95 69.03 68.97 68.98 68.92 67.68 67.28 68.69 68.40 67.86 68.62 68.09 67.78 67.38 67.12 66.58 66.04 64.18 63.77 64.43 63.15 63.34 63.59 62.86
66.87 66.76 66.60 66.76 67.23 67.09 67.81 68.36 67.97 68.14 68.40 67.07 67.34 68.15 67.36 67.07 66.21 66.81 66.56 67.28 66.40 65.98 65.33 64.45 63.96 62.87 61.70 61.79 62.37 62.84 62.98 63.34
67.41 67.17 66.92 66.89 66.91 66.51 66.77 66.87 67.18 67.41 68.63 67.45 67.23 67.34 66.41 65.76 65.24 65.00 64.75 64.09 64.43 63.93 63.20 62.95 62.75 62.42 61.56 61.42 61.99 62.27 61.89 61.61
67.61 67.61 67.37 67.37 67.12 66.52 66.74 66.46 66.53 66.66 66.98 67.41 67.57 66.93 66.75 65.58 65.04 64.86 64.09 63.13 63.69 62.80 62.31 62.13 62.11 61.98 61.74 61.56 61.86 61.67 62.03 61.44
68.02 67.85 67.79 67.80 67.42 67.19 66.76 66.81 66.65 66.65 66.60 67.39 67.46 67.21 66.78 65.31 64.91 64.97 64.45 63.48 63.17 63.26 62.54 61.75 61.85 62.01 61.65 61.83 61.43 61.30 61.15 61.08
66.94 67.64 68.09 67.88 67.05 67.60 67.05 67.20 67.50 66.88 66.88 66.83 67.12 66.94 66.47 65.82 64.84 64.57 64.44 64.66 62.91 62.51 61.36 61.04 61.55 61.51 60.76 61.71 61.73 60.90 61.04 60.63
65.60 68.15 67.77 67.78 67.22 66.75 66.63 67.14 67.29 67.34 66.90 67.30 67.01 66.74 66.54 65.48 64.96 64.46 64.28 64.03 63.06 62.61 61.91 61.23 61.36 61.31 59.49 60.53 62.29 62.03 61.02 61.27
64.58 66.17 66.92 67.31 67.18 66.80 66.38 66.98 66.97 67.17 67.29 67.21 67.30 67.08 66.63 66.00 65.37 63.98 63.77 63.10 62.72 62.54 61.77 61.77 61.09 60.85 61.16 61.12 61.39 61.29 60.96 62.19
64.09 65.31 66.56 67.40 67.30 66.75 65.47 66.56 66.72 66.72 66.96 67.11 66.38 67.34 66.56 65.98 65.04 64.13 63.91 62.34 60.77 61.43 61.08 58.50 61.61 61.93 61.26 61.10 60.97 61.38 61.18 60.51
62.77 64.00 65.66 66.89 66.45 65.48 64.34 64.27 64.81 65.36 66.25 66.81 66.34 66.38 66.61 65.46 64.91 64.98 64.95 63.02 61.41 61.09 61.20 60.98 60.57 61.79 59.49 59.53 59.87 60.46 60.42 60.57
61.93 64.32 65.30 66.41 66.71 66.68 64.98 64.06 63.90 65.07 65.39 65.78 66.49 65.74 66.03 66.27 65.19 64.38 64.92 63.38 60.94 61.10 61.68 59.87 59.49 61.23 58.18 56.59 54.30 56.75 59.34 59.91
63.11 65.54 65.89 66.31 66.22 64.38 62.85 62.62 61.60 61.37 61.27 63.57 65.12 65.45 65.45 65.76 65.20 64.39 64.16 63.80 62.55 62.40 61.70 60.46 58.34 59.99 59.29 56.63 52.85 52.20 55.46 58.74
57.54 59.06 59.52 60.47 62.42 62.64 60.78 62.19 62.15 61.55 62.59 63.01 63.48 64.66 64.55 64.87 64.02 63.42 63.58 63.29 62.64 61.83 61.38 60.64 59.16 57.65 59.08 58.45 56.13 55.54 52.66 51.76
52.64 53.83 54.12 56.42 57.22 58.28 61.53 60.94 61.69 60.07 59.89 61.76 62.89 63.61 64.70 65.12 64.27 63.98 63.00 62.37 61.40 60.74 60.25 59.46 59.26 57.92 57.84 57.09 55.49 55.43 55.35 52.99
50.63 51.05 51.23 52.71 53.83 54.61 56.72 58.62 59.78 59.50 59.26 59.98 60.13 61.67 64.10 64.29 64.18 63.25 62.91 61.88 60.17 60.30 60.09 59.41 58.76 58.06 57.68 57.83 56.57 55.42 54.18 53.83
49.91 49.58 49.23 50.25 49.85 49.72 51.25 52.20 54.35 58.89 59.97 60.92 60.98 60.49 59.50 61.86 63.01 62.53 62.20 61.83 60.72 60.24 59.29 59.15 58.73 58.01 57.49 57.74 58.11 57.51 56.44 56.10
47.15 47.23 47.25 47.74 47.74 46.97 47.79 49.52 50.54 54.02 59.92 60.82 61.04 61.28 61.64 62.53 62.18 62.40 61.99 61.24 60.30 59.86 59.26 58.81 58.73 58.15 57.61 57.73 57.31 57.20 57.15 56.61

GFSFLT2_sfc_wetblb_123.txt.gz
Wetbulb
68.13 69.21 70.31 70.23 70.01 70.07 69.73 70.09 70.38 70.52 70.81 70.85 71.02 70.62 70.27 70.52 70.86 71.31 71.05 71.01 70.79 70.12 69.34 68.63 68.63 68.25 67.01 65.63 64.91 65.65 63.48 64.19
67.97 69.14 69.84 70.28 69.89 68.74 68.42 68.96 69.28 69.60 70.09 69.77 69.12 69.27 69.63 69.69 69.67 70.29 70.29 70.23 70.06 69.61 68.53 68.06 68.01 67.28 65.95 65.05 64.73 64.72 61.47 63.58
67.28 67.88 68.63 69.20 69.67 69.73 69.01 69.37 69.17 69.01 69.62 69.28 68.00 68.70 68.87 69.23 68.60 69.05 69.57 69.17 69.03 68.87 67.91 67.23 66.63 66.11 65.23 64.87 64.47 62.98 60.12 62.53
66.22 67.05 66.92 67.32 68.66 69.79 69.94 69.96 69.99 70.10 69.89 69.24 68.63 67.16 67.27 68.67 68.22 68.06 68.68 68.08 67.99 67.70 67.28 66.42 65.93 63.70 64.19 64.46 62.25 62.25 62.46 62.27
65.36 66.01 66.26 67.16 68.06 68.26 68.25 68.60 68.60 69.26 68.02 67.27 68.04 67.59 66.71 66.68 66.39 66.96 66.53 67.12 66.15 65.84 65.01 64.43 63.65 62.73 61.91 61.57 61.77 61.88 62.34 61.63
65.03 65.55 65.67 65.74 67.03 66.84 67.08 67.25 67.44 67.56 68.45 65.77 66.84 68.36 66.73 65.35 65.64 65.19 64.93 64.97 64.19 63.65 62.74 62.82 62.49 61.91 61.06 60.88 61.19 61.73 61.46 61.38
64.90 65.46 65.28 65.79 65.58 66.27 66.43 66.11 66.65 66.89 67.48 67.19 67.09 67.46 67.05 65.76 64.56 64.33 64.25 63.54 63.60 62.44 61.95 61.75 61.41 61.19 60.72 60.70 60.82 61.11 61.32 60.99
65.12 65.18 65.43 65.76 65.53 65.12 65.63 66.03 66.33 66.36 66.79 67.70 67.23 67.37 67.03 65.30 64.38 63.93 63.54 63.57 62.96 62.99 61.89 61.03 60.75 60.91 60.57 60.38 60.78 60.70 60.76 59.99
66.16 65.36 65.40 65.43 65.54 65.06 64.76 65.42 65.61 65.52 65.94 66.80 67.46 66.58 65.81 65.04 64.43 63.77 63.84 62.90 62.11 61.35 60.59 60.17 59.91 60.58 60.21 60.37 60.33 60.44 60.47 60.11
66.87 67.52 66.07 65.74 65.60 66.00 65.56 65.53 65.55 65.29 65.41 65.81 66.42 66.58 65.95 64.88 64.18 63.84 63.52 63.14 62.29 61.77 60.61 59.13 59.45 59.71 58.67 59.59 61.70 60.51 60.36 59.68
64.48 66.89 66.58 66.36 66.11 66.63 66.07 65.73 65.97 66.04 65.79 65.59 65.80 66.24 66.13 65.27 64.75 63.60 63.21 62.82 62.15 61.91 59.87 60.20 60.21 60.48 59.85 59.87 60.82 61.70 61.70 61.60
64.30 66.15 66.65 66.87 66.84 65.38 64.07 64.65 65.04 65.65 66.04 66.24 65.80 66.09 66.16 65.63 64.68 63.55 63.63 62.26 61.76 61.60 61.51 60.35 60.80 61.51 61.27 60.83 61.26 61.38 61.37 61.35
62.55 63.40 65.33 66.30 65.84 64.29 63.71 64.73 65.11 65.00 66.04 66.29 65.93 66.29 65.95 65.61 64.93 63.65 63.91 62.91 61.39 61.27 60.49 60.75 60.60 62.11 59.53 59.41 59.75 60.61 60.79 61.11
59.70 62.48 64.23 65.67 66.25 65.88 65.58 65.54 64.64 65.38 65.66 66.09 66.20 66.22 65.80 65.64 64.85 64.10 64.68 63.81 61.98 61.51 62.00 60.26 60.51 61.43 58.57 57.22 55.07 56.88 59.43 60.01
57.03 61.38 63.01 64.96 65.70 64.02 62.28 62.21 61.45 61.40 62.47 64.56 65.79 65.28 65.80 66.05 65.06 64.49 63.74 63.45 61.98 61.88 62.15 61.13 58.85 60.37 59.35 56.04 52.69 51.36 54.08 58.71
57.11 58.55 59.31 61.99 63.05 62.13 61.76 61.83 60.48 62.47 63.33 64.63 64.28 65.06 65.06 65.80 64.83 64.22 64.45 64.06 63.09 62.51 62.81 62.01 60.67 58.62 59.33 58.38 56.49 55.01 52.54 51.93
51.63 52.73 53.50 54.97 57.33 59.58 60.30 60.06 60.97 60.59 60.66 61.44 61.65 63.85 64.41 64.89 65.20 64.50 64.08 63.85 63.53 62.81 62.04 61.26 60.59 59.26 58.51 57.40 55.43 53.01 55.36 53.18
49.20 49.16 49.09 50.22 52.03 52.18 52.39 52.49 54.69 57.88 59.10 59.89 60.27 61.49 63.13 63.80 64.30 64.16 64.40 63.12 62.57 62.14 61.61 61.01 60.25 59.47 58.92 57.75 56.62 55.44 54.38 53.85
47.38 47.39 46.47 47.54 47.53 48.23 49.47 50.21 50.98 51.89 56.31 59.33 60.09 59.27 60.35 62.70 62.68 62.84 62.91 62.44 61.99 61.98 61.01 60.35 59.71 58.83 58.01 57.83 57.87 56.57 56.83 56.05
44.26 44.44 44.17 44.83 45.12 45.07 45.73 46.70 47.99 50.01 53.48 57.32 59.99 61.14 61.50 62.58 62.28 62.65 62.72 62.09 60.69 60.75 60.43 60.17 59.43 58.85 57.89 57.85 57.63 58.08 58.24 57.24

GFSFLT2_sfc_wetblb_129.txt.gz
Wetbulb
72.36 72.64 71.84 69.99 69.85 70.08 69.56 69.80 70.31 70.56 70.89 70.96 71.21 70.99 70.82 71.28 71.63 71.79 71.86 71.13 70.36 69.72 69.04 68.78 68.81 67.93 66.93 66.13 65.95 66.52 69.61 69.58
71.19 71.89 72.23 72.46 72.68 69.11 68.68 68.79 68.97 69.53 69.80 69.67 69.29 69.44 69.68 69.99 70.10 70.91 70.96 70.37 69.55 69.30 68.39 68.04 67.87 67.31 66.13 65.30 65.32 65.75 69.02 69.12
70.24 70.64 71.48 72.12 71.09 71.10 69.38 69.15 68.99 68.88 69.68 69.13 68.61 72.34 72.22 71.97 70.26 69.37 69.92 69.54 68.86 68.55 67.80 67.20 66.39 66.15 65.93 65.01 64.97 68.69 68.72 68.94
68.61 69.66 70.57 71.13 69.85 70.49 71.60 71.63 71.80 71.88 72.09 72.05 72.40 72.36 72.15 71.60 70.31 68.54 69.08 68.67 68.11 67.89 67.18 66.46 67.08 69.58 68.60 65.76 68.56 68.36 68.39 68.70
67.68 68.82 70.15 69.63 69.21 69.69 69.99 70.77 70.94 71.28 71.85 71.97 72.07 71.74 71.75 71.41 72.15 71.51 71.82 69.36 70.45 68.63 68.59 69.28 69.55 69.19 68.99 68.59 68.37 68.20 68.15 68.56
67.33 68.39 68.71 69.11 69.30 68.81 69.17 68.97 69.57 69.70 70.06 70.27 70.15 70.47 70.94 71.23 70.86 71.66 71.40 70.88 70.55 70.18 69.64 69.13 69.12 67.69 68.78 68.44 67.84 67.87 67.59 67.42
66.33 67.04 67.44 67.36 68.38 68.32 68.20 68.39 68.79 68.86 69.28 69.36 69.83 69.05 69.07 69.68 70.55 70.83 70.88 70.76 70.26 69.52 69.01 68.37 68.12 67.81 68.06 67.69 67.37 67.35 67.57 67.55
66.19 65.35 65.98 66.54 67.16 68.24 68.08 68.11 68.40 68.52 68.69 68.75 68.88 69.08 69.01 68.34 69.08 69.84 70.27 70.55 70.07 69.46 68.56 67.64 67.63 67.64 67.35 67.16 66.96 67.12 67.02 67.11
65.34 65.61 65.09 65.61 66.52 67.83 67.86 67.48 67.71 67.35 67.93 68.57 68.37 68.70 68.75 68.17 67.42 68.48 69.91 70.28 69.94 69.17 68.60 67.90 67.15 66.75 66.75 66.75 66.61 66.56 66.38 66.40
65.15 66.12 65.54 64.93 65.61 66.60 67.35 67.79 67.44 67.27 66.90 67.26 68.38 68.38 68.56 67.66 66.61 66.91 69.45 69.50 69.25 68.53 67.88 67.10 66.54 66.16 65.85 65.96 65.94 66.12 66.12 66.08
65.06 66.44 66.24 66.49 66.68 65.78 66.01 66.37 66.15 66.45 66.51 66.40 67.26 67.53 67.43 67.11 66.10 66.60 68.84 68.73 67.90 67.73 66.63 67.05 65.21 64.70 64.91 63.46 63.88 63.62 65.58 65.79
66.76 65.99 66.22 66.86 67.27 66.94 66.45 65.10 65.02 65.36 65.10 65.78 66.42 66.26 66.50 66.21 67.86 66.92 68.35 67.37 66.59 66.54 66.01 65.92 65.64 65.39 62.74 61.76 62.75 63.10 64.35 65.97
67.27 66.15 65.91 65.95 65.87 65.53 65.43 64.32 64.88 65.53 66.97 67.73 67.49 66.85 65.82 66.47 67.71 67.92 67.59 65.66 65.55 65.26 65.92 64.88 63.87 63.76 61.94 61.22 61.94 62.95 62.88 64.57
66.73 67.27 66.41 65.64 65.38 66.25 66.70 66.67 66.63 66.63 67.10 67.30 67.64 67.78 67.33 67.40 67.06 66.73 66.23 65.37 65.23 64.64 64.69 63.25 63.57 63.64 61.22 60.16 58.60 60.42 61.64 62.64
65.20 67.01 67.01 67.04 66.68 66.70 66.65 67.04 66.73 66.02 65.34 65.34 66.44 67.44 67.87 68.22 67.53 66.70 65.92 66.10 64.45 64.10 64.68 65.08 62.03 62.44 63.22 62.27 58.03 56.95 59.35 61.37
64.23 66.09 67.48 67.94 68.18 66.74 65.93 64.81 63.71 65.30 65.57 65.59 66.00 67.33 67.55 67.70 67.67 66.86 66.63 65.95 65.68 64.68 65.03 65.53 65.10 61.05 62.04 61.85 60.56 60.76 57.92 56.52
60.74 63.58 65.64 67.16 67.86 67.23 66.61 66.16 67.33 67.29 66.62 65.22 65.95 66.01 65.71 65.19 64.58 64.48 65.63 65.56 66.15 65.59 64.63 64.92 66.29 65.05 62.58 60.89 59.76 57.95 58.17 57.51
54.22 54.61 52.66 54.48 59.28 63.71 66.11 65.30 64.75 64.12 65.19 63.76 64.58 64.92 61.80 60.28 60.69 60.95 64.63 65.31 65.37 65.48 65.79 64.77 65.28 65.82 64.60 63.16 60.69 58.25 56.94 57.86
48.98 50.28 48.34 48.54 48.40 48.73 50.53 53.45 56.27 60.20 62.88 63.27 63.41 62.75 62.64 61.11 61.51 62.70 64.30 65.44 65.43 65.50 64.59 64.52 64.88 64.30 64.16 63.23 61.84 61.92 60.18 59.18
44.09 45.53 45.07 45.73 46.37 47.11 47.69 47.54 49.86 50.95 53.34 54.47 59.16 61.88 63.27 63.95 63.80 64.24 64.70 65.39 65.27 64.35 64.28 64.45 64.52 64.60 64.66 64.59 61.94 62.15 60.78 58.83